[[{"header":{"parameterUnit":"m.s-1","parameterCategory":1,"la1":30.6,"la2":29.2853,"lo1":-89.7004,"lo2":-87.6739,"dy":0.0162,"dx":0.0183,"nx":112,"ny":82,"refTime":"2024-08-31T18:00:00:Z","depth":0,"parameterNumber":2,"parameterNumberName":"U-component_of_WINDS"},"data":[0.0,0.0,0.0,0.0,0.0,0.0,0.0,0.0,0.0,0.0,0.0,0.0,0.0,0.0,0.0,0.0,0.0,0.0,0.0,0.0,0.0,0.0,0.0,0.0,0.0,0.0,0.0,0.0,0.0,0.0,0.0,0.0,0.0,0.0,0.0,0.0,0.0,0.0,0.0,0.0,0.0,0.0,0.0,0.0,0.0,0.0,0.0,0.0,0.0,0.0,0.0,0.0,0.0,0.0,0.0,0.0,0.0,0.0,0.0,0.0,0.0,0.0,0.0,0.0,0.0,0.0,0.0,0.0,0.0,0.0,0.0,0.0,0.0,0.0,0.0,0.0,0.0,0.0,0.0,0.0,0.0,0.0,0.0,0.0,0.0,0.0,0.0,0.0,0.0,0.0,-0.5432,-0.5696,-0.634,-0.7047,-0.7778,-0.7839,-0.7725,-0.746,0.0,0.0,0.0,0.0,0.0,0.0,0.0,0.0,0.0,0.0,0.0,0.0,0.0,0.0,0.0,0.0,0.0,0.0,0.0,0.0,0.0,0.0,0.0,0.0,0.0,0.0,0.0,0.0,0.0,0.0,0.0,0.0,0.0,0.0,0.0,0.0,0.0,0.0,0.0,0.0,0.0,0.0,0.0,0.0,0.0,0.0,0.0,0.0,0.0,0.0,0.0,0.0,0.0,0.0,0.0,0.0,0.0,0.0,0.0,0.0,0.0,0.0,0.0,0.0,0.0,0.0,0.0,0.0,0.0,0.0,0.0,0.0,0.0,0.0,0.0,0.0,0.0,0.0,0.0,0.0,0.0,0.0,0.0,0.0,0.0,0.0,0.0,0.0,0.0,0.0,0.0,0.0,0.0,0.0,0.0,0.0,0.0,0.0,0.0,0.0,0.0,0.0,0.0,0.0,-0.5539,-0.7017,-0.8382,-0.9221,-0.9359,-0.9374,-0.8999,-0.8125,0.0,0.0,0.0,0.0,0.0,0.0,0.0,0.0,0.0,0.0,0.0,0.0,0.0,0.0,0.0,0.0,0.0,0.0,0.0,0.0,0.0,0.0,0.0,0.0,0.0,0.0,0.0,0.0,0.0,0.0,0.0,0.0,0.0,0.0,0.0,0.0,0.0,0.0,0.0,0.0,0.0,0.0,0.0,0.0,0.0,0.0,0.0,0.0,0.0,0.0,0.0,0.0,0.0,0.0,0.0,0.0,0.0,0.0,0.0,0.0,0.0,0.0,0.0,0.0,0.0,0.0,0.0,0.0,0.0,0.0,0.0,0.0,0.0,0.0,0.0,0.0,0.0,0.0,0.0,0.0,0.0,0.0,0.0,0.0,0.0,0.0,0.0,0.0,0.0,0.0,0.0,0.0,0.0,0.0,0.0,0.0,0.0,0.0,0.0,0.0,0.0,0.0,0.0,-0.5917,-0.6425,-0.7835,-0.8596,-0.9109,-0.9402,-0.9431,-0.9224,-0.8766,-0.8486,0.0,0.0,0.0,0.0,0.0,0.0,0.0,0.0,0.0,0.0,0.0,0.0,0.0,0.0,0.0,0.0,0.0,0.0,0.0,0.0,0.0,0.0,0.0,0.0,0.0,0.0,0.0,0.0,0.0,0.0,0.0,0.0,0.0,0.0,0.0,0.0,0.0,0.0,0.0,0.0,0.0,0.0,0.0,0.0,0.0,0.0,0.0,0.0,0.0,0.0,0.0,0.0,0.0,0.0,0.0,0.0,0.0,0.0,0.0,0.0,0.0,0.0,0.0,0.0,0.0,0.0,0.0,0.0,0.0,0.0,0.0,0.0,0.0,0.0,0.0,0.0,0.0,0.0,0.0,0.0,0.0,0.0,0.0,0.0,0.0,0.0,0.0,0.0,0.0,0.0,0.0,0.0,0.0,0.0,0.0,0.0,0.0,0.0,0.0,0.0,0.0,0.0,-0.7097,-0.7594,-0.8321,-0.8509,-0.8722,-0.9076,-0.9157,-0.917,-0.9118,-0.9164,0.0,0.0,0.0,0.0,0.0,0.0,0.0,0.0,0.0,0.0,0.0,0.0,0.0,0.0,0.0,0.0,0.0,0.0,0.0,0.0,0.0,0.0,0.0,0.0,0.0,0.0,0.0,0.0,0.0,0.0,0.0,0.0,0.0,0.0,0.0,0.0,0.0,0.0,0.0,0.0,0.0,0.0,0.0,0.0,0.0,0.0,0.0,0.0,0.0,0.0,0.0,0.0,0.0,0.0,0.0,0.0,0.0,0.0,0.0,0.0,0.0,0.0,0.0,0.0,0.0,0.0,0.0,0.0,0.0,0.0,0.0,0.0,0.0,0.0,0.0,0.0,0.0,0.0,0.0,0.0,0.0,0.0,0.0,0.0,0.0,0.0,0.0,0.0,0.0,0.0,0.0,0.0,0.0,0.0,0.0,0.0,0.0,0.0,0.0,0.0,0.0,0.0,-0.801,-0.8937,-0.8454,-0.8846,-0.9056,-0.8844,-0.9058,-0.9098,-0.8838,-0.9064,0.0,0.0,0.0,0.0,0.0,0.0,0.0,0.0,0.0,0.0,0.0,0.0,0.0,0.0,0.0,0.0,0.0,0.0,0.0,0.0,0.0,0.0,0.0,0.0,0.0,0.0,0.0,0.0,0.0,0.0,0.0,0.0,0.0,0.0,0.0,0.0,0.0,0.0,0.0,0.0,0.0,0.0,0.0,0.0,0.0,0.0,0.0,0.0,0.0,0.0,0.0,0.0,0.0,0.0,0.0,0.0,0.0,0.0,0.0,0.0,0.0,0.0,0.0,0.0,0.0,0.0,0.0,0.0,0.0,0.0,0.0,0.0,0.0,0.0,0.0,0.0,0.0,0.0,0.0,0.0,0.0,0.0,0.0,0.0,0.0,0.0,0.0,0.0,0.0,0.0,0.0,0.0,0.0,0.0,0.0,0.0,0.0,0.0,0.0,0.0,0.0,0.0,-0.7927,-0.8544,-0.9141,-0.92,-0.9091,-0.8818,-0.8898,-0.8911,-0.8798,0.0,0.0,0.0,0.0,0.0,0.0,0.0,0.0,0.0,0.0,0.0,0.0,0.0,0.0,0.0,0.0,0.0,0.0,0.0,0.0,0.0,0.0,0.0,0.0,0.0,0.0,0.0,0.0,0.0,0.0,0.0,0.0,0.0,0.0,0.0,0.0,0.0,0.0,0.0,0.0,0.0,0.0,0.0,0.0,0.0,0.0,0.0,0.0,0.0,0.0,0.0,0.0,0.0,0.0,0.0,0.0,0.0,0.0,0.0,0.0,0.0,0.0,0.0,0.0,0.0,0.0,0.0,0.0,0.0,0.0,0.0,0.0,0.0,0.0,0.0,0.0,0.0,0.0,0.0,0.0,0.0,0.0,0.0,0.0,0.0,0.0,0.0,0.0,0.0,0.0,0.0,0.0,0.0,0.0,0.0,0.0,0.0,0.0,0.0,0.0,0.0,0.0,-0.7844,-0.843,-0.8992,-0.9636,-0.9405,-0.9091,-0.8818,-0.8791,-0.8791,-0.8791,0.0,0.0,0.0,0.0,0.0,0.0,0.0,0.0,0.0,0.0,0.0,0.0,0.0,0.0,0.0,0.0,0.0,0.0,0.0,0.0,0.0,0.0,0.0,0.0,0.0,0.0,0.0,0.0,0.0,0.0,0.0,0.0,0.0,0.0,0.0,0.0,0.0,0.0,0.0,0.0,0.0,0.0,0.0,0.0,0.0,0.0,0.0,0.0,0.0,0.0,0.0,0.0,0.0,0.0,0.0,0.0,0.0,0.0,0.0,0.0,0.0,0.0,0.0,0.0,0.0,0.0,0.0,0.0,0.0,0.0,0.0,0.0,0.0,0.0,0.0,0.0,0.0,0.0,0.0,0.0,0.0,0.0,0.0,0.0,0.0,0.0,0.0,0.0,0.0,0.0,0.0,0.0,0.0,0.0,0.0,0.0,0.0,0.0,0.0,0.0,0.0,0.0,-0.8027,-0.9741,-1.0655,-0.9794,-0.9405,-0.9091,-0.8818,-0.8791,-0.8791,0.0,0.0,0.0,0.0,0.0,0.0,0.0,0.0,0.0,0.0,0.0,0.0,0.0,0.0,0.0,0.0,0.0,0.0,0.0,0.0,0.0,0.0,0.0,0.0,0.0,0.0,0.0,0.0,0.0,0.0,0.0,0.0,0.0,0.0,0.0,0.0,0.0,0.0,0.0,0.0,0.0,0.0,0.0,0.0,0.0,0.0,0.0,0.0,0.0,0.0,0.0,0.0,0.0,0.0,0.0,0.0,0.0,0.0,0.0,0.0,0.0,0.0,0.0,0.0,0.0,0.0,0.0,0.0,0.0,0.0,0.0,0.0,0.0,0.0,0.0,0.0,0.0,0.0,0.0,0.0,0.0,0.0,0.0,0.0,0.0,0.0,0.0,0.0,0.0,0.0,0.0,0.0,0.0,0.0,0.0,0.0,0.0,0.0,0.0,0.0,0.0,0.0,0.0,-0.7909,-0.8927,-0.9624,-0.9694,-0.9405,-0.9091,-0.8818,-0.8791,-0.8791,-0.8791,0.0,0.0,0.0,0.0,0.0,0.0,0.0,0.0,0.0,0.0,0.0,0.0,0.0,0.0,0.0,0.0,0.0,0.0,0.0,0.0,0.0,0.0,0.0,0.0,0.0,0.0,0.0,0.0,0.0,0.0,0.0,0.0,0.0,0.0,0.0,0.0,0.0,0.0,0.0,0.0,0.0,0.0,0.0,0.0,0.0,0.0,0.0,0.0,0.0,0.0,0.0,0.0,0.0,0.0,0.0,0.0,0.0,0.0,0.0,0.0,0.0,0.0,0.0,0.0,0.0,0.0,0.0,0.0,0.0,0.0,0.0,0.0,0.0,0.0,0.0,0.0,0.0,0.0,0.0,0.0,0.0,0.0,0.0,0.0,0.0,0.0,0.0,0.0,0.0,0.0,0.0,0.0,0.0,0.0,0.0,0.0,0.0,0.0,0.0,0.0,0.0,0.0,-0.8388,-0.9176,-0.9662,-0.9702,-0.9405,-0.9091,-0.8818,-0.8791,-0.8791,-0.8791,0.0,0.0,0.0,0.0,0.0,0.0,0.0,0.0,0.0,0.0,0.0,0.0,0.0,0.0,0.0,0.0,0.0,0.0,0.0,0.0,0.0,0.0,0.0,0.0,0.0,0.0,0.0,0.0,0.0,0.0,0.0,0.0,0.0,0.0,0.0,0.0,0.0,0.0,0.0,0.0,0.0,0.0,0.0,0.0,0.0,0.0,0.0,0.0,0.0,0.0,0.0,0.0,0.0,0.0,0.0,0.0,0.0,0.0,0.0,0.0,0.0,0.0,0.0,0.0,0.0,0.0,0.0,0.0,0.0,0.0,0.0,0.0,0.0,0.0,0.0,0.0,0.0,0.0,0.0,0.0,0.0,0.0,0.0,0.0,0.0,0.0,0.0,0.0,0.0,0.0,0.0,0.0,0.0,0.0,0.0,0.0,0.0,0.0,0.0,0.0,0.0,0.0,-0.9191,-1.0063,-1.0365,-0.9761,-0.9405,-0.9091,-0.8818,-0.8791,-0.8791,-0.8791,0.0,0.0,0.0,0.0,0.0,0.0,0.0,0.0,0.0,0.0,0.0,0.0,0.0,0.0,0.0,0.0,0.0,0.0,0.0,0.0,0.0,0.0,0.0,0.0,0.0,0.0,0.0,0.0,0.0,0.0,0.0,0.0,0.0,0.0,0.0,0.0,0.0,0.0,0.0,0.0,0.0,0.0,0.0,0.0,0.0,0.0,0.0,0.0,0.0,0.0,0.0,0.0,0.0,0.0,0.0,0.0,0.0,0.0,0.0,0.0,-0.5535,-0.5286,0.0,0.0,0.0,0.0,0.0,0.0,0.0,0.0,0.0,0.0,0.0,0.0,0.0,0.0,0.0,0.0,0.0,0.0,0.0,0.0,0.0,0.0,0.0,0.0,0.0,0.0,0.0,0.0,0.0,0.0,0.0,0.0,0.0,0.0,0.0,0.0,0.0,0.0,0.0,0.0,-0.9198,-1.0063,-1.0365,-0.9761,-0.9405,-0.9091,-0.8818,-0.8791,-0.8791,-0.8791,-0.8791,0.0,0.0,0.0,0.0,0.0,0.0,0.0,0.0,0.0,0.0,0.0,0.0,0.0,0.0,0.0,0.0,0.0,0.0,0.0,0.0,0.0,0.0,0.0,0.0,0.0,0.0,0.0,0.0,0.0,0.0,0.0,0.0,0.0,0.0,0.0,0.0,0.0,0.0,0.0,0.0,0.0,0.0,0.0,0.0,0.0,0.0,0.0,0.0,0.0,0.0,0.0,0.0,0.0,0.0,0.0,0.0,0.0,0.0,0.0,-0.5945,-0.578,0.0,0.0,0.0,0.0,0.0,0.0,0.0,0.0,0.0,0.0,0.0,0.0,0.0,0.0,0.0,0.0,0.0,0.0,0.0,0.0,0.0,0.0,0.0,0.0,0.0,0.0,0.0,0.0,0.0,0.0,0.0,0.0,0.0,0.0,0.0,0.0,0.0,0.0,0.0,0.0,-0.9204,-1.0063,-1.0365,-0.9761,-0.9405,-0.9091,-0.8818,-0.8791,-0.8791,-0.8791,-0.8925,0.0,0.0,0.0,0.0,0.0,0.0,0.0,0.0,0.0,0.0,0.0,0.0,0.0,0.0,0.0,0.0,0.0,0.0,0.0,0.0,0.0,0.0,0.0,0.0,0.0,0.0,0.0,0.0,0.0,0.0,0.0,0.0,0.0,0.0,0.0,0.0,0.0,0.0,0.0,0.0,0.0,0.0,0.0,0.0,0.0,0.0,0.0,0.0,0.0,0.0,0.0,0.0,0.0,-0.7144,-0.7083,-0.6938,-0.6813,-0.6776,-0.6756,-0.6363,-0.6312,-0.6515,-0.6258,0.0,0.0,0.0,0.0,0.0,0.0,0.0,0.0,0.0,0.0,0.0,0.0,0.0,0.0,0.0,0.0,0.0,0.0,0.0,0.0,0.0,0.0,-0.658,-0.646,-0.6698,-0.6788,-0.6293,0.0,0.0,0.0,0.0,0.0,0.0,0.0,0.0,0.0,0.0,0.0,-0.902,-0.9741,-1.0007,-0.9527,-0.9166,-0.892,-0.8805,-0.8791,-0.8791,-0.8791,-0.9051,-0.9224,0.0,0.0,0.0,0.0,0.0,0.0,0.0,0.0,0.0,0.0,0.0,0.0,0.0,0.0,0.0,0.0,0.0,0.0,0.0,0.0,0.0,0.0,0.0,0.0,0.0,0.0,0.0,0.0,0.0,0.0,0.0,0.0,-0.5059,-0.626,0.0,0.0,0.0,0.0,0.0,0.0,0.0,0.0,0.0,0.0,0.0,0.0,0.0,-0.7068,-0.7068,-0.7265,-0.7275,-0.7098,-0.7278,-0.7261,-0.7068,-0.7048,-0.7038,-0.7034,-0.6977,0.0,-0.6678,-0.6752,0.0,0.0,0.0,0.0,0.0,0.0,0.0,0.0,0.0,0.0,0.0,0.0,0.0,0.0,0.0,0.0,0.0,0.0,0.0,0.0,0.0,0.0,-0.7026,-0.7009,-0.7024,-0.7048,-0.6967,-0.6705,-0.6491,-0.6566,-0.6413,-0.6182,0.0,0.0,0.0,0.0,0.0,0.0,-0.8289,-0.844,-0.8528,-0.8572,-0.8274,-0.8269,-0.8765,-0.8791,-0.8791,-0.8791,-0.9051,-0.9324,-0.9627,-0.9674,0.0,0.0,0.0,0.0,0.0,0.0,0.0,0.0,0.0,0.0,0.0,0.0,0.0,0.0,0.0,0.0,0.0,0.0,0.0,0.0,0.0,0.0,0.0,0.0,0.0,0.0,0.0,0.0,0.0,-0.434,-0.5387,-0.5912,-0.6474,-0.6817,0.0,0.0,0.0,0.0,0.0,0.0,0.0,0.0,0.0,-0.7265,-0.7408,-0.7496,-0.7496,-0.7584,-0.7584,-0.7492,-0.7506,-0.7417,-0.7272,-0.7272,-0.7198,-0.7102,-0.7212,-0.7149,-0.6931,-0.6999,-0.7021,-0.6984,0.0,0.0,0.0,0.0,-0.7042,-0.7124,-0.7265,-0.7326,-0.7299,-0.7132,0.0,0.0,0.0,0.0,0.0,0.0,0.0,-0.6719,-0.6786,-0.6904,-0.6997,-0.7078,-0.7185,-0.7272,-0.7272,-0.7137,-0.6971,-0.6848,-0.679,-0.6627,-0.6227,-0.6178,0.0,0.0,0.0,-0.7486,-0.7468,-0.8025,-0.8257,-0.7825,-0.8021,-0.8174,-0.818,-0.856,-0.8791,-0.8791,-0.9225,-0.9546,-0.9694,-1.003,-1.0169,0.0,0.0,0.0,0.0,0.0,0.0,0.0,0.0,0.0,0.0,0.0,0.0,0.0,0.0,0.0,0.0,0.0,0.0,0.0,0.0,0.0,0.0,0.0,0.0,0.0,0.0,0.0,0.0,-0.5074,-0.5623,-0.5926,-0.6719,-0.7178,0.0,0.0,0.0,0.0,0.0,0.0,-0.7286,-0.7421,-0.7525,-0.7543,-0.7753,-0.7844,-0.7844,-0.7807,-0.7794,-0.7753,-0.7611,-0.7461,-0.7312,-0.7312,-0.7248,-0.7102,-0.7261,-0.7272,-0.7181,-0.7219,-0.7302,-0.7386,-0.7266,-0.7235,-0.7252,-0.7428,-0.7508,-0.7546,-0.778,-0.782,-0.778,-0.76,-0.7515,-0.7389,-0.7031,0.0,0.0,0.0,0.0,-0.682,-0.6931,-0.6962,-0.6967,-0.7071,-0.7205,-0.7312,-0.7312,-0.7312,-0.7258,-0.7056,-0.7073,-0.6968,-0.6535,-0.642,0.0,-0.6013,-0.6626,-0.6999,-0.6656,-0.7333,-0.7622,-0.7076,-0.7474,-0.7703,-0.7512,-0.7952,-0.8347,-0.8624,-0.9138,-0.9538,-0.9793,-1.0318,-1.051,-1.0325,0.0,0.0,0.0,0.0,0.0,0.0,0.0,0.0,0.0,0.0,0.0,0.0,0.0,0.0,0.0,0.0,0.0,0.0,0.0,0.0,0.0,0.0,0.0,0.0,0.0,0.0,0.0,0.0,0.0,-0.7356,-0.755,0.0,0.0,0.0,0.0,-0.7372,-0.7492,-0.7634,-0.7746,-0.7784,-0.7831,-0.7976,-0.7996,-0.8003,-0.8003,-0.7858,-0.7743,-0.7607,-0.7478,-0.7302,-0.7109,-0.7109,-0.7102,-0.7095,-0.7105,-0.7208,-0.7393,-0.7516,-0.7495,-0.741,-0.7522,-0.7577,-0.7594,-0.7736,-0.7787,-0.7811,-0.7949,-0.7908,-0.7807,-0.7939,-0.7793,-0.7584,-0.756,-0.7327,0.0,0.0,-0.7068,-0.7075,-0.7085,-0.7085,-0.7088,-0.7095,-0.7102,-0.7109,-0.7109,-0.7109,-0.7168,-0.7345,-0.7238,-0.7045,-0.6901,0.0,-0.6624,-0.6484,-0.6242,-0.6025,-0.5882,-0.58,-0.5876,-0.6215,-0.6184,-0.6339,-0.6895,-0.68,-0.7144,-0.8159,-0.8504,-0.9079,-1.0035,-1.041,-1.0713,-1.0942,-1.0949,0.0,0.0,0.0,0.0,0.0,0.0,0.0,0.0,0.0,0.0,0.0,0.0,0.0,0.0,0.0,0.0,0.0,0.0,0.0,0.0,0.0,0.0,0.0,0.0,0.0,0.0,0.0,0.0,-0.6253,-0.7146,0.0,-0.7533,-0.76,-0.7655,-0.7655,-0.7773,-0.7878,-0.7932,-0.7935,-0.7959,-0.7988,-0.7988,-0.7988,-0.7988,-0.7773,-0.7648,-0.7597,-0.7343,-0.7171,-0.7095,-0.7095,-0.7095,-0.7095,-0.7095,-0.7151,-0.7212,-0.7387,-0.7502,-0.7533,-0.7678,-0.7736,-0.7743,-0.779,-0.7811,-0.7804,-0.7746,-0.7723,-0.7699,-0.782,-0.7797,-0.7719,-0.7628,-0.7455,-0.7268,-0.7148,-0.7095,-0.7095,-0.7095,-0.7095,-0.7071,-0.698,-0.696,-0.696,-0.696,-0.696,-0.7026,-0.7171,-0.7154,-0.7051,-0.6931,-0.6782,-0.6647,-0.6515,-0.622,-0.5957,-0.582,-0.5677,-0.5572,-0.5493,-0.5872,-0.6179,-0.6305,-0.6692,-0.7083,-0.747,-0.8268,-0.889,-0.9245,-0.959,-0.9845,-1.0037,-0.9493,-0.9431,0.0,0.0,0.0,0.0,0.0,0.0,0.0,0.0,0.0,0.0,0.0,0.0,0.0,0.0,0.0,0.0,0.0,0.0,0.0,0.0,0.0,0.0,0.0,0.0,0.0,-0.4083,-0.5005,-0.5005,-0.6284,-0.7146,-0.7009,-0.7535,-0.7864,-0.7864,-0.7956,-0.7988,-0.7988,-0.7988,-0.7988,-0.7988,-0.7988,-0.7988,-0.7988,-0.7722,-0.76,-0.7597,-0.7263,-0.7095,-0.7095,-0.7095,-0.7095,-0.7095,-0.7095,-0.6874,-0.6567,-0.7091,-0.6891,-0.6343,-0.735,-0.774,-0.774,-0.774,-0.774,-0.7726,-0.7631,-0.7335,-0.7015,-0.7103,-0.684,-0.6511,-0.6407,-0.6293,-0.6244,-0.652,-0.6551,-0.6605,-0.7007,-0.7095,-0.7061,-0.6941,-0.6908,-0.6894,-0.684,-0.683,-0.6857,-0.6951,-0.7028,-0.7065,-0.6974,-0.6813,-0.6664,-0.6586,-0.6251,-0.5957,-0.582,-0.5677,-0.5491,-0.5237,-0.5585,-0.579,-0.5713,-0.6101,-0.6495,-0.6846,-0.7573,-0.8173,-0.8572,-0.8762,-0.8986,-0.9262,-0.8763,-0.881,-0.9432,0.0,0.0,0.0,0.0,0.0,0.0,0.0,0.0,0.0,0.0,0.0,0.0,0.0,0.0,0.0,0.0,0.0,0.0,0.0,0.0,0.0,0.0,0.0,-0.1763,-0.2975,-0.3743,-0.3743,-0.5043,-0.5884,-0.5752,-0.7082,-0.7939,-0.7939,-0.7963,-0.7988,-0.7988,-0.7988,-0.7988,-0.7939,-0.7939,-0.7914,-0.7889,-0.7606,-0.7486,-0.7476,-0.7156,-0.6988,-0.6985,-0.6985,-0.6985,-0.6985,-0.6985,-0.6359,-0.5425,-0.6536,-0.5642,-0.3853,-0.6513,-0.7523,-0.7473,-0.7473,-0.747,-0.7466,-0.7466,-0.6705,-0.5732,-0.5732,-0.4952,-0.3984,-0.3984,-0.3905,-0.4049,-0.5201,-0.5443,-0.5603,-0.6694,-0.6985,-0.6948,-0.6827,-0.679,-0.675,-0.6621,-0.6588,-0.6612,-0.6636,-0.6865,-0.706,-0.7082,-0.6864,-0.6695,-0.6695,-0.6296,0.0,-0.5827,-0.5681,-0.5552,-0.5419,-0.523,-0.5106,-0.5106,-0.5001,-0.5335,-0.6313,-0.6409,-0.6945,-0.8114,-0.8042,-0.8211,-0.871,-0.8937,-0.912,-0.9262,0.0,0.0,0.0,0.0,0.0,0.0,0.0,0.0,0.0,0.0,0.0,0.0,0.0,0.0,0.0,0.0,0.0,0.0,0.0,0.0,0.0,0.0,-0.0122,-0.0487,-0.1679,-0.2496,-0.2496,-0.3706,-0.4533,-0.451,-0.5732,-0.6556,-0.6556,-0.7459,-0.7988,-0.7988,-0.7988,-0.7562,-0.6581,-0.6556,-0.6077,-0.512,-0.493,-0.4836,-0.4838,-0.4643,-0.4572,-0.4572,-0.4572,-0.4572,-0.4572,-0.4572,-0.4394,-0.4128,-0.4439,-0.4192,-0.3781,-0.5471,-0.5619,-0.485,-0.485,-0.4782,-0.4698,-0.4698,-0.4539,-0.4339,-0.4339,-0.4133,-0.3855,-0.3855,-0.3753,-0.3712,-0.4053,-0.4125,-0.4172,-0.4483,-0.4572,-0.4509,-0.4327,-0.433,-0.4348,-0.431,-0.4308,-0.4555,-0.5377,-0.5595,-0.5897,-0.6673,-0.6661,-0.6556,-0.6556,-0.6247,-0.5995,-0.5954,-0.5745,-0.5593,-0.5549,-0.5406,-0.5314,-0.5314,-0.5382,-0.5524,-0.5794,-0.6511,-0.7093,-0.7524,-0.7516,-0.7384,-0.7133,-0.781,-0.8224,0.0,0.0,0.0,0.0,0.0,0.0,0.0,0.0,0.0,0.0,0.0,0.0,0.0,0.0,0.0,0.0,0.0,0.0,0.0,0.0,0.0,0.0,0.0,0.0,0.0,-0.0676,-0.1159,-0.1159,-0.2339,-0.3165,-0.3165,-0.437,-0.5172,-0.5172,-0.5874,-0.6326,-0.6326,-0.6326,-0.5974,-0.5197,-0.5172,-0.4795,-0.4016,-0.3872,-0.3791,-0.3796,-0.3673,-0.3598,-0.3595,-0.3595,-0.36,-0.3592,-0.3592,-0.3303,-0.2881,-0.3392,-0.3014,-0.226,0.0,0.0,0.0,0.0,-0.3675,-0.3592,-0.3592,-0.3331,-0.2957,-0.2957,-0.2617,-0.2209,-0.2209,-0.2145,-0.2191,-0.2704,-0.2836,-0.297,-0.3458,-0.3592,-0.3541,-0.334,-0.3334,-0.3348,-0.3282,-0.3284,-0.3471,-0.4141,-0.4258,0.0,-0.5085,-0.5912,-0.6491,-0.6491,-0.6294,-0.6101,-0.6018,-0.5863,-0.5749,-0.5684,-0.5617,-0.5562,-0.5562,-0.5644,0.0,0.0,0.0,-0.6709,-0.6877,-0.698,0.0,0.0,0.0,0.0,0.0,0.0,0.0,0.0,-0.9923,-1.0497,0.0,0.0,0.0,0.0,0.0,0.0,0.0,0.0,0.0,0.0,0.0,0.0,0.0,0.0,0.0,0.0,0.0,0.0,0.0,0.0,0.0,0.0,-0.1058,-0.1762,-0.1762,-0.299,-0.3765,-0.3765,-0.3915,-0.3991,-0.3991,-0.3991,0.0,0.0,0.0,-0.369,-0.354,-0.3436,-0.3381,-0.3372,-0.3241,-0.3205,-0.3188,-0.3188,-0.3202,-0.3192,-0.3192,-0.2584,-0.1685,-0.2756,-0.1928,-0.0202,-0.2348,-0.3193,-0.3193,-0.3193,-0.3193,-0.3193,-0.3193,0.0,0.0,-0.1589,-0.0874,0.0,0.0,0.0,-0.0225,-0.1299,-0.1589,-0.1835,-0.2925,-0.3193,-0.3154,-0.296,-0.2924,-0.2889,-0.2769,-0.2746,-0.279,-0.2916,-0.2932,-0.2972,-0.3077,-0.4782,-0.6124,-0.6124,-0.6012,-0.5918,-0.5864,-0.5831,-0.5828,-0.5822,-0.5813,0.0,-0.58,-0.5817,-0.5833,-0.5854,-0.6008,-0.6174,-0.6352,-0.6641,-0.6841,-0.6955,-0.7097,-0.7313,-0.7624,-0.7624,-0.7695,-0.7852,-0.9279,-1.0207,0.0,0.0,0.0,0.0,0.0,0.0,0.0,0.0,0.0,0.0,0.0,0.0,0.0,0.0,0.0,0.0,0.0,0.0,0.0,0.0,0.0,0.0,-0.0227,-0.0379,-0.0379,-0.1611,-0.2388,-0.2388,-0.3391,-0.3991,-0.3991,-0.3991,-0.3515,-0.2414,-0.2388,-0.1862,-0.0782,-0.0754,-0.0747,-0.0735,-0.0708,0.0,-0.0686,-0.0686,-0.0685,-0.0706,-0.0706,-0.056,-0.0368,-0.0597,-0.0433,-0.0045,-0.0516,-0.0695,-0.0695,-0.0695,-0.0695,-0.0695,-0.0695,-0.0539,-0.0359,-0.0359,-0.018,0.0,0.0,0.0,0.0,-0.0292,-0.0359,-0.0404,-0.0628,-0.0695,-0.0692,-0.0655,-0.063,-0.0626,-0.0609,-0.0608,-0.086,-0.173,-0.188,-0.2157,-0.2952,-0.347,-0.376,-0.376,-0.3746,-0.4014,-0.4851,-0.486,-0.5091,-0.5875,-0.5856,-0.58,-0.58,-0.5897,-0.604,-0.6201,-0.6539,-0.6749,-0.6779,-0.7085,-0.7277,-0.7308,-0.7434,-0.7597,-0.777,-0.777,-0.7824,-0.7966,-0.8158,-0.8394,0.0,0.0,0.0,0.0,0.0,0.0,0.0,0.0,0.0,0.0,0.0,0.0,0.0,0.0,0.0,0.0,0.0,0.0,0.0,0.0,0.0,0.0,0.0,0.0,0.0,-0.0605,-0.1008,-0.1008,-0.1611,-0.1988,-0.1988,-0.1988,-0.1686,-0.1008,-0.1008,-0.0681,0.0,0.0,0.0,0.0,0.0,0.0,0.0,0.0,0.0,0.0,0.0,0.0,0.0,0.0,0.0,0.0,0.0,0.0,0.0,0.0,0.0,0.0,0.0,0.0,0.0,0.0,0.0,0.0,0.0,0.0,0.0,0.0,0.0,0.0,0.0,0.0,0.0,0.0,0.0,0.0,0.0,0.0,-0.0152,-0.0685,-0.0797,-0.0955,-0.1454,-0.1555,-0.1901,-0.2949,-0.3107,-0.3299,-0.3835,-0.3833,-0.4196,-0.5236,-0.5294,-0.5488,-0.6091,-0.6278,-0.643,-0.6586,-0.6786,-0.6938,-0.6987,-0.7154,-0.7329,-0.7505,-0.756,-0.7706,-0.7902,-0.7902,-0.7939,-0.7988,-0.7935,-0.7942,0.0,0.0,0.0,0.0,0.0,0.0,0.0,0.0,0.0,0.0,0.0,0.0,0.0,0.0,0.0,0.0,0.0,0.0,0.0,0.0,0.0,0.0,0.0,0.0,0.0,0.0,0.0,0.0,0.0,0.0,0.0,0.0,0.0,0.0,0.0,0.0,0.0,0.0,0.0,0.0,0.0,0.0,0.0,0.0,0.0,0.0,0.0,0.0,0.0,0.0,0.0,0.0,0.0,0.0,0.0,0.0,0.0,0.0,0.0,0.0,0.0,0.0,0.0,0.0,0.0,0.0,0.0,0.0,0.0,0.0,0.0,0.0,0.0,0.0,0.0,0.0,0.0,0.0,0.0,0.0,0.0,0.0,0.0,0.0,-0.0564,-0.2244,-0.2503,-0.2567,-0.2791,-0.2804,-0.3207,-0.4277,-0.4395,-0.4887,-0.6079,-0.6531,-0.6776,-0.6901,-0.6935,-0.6977,-0.7092,-0.7152,-0.7323,-0.7594,-0.7655,-0.7776,-0.7988,-0.7988,-0.7988,-0.7988,-0.7988,-0.7988,0.0,0.0,0.0,0.0,0.0,0.0,0.0,0.0,0.0,0.0,0.0,0.0,0.0,0.0,0.0,0.0,0.0,0.0,0.0,0.0,0.0,0.0,0.0,0.0,0.0,0.0,0.0,0.0,0.0,0.0,0.0,0.0,0.0,0.0,0.0,0.0,0.0,0.0,0.0,0.0,0.0,0.0,0.0,0.0,0.0,0.0,0.0,0.0,0.0,0.0,0.0,0.0,0.0,0.0,0.0,0.0,0.0,0.0,0.0,0.0,0.0,0.0,0.0,0.0,0.0,0.0,0.0,0.0,0.0,0.0,0.0,0.0,0.0,0.0,0.0,0.0,0.0,0.0,0.0,0.0,0.0,0.0,0.0,0.0,-0.0089,-0.0304,-0.034,-0.0691,-0.165,-0.177,-0.2161,-0.3179,-0.3283,-0.3765,-0.4986,-0.6177,-0.6891,-0.6904,-0.7004,-0.7082,-0.7095,-0.7381,-0.7563,-0.76,-0.7831,-0.7983,-0.7988,-0.7988,-0.7988,-0.7988,-0.7988,-0.7988,0.0,0.0,0.0,0.0,0.0,0.0,0.0,0.0,0.0,0.0,0.0,0.0,0.0,0.0,0.0,0.0,0.0,0.0,0.0,0.0,0.0,0.0,0.0,0.0,0.0,0.0,0.0,0.0,0.0,0.0,0.0,0.0,0.0,0.0,0.0,0.0,0.0,0.0,0.0,0.0,0.0,0.0,0.0,0.0,0.0,0.0,0.0,0.0,0.0,0.0,0.0,0.0,0.0,0.0,0.0,0.0,0.0,0.0,0.0,0.0,0.0,0.0,0.0,0.0,0.0,0.0,0.0,0.0,0.0,0.0,0.0,0.0,0.0,0.0,0.0,0.0,0.0,0.0,0.0,0.0,0.0,0.0,0.0,0.0,0.0,0.0,0.0,-0.0172,-0.0621,-0.0678,-0.1071,-0.2116,-0.2818,-0.3416,-0.3929,-0.4593,-0.5287,-0.5974,-0.6159,-0.6548,-0.7252,-0.7482,-0.7638,-0.7723,-0.782,-0.7925,-0.7988,-0.7988,-0.7988,-0.7988,-0.7988,-0.7988,0.0,0.0,0.0,0.0,0.0,0.0,0.0,0.0,0.0,0.0,0.0,0.0,0.0,0.0,0.0126,0.0479,0.0555,0.0681,0.1058,0.1109,0.1109,0.1109,0.1109,0.1109,0.1109,0.0429,0.0,0.0,0.0,0.0,0.0,0.0,0.0,0.0,0.0,0.0177,0.0555,0.0177,0.0379,0.1109,0.0731,0.0756,0.1109,0.1109,0.1109,0.1109,0.1109,0.1109,0.1109,0.1109,0.11,0.1111,0.1111,0.1101,0.1112,0.1112,0.0625,0.0,0.0,0.0,0.0,0.0,0.0,0.0,0.0,0.0,0.0,0.0,0.0,0.0,0.0,0.0,0.0,0.0,0.0,0.0,0.0,0.0,0.0,0.0,0.0,0.0,0.0,0.0,0.0,0.0,0.0,0.0,0.0,0.0,-0.03,-0.1069,-0.2187,-0.2884,-0.2884,-0.3315,-0.3984,-0.484,-0.5004,-0.5434,-0.6314,-0.6488,-0.6598,-0.6685,-0.6745,-0.6809,-0.6902,-0.6902,-0.6902,-0.6902,-0.6902,-0.6902,0.0,0.0,0.0,0.0,0.0,0.0,0.0,0.0,0.0,0.0,0.0,0.0,0.0,0.0,0.0429,0.1737,0.1938,0.2388,0.369,0.389,0.389,0.389,0.389,0.389,0.389,0.1536,0.0,0.0,0.0,0.0,0.0,0.0,0.0,0.0,0.0,0.0631,0.1938,0.0656,0.131,0.3865,0.2564,0.2614,0.389,0.389,0.389,0.389,0.389,0.389,0.389,0.389,0.3889,0.3887,0.3887,0.3885,0.3884,0.3884,0.2232,0.0,0.0,0.0,0.0,0.0,0.0,0.0,0.0,0.0,0.0,0.0,0.0,0.0,0.0,0.0,0.0,0.0,0.0,0.0,0.0,0.0,0.0,0.0,0.0,0.0,0.0,0.0,0.0,0.0,0.0,0.0,0.0,0.0,-0.0022,-0.0045,-0.1119,-0.1855,-0.1855,-0.2934,-0.361,-0.3657,-0.3657,-0.3674,-0.3722,-0.3842,-0.3907,-0.391,-0.4051,-0.4112,-0.4116,-0.4116,-0.4116,-0.4116,-0.4116,-0.4116,0.0,0.0,0.0202,0.1109,0.1335,0.1561,0.2438,0.2665,0.2665,0.2665,0.2665,0.2665,0.2665,0.2665,0.279,0.3265,0.3316,0.349,0.3941,0.4085,0.4099,0.4022,0.4208,0.4257,0.4026,0.319,0.2665,0.2665,0.2665,0.2665,0.2665,0.2665,0.2665,0.2665,0.2665,0.2864,0.3316,0.2889,0.3115,0.3991,0.3541,0.3565,0.3991,0.3991,0.3991,0.3991,0.3991,0.3991,0.3991,0.3991,0.3991,0.3991,0.3991,0.3991,0.3991,0.3991,0.3438,0.2663,0.2663,0.2642,0.2664,0.2664,0.2665,0.2495,0.1594,0.1333,0.1143,0.0262,0.0,0.0,0.0,0.0,0.0,0.0,0.0,0.0,0.0,0.0,0.0,0.0,0.0,0.0,0.0,0.0,0.0,0.0,0.0,0.0,0.0,0.0,0.0,0.0,-0.0363,-0.0595,-0.0595,-0.0978,-0.1553,-0.2353,-0.2491,-0.2905,-0.3702,-0.3869,-0.393,-0.393,-0.3979,-0.3991,-0.3991,-0.3991,-0.3991,-0.3991,-0.3991,-0.3991,0.1429,0.1422,0.1637,0.2489,0.2715,0.2941,0.3815,0.3991,0.3991,0.3991,0.3991,0.3991,0.3991,0.3991,0.4175,0.4733,0.4815,0.5004,0.5521,0.5688,0.5705,0.5611,0.5801,0.5858,0.5641,0.5604,0.5182,0.4159,0.4082,0.4082,0.4082,0.4031,0.3991,0.3991,0.3991,0.4243,0.4718,0.4243,0.4243,0.4718,0.5195,0.542,0.542,0.542,0.542,0.542,0.542,0.542,0.542,0.542,0.542,0.542,0.542,0.542,0.542,0.542,0.542,0.5295,0.4343,0.4012,0.3998,0.3998,0.3988,0.3828,0.2983,0.2717,0.2523,0.1674,0.1432,0.1311,0.085,0.0705,0.0583,0.0122,0.0,0.0,0.0,0.0,0.0,0.0,0.0,0.0,0.0,0.0,0.0,0.0,0.0,0.0,0.0,0.0,0.0,0.0,0.0,0.0,0.0,0.0,-0.0337,-0.1107,-0.1249,-0.1632,-0.2422,-0.2524,-0.2564,-0.2564,-0.2564,-0.2564,-0.2564,-0.2564,-0.2564,-0.2564,-0.2564,-0.2564,0.4011,0.3987,0.4016,0.4091,0.4091,0.4116,0.4191,0.4216,0.4216,0.4216,0.4216,0.4216,0.4216,0.4219,0.4702,0.6172,0.64,0.691,0.8302,0.8515,0.8515,0.8509,0.8522,0.8526,0.8509,0.8522,0.7383,0.4638,0.4422,0.442,0.442,0.4291,0.4223,0.4223,0.4218,0.4818,0.6079,0.4845,0.4845,0.6129,0.7385,0.7988,0.7988,0.7988,0.7988,0.7988,0.7988,0.7988,0.7988,0.7988,0.7988,0.7988,0.7988,0.7988,0.7988,0.7988,0.7988,0.7637,0.5093,0.4216,0.4216,0.4216,0.4216,0.4191,0.4116,0.4091,0.4091,0.4016,0.3991,0.3715,0.244,0.2113,0.1762,0.0429,0.0101,0.0075,0.0025,0.0,0.0,0.0,0.0,0.0,0.0,0.0,0.0,0.0,0.0,0.0,0.0,0.0,0.0,0.0,0.0,0.0,0.0,0.0,0.0,0.0,0.0,0.0,0.0,0.0,0.0,0.0,0.0,0.0,0.0,0.0,0.0,0.0,0.0,0.0,0.4013,0.4001,0.4243,0.5247,0.55,0.5749,0.6753,0.698,0.698,0.698,0.698,0.698,0.698,0.7113,0.7321,0.7715,0.7885,0.8069,0.8449,0.8581,0.8611,0.8522,0.8682,0.8733,0.8532,0.8686,0.8456,0.7609,0.7451,0.7395,0.7395,0.7275,0.7207,0.7207,0.7058,0.7132,0.7487,0.7157,0.7157,0.7487,0.7839,0.7988,0.7988,0.7988,0.7988,0.7988,0.7988,0.7988,0.7988,0.7988,0.7988,0.7988,0.7988,0.7988,0.7988,0.7988,0.7988,0.7914,0.7207,0.698,0.698,0.698,0.698,0.6805,0.5802,0.55,0.5275,0.4293,0.3991,0.3915,0.359,0.349,0.314,0.1812,0.1486,0.1208,0.0226,0.0,0.0,0.0,0.0,0.0,0.0,0.0,0.0,0.0,0.0,0.0,0.0,0.0,0.0,0.0,0.0,0.0,0.0,0.0,0.0,0.0,0.0,0.0,0.0,0.0,0.0,0.0,0.0,0.0,0.0,0.0,0.0,0.0,0.0,0.0,0.576,0.5753,0.5949,0.6681,0.6883,0.7083,0.7839,0.7988,0.7988,0.7988,0.7988,0.7988,0.7988,0.8167,0.8338,0.8442,0.8587,0.8726,0.8886,0.895,0.8947,0.8822,0.8927,0.894,0.8706,0.8811,0.8875,0.8791,0.8669,0.8581,0.8581,0.8468,0.8389,0.8389,0.8218,0.8084,0.7988,0.7988,0.7988,0.7988,0.7988,0.7988,0.7988,0.7988,0.7988,0.7988,0.7988,0.7988,0.7988,0.7988,0.7988,0.7988,0.7988,0.7988,0.7988,0.7988,0.7988,0.7988,0.7988,0.7988,0.7988,0.7988,0.7988,0.7864,0.7107,0.6883,0.6731,0.5974,0.5747,0.5622,0.502,0.487,0.4545,0.319,0.2889,0.2514,0.1159,0.0882,0.0706,0.0126,0.0,0.0,0.0,0.0,0.0,0.0,0.0,0.0,0.0,0.0,0.0,0.0,0.0,0.0,0.0,0.0,0.0,0.0,0.0,0.0,0.0,0.0,0.0,0.0,0.0,0.0,0.0,0.0,0.0,0.0,0.0,0.0,0.7988,0.7988,0.7988,0.7988,0.7988,0.7988,0.7988,0.7988,0.7988,0.7988,0.7988,0.7988,0.7988,0.8167,0.8393,0.8662,0.8811,0.9014,0.934,0.941,0.9362,0.9226,0.9241,0.9155,0.8953,0.894,0.8929,0.8912,0.8787,0.874,0.874,0.8598,0.8529,0.8509,0.8389,0.8225,0.8047,0.8044,0.8033,0.7988,0.7988,0.7988,0.7988,0.7988,0.7988,0.7988,0.7988,0.7988,0.7988,0.7988,0.7988,0.7988,0.7988,0.7988,0.7988,0.7988,0.7988,0.7988,0.7988,0.7988,0.7988,0.7988,0.7988,0.7988,0.7988,0.7988,0.7988,0.7988,0.7988,0.7739,0.6556,0.6254,0.5927,0.4593,0.4268,0.3892,0.2564,0.2138,0.1661,0.0479,0.0126,0.0,0.0,0.0,0.0,0.0,0.0,0.0,0.0,0.0,0.0,0.0,0.0,0.0,0.0,0.0,0.0,0.0,0.0,0.0,0.0,0.0,0.0,0.0,0.0,0.0,0.0,0.0,0.0,0.0,0.0,0.0,0.7988,0.7988,0.7988,0.7988,0.7988,0.7988,0.7988,0.7988,0.7988,0.7988,0.7988,0.7988,0.7988,0.8167,0.8393,0.8662,0.8811,0.9014,0.934,0.941,0.94,0.9373,0.9369,0.9311,0.9158,0.9145,0.9066,0.8919,0.8885,0.8872,0.8872,0.8727,0.8611,0.8512,0.8485,0.8403,0.8257,0.8257,0.8167,0.7988,0.7988,0.7988,0.7988,0.7988,0.7988,0.7988,0.7988,0.7988,0.7988,0.7988,0.7988,0.7988,0.7988,0.7988,0.7988,0.7988,0.7988,0.7988,0.7988,0.7988,0.7988,0.7988,0.7988,0.7988,0.7988,0.7988,0.7988,0.7988,0.7988,0.7939,0.7711,0.7662,0.731,0.5977,0.5652,0.5275,0.3942,0.279,0.1938,0.1686,0.0756,0.0,0.0,0.0,0.0,0.0,0.0,0.0,0.0,0.0,0.0,0.0,0.0,0.0,0.0,0.0,0.0,0.0,0.0,0.0,0.0,0.0,0.0,0.0,0.0,0.0,0.0,0.0,0.0,0.0,0.0,0.0,0.7988,0.7988,0.7988,0.7988,0.7988,0.7988,0.7988,0.7988,0.7988,0.7988,0.7988,0.7988,0.7988,0.8167,0.8393,0.8662,0.8811,0.9041,0.9449,0.95,0.95,0.95,0.95,0.9439,0.9315,0.9301,0.924,0.9062,0.9049,0.9018,0.8916,0.8841,0.8733,0.8604,0.8601,0.853,0.8406,0.8332,0.826,0.816,0.8054,0.7988,0.7988,0.7988,0.7988,0.7988,0.7988,0.7988,0.7988,0.7988,0.7988,0.7988,0.7988,0.7988,0.7988,0.7988,0.7988,0.7988,0.7988,0.7988,0.7988,0.7988,0.7988,0.7988,0.7988,0.7988,0.7988,0.7988,0.7988,0.7988,0.7988,0.7988,0.7839,0.7185,0.5977,0.4795,0.4141,0.2388,0.0958,0.0958,0.0429,0.0,0.0,0.0,0.0,0.0,0.0,0.0,0.0,0.0,0.0,0.0,0.0,0.0,0.0,0.0,0.0,0.0,0.0,0.0,0.0,0.0,0.0,0.0,0.0,0.0,0.0,0.0,0.0,0.0,0.0,0.0,0.7988,0.7988,0.7988,0.7988,0.7988,0.7988,0.7988,0.7988,0.7988,0.7988,0.7988,0.7988,0.7988,0.814,0.833,0.8659,0.8811,0.9068,0.9547,0.9633,0.9663,0.9659,0.9653,0.9632,0.9449,0.9432,0.9396,0.924,0.9228,0.9117,0.8919,0.8912,0.8855,0.8737,0.8733,0.8686,0.8533,0.8447,0.8372,0.8342,0.8163,0.8064,0.8064,0.803,0.7988,0.7988,0.7988,0.7988,0.7988,0.7988,0.7988,0.7988,0.7988,0.7988,0.7988,0.7988,0.7988,0.7988,0.7988,0.7988,0.7988,0.7988,0.7988,0.7988,0.7988,0.7988,0.7988,0.7988,0.7988,0.7988,0.7988,0.7988,0.7988,0.7988,0.6401,0.4768,0.4493,0.254,0.0782,0.0479,0.0202,0.0,0.0,0.0,0.0,0.0,0.0,0.0,0.0,0.0,0.0,0.0,0.0,0.0,0.0,0.0,0.0,0.0,0.0,0.0,0.0,0.0,0.0,0.0,0.0,0.0,0.0,0.0,0.0,0.0,0.0,0.0,0.7988,0.7988,0.7988,0.7988,0.7988,0.7988,0.7988,0.7988,0.7988,0.7988,0.7988,0.7988,0.7988,0.8027,0.8179,0.8638,0.8811,0.9068,0.9547,0.9808,0.9927,0.9788,0.9893,0.9866,0.9615,0.9588,0.9523,0.94,0.926,0.9117,0.8919,0.8912,0.8902,0.8889,0.8889,0.8818,0.8693,0.8676,0.8601,0.8488,0.8345,0.8274,0.827,0.8077,0.7988,0.7988,0.7988,0.7988,0.7988,0.7988,0.7988,0.7988,0.7988,0.7988,0.7988,0.7988,0.7988,0.7988,0.7988,0.7988,0.7988,0.7988,0.7988,0.7988,0.7988,0.7988,0.7988,0.7988,0.7988,0.7988,0.7988,0.7988,0.7988,0.7988,0.7811,0.7307,0.6079,0.467,0.3265,0.2063,0.0832,0.0,0.0,0.0,0.0,0.0,0.0,0.0,0.0,0.0,0.0,0.0,0.0,0.0,0.0,0.0,0.0,0.0,0.0,0.0,0.0,0.0,0.0,0.0,0.0,0.0,0.0,0.0,0.0,0.0,0.0,0.0,0.8177,0.8241,0.8306,0.8306,0.8241,0.8177,0.8177,0.8081,0.7988,0.7988,0.7988,0.8044,0.8163,0.8077,0.8162,0.8612,0.8682,0.8821,0.9301,0.9513,0.969,0.9775,0.9846,0.9869,0.9846,0.9761,0.9676,0.953,0.9322,0.9155,0.9097,0.8956,0.8912,0.8912,0.8912,0.8882,0.8821,0.873,0.8679,0.8618,0.8495,0.8379,0.8294,0.8208,0.8104,0.7988,0.7988,0.7988,0.7988,0.7988,0.7988,0.7988,0.7988,0.7988,0.7988,0.7988,0.7988,0.7988,0.7988,0.7988,0.7988,0.7988,0.7988,0.7988,0.7988,0.7988,0.7988,0.7988,0.7988,0.7988,0.7988,0.7988,0.7988,0.7988,0.7385,0.6659,0.6104,0.4945,0.3615,0.2264,0.1561,0.0958,0.0151,0.0,0.0,0.0,0.0,0.0,0.0,0.0,0.0,0.0,0.0,0.0,0.0,0.0,0.0,0.0,0.0,0.0,0.0,0.0,0.0,0.0,0.0,0.0,0.0,0.0,0.0,0.0,0.0,0.0,0.8298,0.84,0.8509,0.8509,0.8403,0.8298,0.8298,0.815,0.8027,0.8074,0.8081,0.8153,0.8332,0.8245,0.8263,0.8652,0.8659,0.8757,0.9192,0.9417,0.9588,0.9765,0.9832,0.9883,0.9944,0.9852,0.9734,0.9618,0.9396,0.923,0.921,0.9018,0.8912,0.8912,0.8912,0.8912,0.8912,0.8804,0.875,0.8747,0.8621,0.8499,0.8423,0.8338,0.8211,0.8081,0.8033,0.7988,0.7988,0.7988,0.7988,0.7988,0.7988,0.7988,0.7988,0.7988,0.7988,0.7988,0.7988,0.7988,0.7988,0.7988,0.7988,0.7988,0.7988,0.7988,0.7988,0.7988,0.7988,0.7988,0.7988,0.7988,0.7988,0.7988,0.7285,0.6481,0.6079,0.5247,0.4193,0.284,0.2264,0.1711,0.0756,0.0252,0.0,0.0,0.0,0.0,0.0,0.0,0.0,0.0,0.0,0.0,0.0,0.0,0.0,0.0,0.0,0.0,0.0,0.0,0.0,0.0,0.0,0.0,0.0,0.0,0.0,0.0,0.0,0.0,0.8298,0.84,0.8509,0.8509,0.8403,0.8298,0.8298,0.815,0.8057,0.8264,0.8294,0.8338,0.8481,0.8505,0.853,0.8686,0.8808,0.9011,0.9337,0.9632,0.9788,0.9792,0.9923,0.9957,0.9808,0.9792,0.9734,0.9618,0.9466,0.9342,0.9217,0.9018,0.8912,0.8912,0.8912,0.8912,0.8912,0.8909,0.8909,0.8906,0.8754,0.8706,0.8696,0.843,0.8298,0.8284,0.8081,0.7988,0.7988,0.7988,0.7988,0.7988,0.7988,0.7988,0.7988,0.7988,0.7988,0.7988,0.7988,0.7988,0.7988,0.7988,0.7988,0.7988,0.7988,0.7988,0.7988,0.7988,0.7988,0.7988,0.7988,0.7988,0.7988,0.7988,0.7988,0.7612,0.6279,0.5979,0.5575,0.4243,0.2914,0.1988,0.1988,0.0882,0.0,0.0,0.0,0.0,0.0,0.0,0.0,0.0,0.0,0.0,0.0,0.0,0.0,0.0,0.0,0.0,0.0,0.0,0.0,0.0,0.0,0.0,0.0,0.0,0.0,0.0,0.0,0.0,0.8298,0.84,0.8509,0.8509,0.8403,0.8298,0.8298,0.826,0.8211,0.8284,0.8372,0.8488,0.8611,0.8554,0.8662,0.9093,0.9152,0.9225,0.9625,0.9822,0.9984,1.0124,1.0178,1.0103,0.9815,0.9792,0.9771,0.9727,0.9618,0.9469,0.9345,0.9196,0.9042,0.8916,0.8912,0.8912,0.8912,0.8912,0.8912,0.8912,0.8862,0.8784,0.8706,0.8615,0.8513,0.8437,0.8364,0.8289,0.8197,0.8197,0.8136,0.7988,0.7988,0.7988,0.7988,0.7988,0.7988,0.7988,0.7988,0.7988,0.7988,0.7988,0.7988,0.7988,0.7988,0.7988,0.7988,0.7988,0.7988,0.7988,0.7988,0.7988,0.7988,0.7988,0.7988,0.7889,0.7459,0.736,0.7006,0.5814,0.5216,0.4674,0.3852,0.2481,0.1511,0.1492,0.0643,0.0,0.0,0.0,0.0,0.0,0.0,0.0,0.0,0.0,0.0,0.0,0.0,0.0,0.0,0.0,0.0,0.0,0.0,0.0,0.0,0.0,0.0,0.0,0.0,0.0,0.8281,0.84,0.8509,0.8509,0.844,0.8376,0.8376,0.8376,0.8393,0.8451,0.8506,0.8615,0.874,0.872,0.8794,0.9254,0.9243,0.9339,0.9758,0.9873,0.9988,1.0175,1.0195,1.0093,0.9815,0.9792,0.9792,0.9792,0.969,0.9544,0.942,0.9264,0.9114,0.8916,0.8912,0.8912,0.8912,0.8912,0.8912,0.8912,0.8912,0.8862,0.8767,0.871,0.8659,0.8564,0.8532,0.8457,0.0,0.8376,0.8292,0.8179,0.8179,0.8179,0.8175,0.8121,0.8101,0.8091,0.8033,0.7988,0.7988,0.7988,0.7988,0.7988,0.7988,0.7988,0.7988,0.7988,0.7988,0.7988,0.7988,0.7988,0.7988,0.7988,0.8057,0.8101,0.8101,0.8145,0.7977,0.7279,0.6722,0.6146,0.5371,0.4034,0.3069,0.3061,0.1779,0.0835,0.0825,0.0335,0.0,0.0,0.0,0.0,0.0,0.0,0.0,0.0,0.0,0.0,0.0,0.0,0.0,0.0,0.0,0.0,0.0,0.0,0.0,0.0,0.0,0.0,0.0,0.8376,0.8475,0.8475,0.8485,0.8492,0.8492,0.8509,0.0,0.8679,0.872,0.875,0.8912,0.8933,0.8983,0.9216,0.9243,0.9396,0.9808,0.9846,0.99,1.0021,1.0035,0.9971,0.9805,0.9792,0.9792,0.9792,0.97,0.9554,0.942,0.9274,0.9128,0.8916,0.8912,0.8912,0.8912,0.8912,0.8912,0.8912,0.8912,0.8912,0.8906,0.8764,0.8726,0.872,0.8577,0.8536,0.8526,0.8526,0.8519,0.8509,0.8509,0.8509,0.8492,0.8359,0.8311,0.8287,0.8084,0.803,0.803,0.7992,0.7988,0.7988,0.7988,0.7988,0.7988,0.7988,0.802,0.803,0.803,0.8037,0.8047,0.8047,0.818,0.8311,0.8311,0.8413,0.8512,0.8522,0.7513,0.6666,0.6677,0.5561,0.4657,0.4652,0.3352,0.2315,0.2207,0.1012,0.0107,0.0,0.0,0.0,0.0,0.0,0.0,0.0,0.0,0.0,0.0,0.0,0.0,0.0,0.0,0.0,0.0,0.0,0.0,0.0,0.0,0.0,0.8057,0.0,0.8118,0.8118,0.8231,0.8345,0.0,0.8492,0.8665,0.8703,0.8777,0.8936,0.9228,0.9209,0.9294,0.9727,0.9808,0.9923,1.0287,1.0436,1.0407,1.0249,1.0226,1.012,0.9815,0.9792,0.9792,0.9792,0.9758,0.9656,0.9424,0.9376,0.9208,0.8919,0.8912,0.8912,0.8912,0.8912,0.8912,0.8912,0.8912,0.8912,0.8909,0.8875,0.8855,0.8855,0.8821,0.8737,0.8655,0.8655,0.8587,0.8509,0.8509,0.8509,0.8505,0.8471,0.8457,0.8437,0.8291,0.824,0.8197,0.8054,0.7988,0.7988,0.7988,0.7988,0.7988,0.7988,0.8101,0.824,0.824,0.8296,0.8377,0.8377,0.843,0.8457,0.8457,0.8485,0.8516,0.8635,0.8411,0.8202,0.8314,0.7147,0.618,0.618,0.4926,0.3532,0.2343,0.1888,0.1251,0.0133,0.0,0.0,0.0,0.0,0.0,0.0,0.0,0.0,0.0,0.0,0.0,0.0,0.0,0.0,0.0,0.0,0.0,0.0,0.0,0.0,0.7988,0.8115,0.8216,0.8216,0.8411,0.8577,0.8577,0.8703,0.8787,0.8787,0.8852,0.898,0.9264,0.9294,0.9437,0.9839,0.9974,1.0123,1.0449,1.0565,1.0531,1.0307,1.0219,1.0083,0.9812,0.9792,0.9792,0.9792,0.9792,0.9693,0.9427,0.941,0.9245,0.8919,0.8912,0.8912,0.8912,0.8912,0.8912,0.8912,0.8912,0.8912,0.8912,0.8912,0.8912,0.8912,0.8912,0.8865,0.8787,0.8787,0.874,0.8693,0.8693,0.8693,0.8682,0.8611,0.8587,0.8567,0.8444,0.8393,0.8379,0.8269,0.8216,0.8216,0.8216,0.8216,0.8228,0.8163,0.8208,0.8311,0.8376,0.8451,0.8509,0.8509,0.8537,0.8587,0.8587,0.8642,0.8716,0.877,0.8787,0.8814,0.8896,0.8239,0.771,0.7695,0.6444,0.497,0.3458,0.2639,0.1633,0.0164,0.0,0.0,0.0,0.0,0.0,0.0,0.0,0.0,0.0,0.0,0.0,0.0,0.0,0.0,0.0,0.0,0.0,0.0,0.0,0.0,0.8071,0.834,0.859,0.8498,0.8696,0.8906,0.8882,0.8892,0.8912,0.8912,0.8929,0.9028,0.9247,0.939,0.9551,0.9873,1.0001,1.018,1.0487,1.0507,1.0439,1.0329,1.0113,0.9957,0.9805,0.9792,0.9792,0.9792,0.9792,0.9693,0.9427,0.941,0.9245,0.8919,0.8912,0.8912,0.8912,0.8912,0.8912,0.8912,0.8912,0.8912,0.8912,0.8912,0.8912,0.8912,0.8912,0.8912,0.8912,0.8912,0.8912,0.8912,0.8912,0.8912,0.8896,0.8767,0.872,0.8723,0.857,0.8529,0.8509,0.8509,0.8509,0.8509,0.8509,0.8509,0.8488,0.8393,0.8362,0.8393,0.8512,0.8533,0.8554,0.8554,0.8652,0.872,0.872,0.8821,0.8912,0.8912,0.8912,0.8912,0.8912,0.8912,0.8912,0.8912,0.7848,0.6505,0.5027,0.3491,0.1985,0.0504,0.014,0.0,0.0,0.0,0.0,0.0,0.0,0.0,0.0,0.0,0.0,0.0,0.0,0.0,0.0,0.0,0.0,0.0,0.0,0.0,0.8347,0.8753,0.8958,0.8454,0.8625,0.8879,0.8747,0.8818,0.8912,0.8912,0.9035,0.9271,0.9646,0.9737,0.9893,1.0317,1.0409,1.0483,1.066,1.0575,1.0439,1.0329,1.0113,0.9957,0.9805,0.9792,0.9792,0.9792,0.9792,0.9693,0.9427,0.941,0.9245,0.8919,0.8912,0.8912,0.8912,0.8912,0.8912,0.8912,0.8912,0.8912,0.8912,0.8912,0.8912,0.8912,0.8912,0.8912,0.8912,0.8912,0.8912,0.8912,0.8912,0.8912,0.8909,0.8885,0.8875,0.8855,0.8726,0.8591,0.8509,0.8509,0.8509,0.8509,0.8509,0.8509,0.8532,0.8611,0.8645,0.8648,0.8669,0.8743,0.8841,0.8841,0.8858,0.8875,0.8875,0.8896,0.8912,0.8912,0.8912,0.8912,0.8912,0.8912,0.8912,0.8912,0.8716,0.8042,0.6561,0.5055,0.3548,0.2013,0.0756,0.0,0.0,0.0,0.0,0.0,0.0,0.0,0.0,0.0,0.0,0.0,0.0,0.0,0.0,0.0,0.0,0.0,0.0,0.0,0.8179,0.857,0.8869,0.8679,0.9,0.9369,0.9298,0.9242,0.9201,0.9257,0.9286,0.9417,0.9754,0.9856,1.0062,1.0541,1.0616,1.0612,1.0599,1.047,1.0324,1.0175,0.9988,0.9866,0.9798,0.9792,0.9792,0.9792,0.9792,0.9693,0.9427,0.941,0.9245,0.8919,0.8912,0.8912,0.8912,0.8912,0.8912,0.8912,0.8912,0.8912,0.8912,0.8912,0.8912,0.8912,0.8912,0.8912,0.8912,0.8912,0.8912,0.8912,0.8912,0.8912,0.8912,0.8912,0.8912,0.8899,0.8831,0.876,0.8726,0.8726,0.8726,0.8726,0.8726,0.8726,0.8716,0.8787,0.8747,0.873,0.8784,0.8858,0.8912,0.8912,0.8912,0.8912,0.8912,0.8912,0.8912,0.8912,0.8912,0.8912,0.8912,0.8912,0.8912,0.8912,0.8912,0.8377,0.6897,0.6114,0.5111,0.3603,0.2097,0.1175,0.1175,0.0448,0.0,0.0,0.0,0.0,0.0,0.0,0.0,0.0,0.0,0.0,0.0,0.0,0.0,0.0,0.0,0.0,0.8098,0.8422,0.8774,0.8923,0.933,0.9693,0.9765,0.9591,0.9435,0.9622,0.9595,0.9605,0.9802,0.9994,1.0234,1.0579,1.0664,1.0633,1.0514,1.0371,1.0222,1.0004,0.9883,0.9792,0.9792,0.9792,0.9792,0.9792,0.9792,0.9693,0.9427,0.9444,0.9283,0.8923,0.8943,0.8946,0.8912,0.8912,0.8912,0.8912,0.8912,0.8912,0.8912,0.8912,0.8912,0.8912,0.8912,0.8912,0.8912,0.8912,0.8912,0.8912,0.8912,0.8912,0.8912,0.8912,0.8912,0.8912,0.8912,0.8912,0.8912,0.8912,0.8912,0.8912,0.8912,0.8912,0.8912,0.8912,0.8828,0.8764,0.8882,0.8912,0.8912,0.8912,0.8912,0.8912,0.8912,0.8912,0.8912,0.8912,0.8912,0.8912,0.8912,0.8912,0.8912,0.8912,0.8912,0.8491,0.7371,0.6924,0.6255,0.5139,0.3324,0.2068,0.1705,0.0644,0.0,0.0,0.0,0.0,0.0,0.0,0.0,0.0,0.0,0.0,0.0,0.0,0.0,0.0,0.0,0.0,0.8377,0.8679,0.8929,0.9128,0.9199,0.9339,0.9727,0.9591,0.9462,0.9747,0.9879,0.9978,0.9998,1.0234,1.047,1.0504,1.0626,1.0633,1.0514,1.0371,1.0222,1.0004,0.9883,0.9792,0.9792,0.9792,0.9792,0.9792,0.9792,0.9693,0.9427,0.9517,0.9362,0.8926,0.9066,0.9104,0.8912,0.8912,0.8912,0.8912,0.8912,0.8912,0.8912,0.8912,0.8912,0.8912,0.8912,0.8912,0.8912,0.8912,0.8912,0.8912,0.8912,0.8912,0.8912,0.8912,0.8912,0.8912,0.8912,0.8912,0.8912,0.8912,0.8912,0.8912,0.8912,0.8912,0.8912,0.8912,0.8902,0.8896,0.8906,0.8912,0.8912,0.8912,0.8912,0.8912,0.8912,0.8912,0.8912,0.8912,0.8912,0.8912,0.8912,0.8912,0.8912,0.8912,0.8912,0.8854,0.8743,0.754,0.6672,0.6561,0.3937,0.165,0.028,0.0056,0.0,0.0,0.0,0.0,0.0,0.0,0.0,0.0,0.0,0.0,0.0,0.0,0.0,0.0,0.0,0.0,0.8152,0.8537,0.8946,0.9145,0.9325,0.953,0.9852,0.9846,0.9849,1.0178,1.0215,1.0195,1.0195,1.0287,1.0388,1.0477,1.0466,1.0426,1.0368,1.0232,1.0049,0.9896,0.9825,0.9792,0.9792,0.9792,0.9792,0.9792,0.971,0.9598,0.942,0.9376,0.9277,0.9107,0.9039,0.9035,0.9097,0.8956,0.8912,0.8912,0.8912,0.8912,0.8912,0.8912,0.8912,0.8912,0.8912,0.8912,0.8912,0.8912,0.8912,0.8912,0.8912,0.8912,0.8912,0.8912,0.8912,0.8912,0.8912,0.8912,0.8912,0.8912,0.8912,0.8912,0.8912,0.8912,0.8912,0.8912,0.8912,0.8912,0.8912,0.8912,0.8912,0.8912,0.8912,0.8912,0.8912,0.8912,0.8912,0.8912,0.8912,0.8912,0.8912,0.8912,0.8912,0.8912,0.8912,0.8912,0.8912,0.7623,0.6702,0.6702,0.3992,0.1594,0.0112,0.0,0.0,0.0,0.0,0.0,0.0,0.0,0.0,0.0,0.0,0.0,0.0,0.0,0.0,0.0,0.0,0.0,0.8155,0.8557,0.9042,0.9216,0.9452,0.9754,1.0021,1.0055,1.0116,1.0493,1.0412,1.0312,1.0312,1.0243,1.0239,1.0337,1.031,1.0295,1.0215,1.0086,0.9961,0.9808,0.9792,0.9792,0.9792,0.9792,0.9771,0.9727,0.9663,0.952,0.9349,0.9284,0.923,0.921,0.9103,0.9123,0.9254,0.9127,0.9027,0.9008,0.9008,0.8956,0.8912,0.8912,0.8912,0.8912,0.8912,0.8912,0.8912,0.8912,0.8912,0.8912,0.8912,0.8912,0.8912,0.8912,0.8912,0.8912,0.8912,0.8912,0.8912,0.8912,0.8912,0.8912,0.8912,0.8912,0.8912,0.8912,0.8912,0.8912,0.8912,0.8912,0.8912,0.8912,0.8912,0.8912,0.8912,0.8912,0.8912,0.8912,0.8912,0.8912,0.8912,0.8912,0.8912,0.8912,0.8912,0.8912,0.8912,0.8014,0.7035,0.6114,0.3714,0.1594,0.0112,0.0,0.0,0.0,0.0,0.0,0.0,0.0,0.0,0.0,0.0,0.0,0.0,0.0,0.0,0.0,0.0,0.0,0.8505,0.8835,0.922,0.9373,0.9605,0.9907,1.0244,1.0196,1.0213,1.0629,1.0487,1.0315,1.0312,1.0154,0.9987,0.9987,1.0178,1.0222,1.0038,0.9984,0.9961,0.9808,0.9792,0.9792,0.9792,0.9792,0.9734,0.9618,0.9608,0.9473,0.9224,0.9325,0.9339,0.9217,0.9332,0.941,0.9413,0.941,0.9335,0.921,0.921,0.9107,0.8912,0.8912,0.8912,0.8912,0.8912,0.8912,0.8912,0.8912,0.8912,0.8912,0.8912,0.8912,0.8912,0.8912,0.8912,0.8912,0.8912,0.8912,0.8912,0.8912,0.8912,0.8912,0.8912,0.8912,0.8912,0.8912,0.8912,0.8912,0.8912,0.8912,0.8912,0.8912,0.8912,0.8912,0.8912,0.8912,0.8912,0.8912,0.8912,0.8912,0.8912,0.8912,0.8912,0.8912,0.8912,0.8881,0.8881,0.8854,0.7734,0.4804,0.3101,0.1594,0.0112,0.0,0.0,0.0,0.0,0.0,0.0,0.0,0.0,0.0,0.0,0.0,0.0,0.0,0.0,0.0,0.0,0.0,0.8386,0.876,0.922,0.9373,0.9764,1.0195,1.0385,1.0424,1.0429,1.067,1.0565,1.0399,1.0329,1.0154,0.9987,0.9987,0.9967,0.9947,1.0008,0.9927,0.9842,0.9795,0.9792,0.9792,0.9792,0.9792,0.9734,0.9618,0.951,0.939,0.9221,0.9226,0.9277,0.9339,0.9386,0.9432,0.954,0.9435,0.9386,0.9342,0.9342,0.9181,0.8912,0.8912,0.8912,0.8912,0.8912,0.8912,0.8912,0.8912,0.8912,0.8912,0.8912,0.8912,0.8912,0.8912,0.8912,0.8912,0.8912,0.8912,0.8912,0.8912,0.8912,0.8912,0.8912,0.8912,0.8912,0.8912,0.8912,0.8912,0.8912,0.8912,0.8912,0.8912,0.8912,0.8912,0.8912,0.8912,0.8912,0.8912,0.8912,0.8912,0.8912,0.8912,0.8912,0.8912,0.8912,0.8519,0.7485,0.645,0.5055,0.3101,0.1538,0.0476,0.0028,0.0,0.0,0.0,0.0,0.0,0.0,0.0,0.0,0.0,0.0,0.0,0.0,0.0,0.0,0.0,0.0,0.0,0.8777,0.9147,0.9557,0.9771,1.0097,1.0385,1.0473,1.0538,1.0609,1.0667,1.0555,1.0414,1.0297,1.0103,0.9927,0.9927,0.9849,0.9822,0.9913,0.9849,0.9792,0.9792,0.9792,0.9792,0.9792,0.9792,0.9734,0.9618,0.9523,0.9434,0.9281,0.9274,0.9342,0.9466,0.9473,0.9544,0.9693,0.9602,0.9527,0.9473,0.9473,0.9347,0.9085,0.9085,0.9079,0.9022,0.8936,0.8912,0.8912,0.8912,0.8912,0.8912,0.8912,0.8912,0.8912,0.8912,0.8912,0.8912,0.8912,0.8912,0.8912,0.8912,0.8912,0.8912,0.8912,0.8912,0.8912,0.8912,0.8912,0.8912,0.8912,0.8912,0.8912,0.8912,0.8912,0.8912,0.8912,0.8912,0.8912,0.8912,0.8912,0.8912,0.8912,0.8912,0.8912,0.8912,0.8912,0.8574,0.7679,0.6344,0.4848,0.3271,0.1847,0.0714,0.0057,0.0,0.0,0.0,0.0,0.0,0.0,0.0,0.0,0.0,0.0,0.0,0.0,0.0,0.0,0.0,0.0,0.0,0.9452,0.9754,1.0052,1.0395,1.0493,1.051,1.0493,1.0599,1.0697,1.0683,1.0466,1.0276,1.0295,1.0032,0.9805,0.9792,0.9792,0.9792,0.9792,0.9792,0.9792,0.9792,0.9792,0.9792,0.9792,0.9792,0.9734,0.9618,0.9608,0.9537,0.9396,0.9417,0.9459,0.9585,0.9615,0.969,0.9788,0.9792,0.9724,0.9629,0.9629,0.9554,0.9447,0.941,0.9305,0.9155,0.8967,0.8912,0.8912,0.8912,0.8912,0.8912,0.8912,0.8912,0.8912,0.8912,0.8912,0.8912,0.8912,0.8912,0.8912,0.8912,0.8912,0.8912,0.8912,0.8912,0.8912,0.8912,0.8912,0.8912,0.8912,0.8912,0.8912,0.8912,0.8912,0.8912,0.8912,0.8912,0.8912,0.8912,0.8923,0.8929,0.8929,0.8943,0.8946,0.8933,0.8929,0.8874,0.8708,0.7517,0.6073,0.4472,0.3083,0.1646,0.0118,0.0,0.0,0.0,0.0,0.0,0.0,0.0,0.0,0.0,0.0,0.0,0.0,0.0,0.0,0.0,0.0,0.0,0.9223,0.9473,0.9805,1.0222,1.05,1.0639,1.0521,1.0517,1.051,1.0399,1.0324,1.0243,1.0089,1.0015,0.993,0.9808,0.9792,0.9792,0.9792,0.9792,0.9792,0.9792,0.9792,0.9792,0.9792,0.9792,0.9734,0.9618,0.9608,0.949,0.9243,0.9432,0.952,0.9435,0.9656,0.9761,0.9792,0.9792,0.9775,0.9744,0.9744,0.9727,0.9713,0.939,0.9152,0.8956,0.8926,0.8912,0.8912,0.8912,0.8912,0.8912,0.8912,0.8912,0.8912,0.8912,0.8912,0.8912,0.8912,0.8912,0.8912,0.8912,0.8912,0.8912,0.8912,0.8912,0.8912,0.8912,0.8912,0.8912,0.8912,0.8912,0.8912,0.8912,0.8912,0.8912,0.8912,0.8912,0.8912,0.8912,0.9028,0.9134,0.9134,0.9237,0.9245,0.9152,0.9134,0.8649,0.7336,0.6001,0.4548,0.286,0.1408,0.0383,0.0029,0.0,0.0,0.0,0.0,0.0,0.0,0.0,0.0,0.0,0.0,0.0,0.0,0.0,0.0,0.0,0.0,0.0,0.9357,0.9642,0.9896,1.0378,1.0551,1.0571,1.0426,1.0334,1.0207,1.009,1.012,1.0113,1.0032,0.9957,0.9883,0.9802,0.9792,0.9792,0.9792,0.9792,0.9792,0.9792,0.9792,0.9792,0.9792,0.9792,0.9761,0.9687,0.971,0.9642,0.9483,0.9625,0.9676,0.9595,0.9741,0.9792,0.9792,0.9792,0.9792,0.9792,0.9792,0.9754,0.971,0.943,0.9209,0.9035,0.894,0.8912,0.8912,0.8912,0.8912,0.8912,0.8912,0.8912,0.8912,0.8912,0.8912,0.8912,0.8912,0.8912,0.8912,0.8912,0.8912,0.8912,0.8912,0.8912,0.8912,0.8912,0.8912,0.8912,0.8912,0.8912,0.8912,0.8912,0.8912,0.8912,0.8912,0.8912,0.8929,0.9028,0.9128,0.9231,0.9277,0.9356,0.9383,0.9301,0.9291,0.8972,0.8099,0.7452,0.6105,0.3649,0.278,0.1714,0.0121,0.0,0.0,0.0,0.0,0.0,0.0,0.0,0.0,0.0,0.0,0.0,0.0,0.0,0.0,0.0,0.0,0.0,0.9457,0.9825,1.012,1.0542,1.0605,1.0487,1.0352,1.0181,1.0005,0.9829,0.989,0.9981,0.9981,0.9876,0.9792,0.9792,0.9792,0.9792,0.9792,0.9792,0.9792,0.9792,0.9792,0.9792,0.9792,0.9792,0.9792,0.9792,0.9792,0.9781,0.9754,0.9775,0.9781,0.9754,0.9778,0.9792,0.9792,0.9792,0.9792,0.9792,0.9792,0.9717,0.9605,0.9479,0.9352,0.9204,0.8973,0.8912,0.8912,0.8912,0.8912,0.8912,0.8912,0.8912,0.8912,0.8912,0.8912,0.8912,0.8912,0.8912,0.8912,0.8912,0.8912,0.8912,0.8912,0.8912,0.8912,0.8912,0.8912,0.8912,0.8912,0.8912,0.8912,0.8912,0.8912,0.8919,0.8943,0.895,0.9018,0.9192,0.9243,0.9308,0.9461,0.9439,0.9447,0.9447,0.9447,0.9331,0.9036,0.9134,0.7954,0.4672,0.4422,0.326,0.0247,0.0,0.0,0.0,0.0,0.0,0.0,0.0,0.0,0.0,0.0,0.0,0.0,0.0,0.0,0.0,0.0,0.0,0.8929,0.9511,1.0092,1.0443,1.0605,1.0619,1.0376,1.0263,1.0168,0.9849,0.9805,0.9819,0.9819,0.9805,0.9792,0.9792,0.9792,0.9792,0.9792,0.9792,0.9792,0.9792,0.9792,0.9792,0.9792,0.9792,0.9792,0.9792,0.9792,0.9737,0.9646,0.9724,0.9734,0.9642,0.9727,0.9792,0.9792,0.9792,0.9792,0.9792,0.9792,0.9717,0.9608,0.9588,0.9422,0.9204,0.8973,0.8912,0.8912,0.8912,0.8912,0.8912,0.8912,0.8912,0.8912,0.8912,0.8912,0.8912,0.8912,0.8912,0.8912,0.8912,0.8912,0.8912,0.8912,0.8912,0.8912,0.8912,0.8912,0.8912,0.8912,0.8912,0.8912,0.8912,0.8912,0.8946,0.9124,0.9152,0.9196,0.9349,0.9459,0.9595,0.9707,0.9659,0.9581,0.9581,0.9581,0.9038,0.7595,0.7574,0.6424,0.3158,0.2797,0.2063,0.0154,0.0,0.0,0.0,0.0,0.0,0.0,0.0,0.0,0.0,0.0,0.0,0.0,0.0,0.0,0.0,0.0,0.0,0.9035,0.9518,0.9981,1.0395,1.0483,1.0439,1.0342,1.0212,1.0059,0.9836,0.9792,0.9792,0.9792,0.9792,0.9792,0.9792,0.9792,0.9792,0.9792,0.9792,0.9792,0.9792,0.9792,0.9792,0.9792,0.9792,0.9792,0.9792,0.9792,0.9765,0.97,0.9758,0.9761,0.97,0.9758,0.9792,0.9792,0.9792,0.9792,0.9792,0.9792,0.9758,0.9697,0.9646,0.9442,0.9207,0.9114,0.9015,0.8912,0.8912,0.8912,0.8912,0.8912,0.8912,0.8912,0.8912,0.8912,0.8912,0.8912,0.8912,0.8912,0.8912,0.8912,0.8912,0.8912,0.8912,0.8912,0.8912,0.8912,0.8929,0.9039,0.897,0.8953,0.9147,0.912,0.9123,0.9386,0.9301,0.925,0.9462,0.9629,0.9717,0.9781,0.9741,0.9697,0.9697,0.9697,0.9453,0.872,0.8678,0.7487,0.4211,0.3844,0.28,0.0216,0.0,0.0,0.0,0.0,0.0,0.0,0.0,0.0,0.0,0.0,0.0,0.0,0.0,0.0,0.0,0.0,0.0,0.9028,0.9425,0.9768,1.0256,1.0354,1.0324,1.0322,1.0192,1.0021,0.9832,0.9792,0.9792,0.9792,0.9792,0.9792,0.9792,0.9792,0.9792,0.9792,0.9792,0.9792,0.9792,0.9792,0.9792,0.9792,0.9792,0.9792,0.9792,0.9792,0.9792,0.9792,0.9792,0.9792,0.9792,0.9792,0.9792,0.9792,0.9792,0.9792,0.9792,0.9792,0.9792,0.9788,0.968,0.9517,0.9294,0.9257,0.9155,0.8967,0.9007,0.8977,0.8916,0.8953,0.8943,0.8912,0.8912,0.8912,0.8912,0.8912,0.8912,0.8912,0.8912,0.8912,0.8912,0.8912,0.8912,0.8912,0.8912,0.8912,0.8946,0.9145,0.91,0.9059,0.932,0.9322,0.9315,0.9551,0.9459,0.942,0.9618,0.9717,0.9792,0.9792,0.9792,0.9792,0.9792,0.9792,0.9792,0.9792,0.9451,0.8099,0.5192,0.4548,0.3139,0.0247,0.0,0.0,0.0,0.0,0.0,0.0,0.0,0.0,0.0,0.0,0.0,0.0,0.0,0.0,0.0,0.0,0.0,0.8591,0.8988,0.9359,0.9893,1.0245,1.0446,1.0342,1.0305,1.0181,0.9852,0.9792,0.9792,0.9792,0.9792,0.9792,0.9792,0.9792,0.9792,0.9792,0.9792,0.9792,0.9792,0.9792,0.9792,0.9792,0.9792,0.9792,0.9792,0.9792,0.9792,0.9792,0.9792,0.9792,0.9792,0.9792,0.9792,0.9792,0.9792,0.9792,0.9792,0.9792,0.9792,0.9792,0.9785,0.9727,0.9578,0.9432,0.9311,0.9182,0.9328,0.9191,0.8926,0.9117,0.9059,0.8912,0.8912,0.8912,0.8912,0.8912,0.8912,0.8912,0.8912,0.8912,0.8912,0.8912,0.8912,0.8912,0.8912,0.8912,0.8946,0.9145,0.9204,0.9209,0.9373,0.9403,0.9441,0.9574,0.9703,0.9761,0.9775,0.9785,0.9792,0.9792,0.9792,0.9792,0.9792,0.9792,0.9792,0.9792,0.8465,0.6841,0.51,0.3537,0.191,0.0154,0.0,0.0,0.0,0.0,0.0,0.0,0.0,0.0,0.0,0.0,0.0,0.0,0.0,0.0,0.0,0.0,0.0,0.8496,0.8784,0.9113,0.952,0.9842,1.0049,0.9998,1.0059,1.0042,0.9832,0.9792,0.9792,0.9792,0.9792,0.9792,0.9792,0.9792,0.9792,0.9792,0.9792,0.9792,0.9792,0.9792,0.9792,0.9792,0.9792,0.9792,0.9792,0.9792,0.9792,0.9792,0.9792,0.9792,0.9792,0.9792,0.9792,0.9792,0.9792,0.9792,0.9792,0.9792,0.9792,0.9792,0.9792,0.9761,0.971,0.9686,0.9527,0.9325,0.9281,0.9199,0.91,0.9032,0.8956,0.8912,0.8912,0.8912,0.8912,0.8912,0.8912,0.8912,0.8912,0.8912,0.8912,0.8912,0.8912,0.8912,0.8912,0.9005,0.9138,0.9288,0.9328,0.9366,0.9493,0.9598,0.968,0.9734,0.9754,0.9792,0.9792,0.9792,0.9792,0.9792,0.9792,0.9792,0.9792,0.9792,0.9792,0.9792,0.9295,0.8313,0.6689,0.5037,0.3383,0.1756,0.0617,0.0,0.0,0.0,0.0,0.0,0.0,0.0,0.0,0.0,0.0,0.0,0.0,0.0,0.0,0.0,0.0,0.8396,0.8594,0.8882,0.9283,0.953,0.9713,0.9832,0.9944,0.9991,0.989,0.991,0.9958,0.9876,0.9866,0.9849,0.9798,0.9792,0.9792,0.9792,0.9792,0.9792,0.9792,0.9792,0.9792,0.9792,0.9792,0.9792,0.9792,0.9792,0.9792,0.9792,0.9792,0.9792,0.9792,0.9792,0.9792,0.9792,0.9792,0.9792,0.9792,0.9792,0.9792,0.9792,0.9792,0.9792,0.9792,0.9792,0.9683,0.9449,0.9376,0.9274,0.92,0.9049,0.8953,0.8912,0.8912,0.8912,0.8912,0.8912,0.8912,0.8912,0.8912,0.8912,0.8912,0.8912,0.8946,0.9011,0.9011,0.9117,0.9294,0.9418,0.9493,0.9554,0.9656,0.9721,0.9792,0.9792,0.9792,0.9792,0.9792,0.9792,0.9792,0.9792,0.9792,0.9792,0.9792,0.9792,0.9792,0.9792,0.9329,0.8374,0.675,0.5068,0.3445,0.1787,0.0648,0.0,0.0,0.0,0.0,0.0,0.0,0.0,0.0,0.0,0.0,0.0,0.0,0.0,0.0,0.0,0.0,0.0,0.0,0.0,0.9237,0.939,0.9486,0.9896,0.9967,0.997,0.9984,1.0164,1.0222,1.0049,0.999,0.9967,0.9822,0.9795,0.9792,0.9792,0.9792,0.9792,0.9792,0.9792,0.9792,0.9792,0.9792,0.9792,0.9792,0.9792,0.9792,0.9792,0.9792,0.9792,0.9792,0.9792,0.9792,0.9792,0.9792,0.9792,0.9792,0.9792,0.9792,0.9792,0.9792,0.9792,0.9792,0.9792,0.9714,0.9615,0.9605,0.9429,0.9214,0.9207,0.9062,0.8912,0.8912,0.8912,0.8912,0.8912,0.8912,0.8912,0.8912,0.8916,0.8919,0.8919,0.9045,0.9217,0.9217,0.9298,0.9422,0.9578,0.9717,0.9792,0.9792,0.9792,0.9792,0.9792,0.9792,0.9792,0.9792,0.9792,0.9792,0.9792,0.9792,0.9792,0.9792,0.9792,0.9792,0.9792,0.8434,0.6841,0.5161,0.3537,0.1879,0.0216,0.0031,0.0,0.0,0.0,0.0,0.0,0.0,0.0,0.0,0.0,0.0,0.0,0.0,0.0,0.0,0.0,0.0,0.8067,0.0,0.0,0.0,0.0,0.0,0.949,0.9564,0.9656,0.995,0.9964,1.0002,1.0181,1.0096,0.9974,0.9961,0.9863,0.9792,0.9792,0.9792,0.9792,0.9792,0.9792,0.9792,0.9792,0.9792,0.9792,0.9792,0.9792,0.9792,0.9792,0.9792,0.9792,0.9792,0.9792,0.9792,0.9792,0.9792,0.9792,0.9792,0.9792,0.9792,0.9792,0.9792,0.9792,0.9792,0.9792,0.9768,0.9714,0.9534,0.9424,0.9325,0.9083,0.8946,0.8912,0.8912,0.8912,0.8912,0.8912,0.8912,0.8912,0.8912,0.9008,0.9121,0.9121,0.9226,0.9345,0.9345,0.9429,0.9581,0.9724,0.9761,0.9792,0.9792,0.9792,0.9792,0.9792,0.9792,0.9792,0.9792,0.9792,0.9792,0.9792,0.9792,0.9792,0.9792,0.9792,0.9792,0.9792,0.942,0.8529,0.6872,0.5221,0.3568,0.194,0.0709,0.0,0.0,0.0,0.0,0.0,0.0,0.0,0.0,0.0,0.0,0.0,0.0,0.0,0.0,0.0,0.0,0.8136,0.8201,0.8362,0.8604,0.0,0.0,0.9378,0.9476,0.9585,0.994,0.9998,1.0046,1.0164,1.0079,0.9987,0.9987,0.9944,0.9886,0.9886,0.9886,0.9886,0.9886,0.9886,0.9859,0.9798,0.9792,0.9792,0.9792,0.9792,0.9792,0.9792,0.9792,0.9792,0.9792,0.9792,0.9792,0.9792,0.9792,0.9792,0.9792,0.9792,0.9792,0.9792,0.9792,0.9792,0.9792,0.9792,0.9792,0.9771,0.9571,0.9439,0.9386,0.912,0.8963,0.8912,0.8912,0.895,0.9028,0.9028,0.9069,0.9123,0.9123,0.9181,0.9277,0.9277,0.9383,0.9476,0.9476,0.9585,0.9687,0.9768,0.9792,0.9792,0.9792,0.9792,0.9792,0.9792,0.9792,0.9792,0.9792,0.9792,0.9792,0.9792,0.9792,0.9792,0.9792,0.9792,0.9792,0.9792,0.9792,0.9174,0.7576,0.5894,0.4242,0.2647,0.0956,0.0,0.0,0.0,0.0,0.0,0.0,0.0,0.0,0.0,0.0,0.0,0.0,0.0,0.0,0.0,0.0,0.8318,0.8332,0.844,0.8787,0.8808,0.0,0.9435,0.9557,0.9642,0.991,1.0097,1.0148,1.0011,0.9994,0.9988,0.9971,0.9967,1.0025,1.0042,1.0042,1.0042,1.0042,0.9997,0.9964,0.9829,0.9802,0.9792,0.9792,0.9792,0.9792,0.9792,0.9792,0.9792,0.9792,0.9792,0.9792,0.9792,0.9792,0.9792,0.9792,0.9792,0.9792,0.9792,0.9792,0.9792,0.9792,0.9792,0.9792,0.9781,0.9686,0.9544,0.942,0.9267,0.91,0.896,0.896,0.9069,0.9234,0.9234,0.9294,0.941,0.941,0.9424,0.9434,0.9434,0.9513,0.9632,0.9632,0.9694,0.9792,0.9792,0.9792,0.9792,0.9792,0.9792,0.9792,0.9792,0.9792,0.9792,0.9792,0.9792,0.9792,0.9792,0.9792,0.9792,0.9792,0.9792,0.9792,0.9792,0.9792,0.9174,0.7576,0.6077,0.4456,0.2647,0.1141,0.0185,0.0,0.0,0.0,0.0,0.0,0.0,0.0,0.0,0.0,0.0,0.0,0.0,0.0,0.0,0.0,0.8468,0.853,0.8645,0.8706,0.8913,0.0,0.9243,0.9271,0.9356,0.9632,0.9622,0.9622,0.9798,0.9836,0.9798,0.9683,0.9863,1.0062,1.0219,1.0236,1.0236,1.0236,1.0096,0.9974,0.9978,0.9863,0.9792,0.9792,0.9792,0.9792,0.9792,0.9792,0.9792,0.9792,0.9792,0.9792,0.9792,0.9792,0.9792,0.9792,0.9792,0.9792,0.9792,0.9792,0.9792,0.9792,0.9792,0.9792,0.9788,0.9761,0.9693,0.9551,0.9427,0.9349,0.9293,0.9293,0.9342,0.9366,0.9366,0.9386,0.941,0.941,0.9462,0.9564,0.9564,0.9666,0.9751,0.9751,0.9768,0.9792,0.9792,0.9792,0.9792,0.9792,0.9792,0.9792,0.9792,0.9792,0.9792,0.9792,0.9792,0.9792,0.9792,0.9792,0.9792,0.9792,0.9792,0.9792,0.9792,0.9792,0.9174,0.7576,0.7116,0.5708,0.2739,0.2186,0.1448,0.0093,0.0,0.0,0.0,0.0,0.0,0.0,0.0,0.0,0.0,0.0,0.0,0.0,0.0,0.0,0.8529,0.8594,0.8747,0.8893,0.8991,0.0,0.0,0.9237,0.9267,0.9547,0.949,0.9449,0.9676,0.9652,0.9625,0.9703,0.9873,1.0072,1.0259,1.0373,1.0385,1.0385,1.0256,1.0103,1.0025,0.9879,0.9792,0.9792,0.9792,0.9792,0.9792,0.9792,0.9792,0.9792,0.9792,0.9792,0.9792,0.9792,0.9792,0.9792,0.9792,0.9792,0.9792,0.9792,0.9792,0.9792,0.9792,0.9792,0.9792,0.9792,0.9748,0.967,0.9554,0.9449,0.941,0.941,0.9432,0.9496,0.9496,0.954,0.9602,0.9602,0.9652,0.9687,0.9687,0.9734,0.9792,0.9792,0.9792,0.9792,0.9792,0.9792,0.9792,0.9792,0.9792,0.9792,0.9792,0.9792,0.9792,0.9792,0.9792,0.9792,0.9792,0.9792,0.9792,0.9792,0.9792,0.9792,0.9792,0.9792,0.9481,0.8681,0.7881,0.6381,0.3904,0.2954,0.1787,0.0093,0.0,0.0,0.0,0.0,0.0,0.0,0.0,0.0,0.0,0.0,0.0,0.0,0.0,0.0,0.856,0.8638,0.8811,0.908,0.9066,0.9044,0.0,0.0,0.0,0.9435,0.9381,0.9334,0.9459,0.9401,0.9405,0.9585,0.9798,0.9978,1.0134,1.0273,1.0385,1.0443,1.0324,1.0185,1.0032,0.9856,0.9761,0.9788,0.9765,0.9761,0.9788,0.9792,0.9792,0.9792,0.9792,0.9792,0.9792,0.9792,0.9792,0.9792,0.9792,0.9792,0.9792,0.9792,0.9792,0.9792,0.9792,0.9792,0.9792,0.9792,0.9792,0.9781,0.9693,0.9574,0.9466,0.9466,0.9544,0.9649,0.9649,0.9697,0.9792,0.9792,0.9792,0.9792,0.9792,0.9792,0.9792,0.9792,0.9792,0.9792,0.9792,0.9792,0.9792,0.9792,0.9792,0.9792,0.9792,0.9792,0.9792,0.9792,0.9792,0.9792,0.9792,0.9792,0.9792,0.9792,0.9792,0.9792,0.9792,0.9792,0.9792,0.9792,0.865,0.7179,0.5529,0.3904,0.2248,0.0586,0.0185,0.0,0.0,0.0,0.0,0.0,0.0,0.0,0.0,0.0,0.0,0.0,0.0,0.0,0.8689,0.877,0.8892,0.8926,0.9147,0.9273,0.9014,0.0,0.9155,0.9007,0.0,0.8967,0.8983,0.0,0.0,0.9024,0.9359,0.9666,0.9683,0.9808,0.9998,1.0305,1.0136,1.0038,0.9987,0.9768,0.9686,0.9781,0.9703,0.969,0.9785,0.9792,0.9792,0.9792,0.9792,0.9792,0.9792,0.9792,0.9792,0.9792,0.9792,0.9792,0.9792,0.9792,0.9792,0.9792,0.9792,0.9792,0.9792,0.9792,0.9792,0.9788,0.9771,0.9754,0.9741,0.9741,0.9751,0.9765,0.9765,0.9775,0.9792,0.9792,0.9792,0.9792,0.9792,0.9792,0.9792,0.9792,0.9792,0.9792,0.9792,0.9792,0.9792,0.9792,0.9792,0.9792,0.9792,0.9792,0.9792,0.9792,0.9792,0.9792,0.9792,0.9792,0.9792,0.9792,0.9792,0.9792,0.9792,0.9792,0.9792,0.9792,0.9636,0.8867,0.7238,0.5588,0.3936,0.2309,0.0833,0.0,0.0,0.0,0.0,0.0,0.0,0.0,0.0,0.0,0.0,0.0,0.0,0.0,0.8577,0.8689,0.8821,0.9018,0.9093,0.9113,0.9072,0.9045,0.9035,0.9059,0.0,0.0,0.0,0.0,0.0,0.0,0.9296,0.9479,0.9479,0.9605,0.9842,1.0236,1.0063,0.9886,0.9886,0.97,0.9666,0.9781,0.969,0.9673,0.9785,0.9792,0.9792,0.9792,0.9792,0.9792,0.9792,0.9792,0.9792,0.9792,0.9792,0.9792,0.9792,0.9792,0.9792,0.9792,0.9792,0.9792,0.9792,0.9792,0.9792,0.9792,0.9792,0.9792,0.9792,0.9792,0.9792,0.9792,0.9792,0.9792,0.9792,0.9792,0.9792,0.9792,0.9792,0.9792,0.9792,0.9792,0.9792,0.9792,0.9792,0.9792,0.9792,0.9792,0.9792,0.9792,0.9792,0.9792,0.9792,0.9792,0.9792,0.9792,0.9792,0.9792,0.9792,0.9792,0.9792,0.9792,0.9792,0.9792,0.9792,0.9792,0.9792,0.8745,0.6169,0.5314,0.3813,0.1202,0.0401,0.0,0.0,0.0,0.0,0.0,0.0,0.0,0.0,0.0,0.0,0.0,0.0,0.0,0.8519,0.8594,0.876,0.9005,0.8984,0.8926,0.9046,0.8984,0.8929,0.9046,0.8981,0.0,0.0,0.0,0.8946,0.9107,0.0,0.9273,0.9342,0.9381,0.9591,1.0042,0.9934,0.9792,0.9792,0.9656,0.9625,0.9775,0.9649,0.9629,0.9781,0.9792,0.9792,0.9792,0.9792,0.9792,0.9792,0.9792,0.9792,0.9792,0.9792,0.9792,0.9792,0.9792,0.9792,0.9792,0.9792,0.9792,0.9792,0.9792,0.9792,0.9792,0.9792,0.9792,0.9792,0.9792,0.9792,0.9792,0.9792,0.9792,0.9792,0.9792,0.9792,0.9792,0.9792,0.9792,0.9792,0.9792,0.9792,0.9792,0.9792,0.9792,0.9792,0.9792,0.9792,0.9792,0.9792,0.9792,0.9792,0.9792,0.9792,0.9792,0.9792,0.9792,0.9792,0.9792,0.9792,0.9792,0.9792,0.9792,0.9792,0.9792,0.9792,0.8839,0.6446,0.5406,0.3506,0.0216,0.0,0.0,0.0,0.0,0.0,0.0,0.0,0.0,0.0,0.0,0.0,0.0,0.0,0.0,0.8523,0.8594,0.8713,0.8723,0.8804,0.8875,0.873,0.8808,0.8872,0.8754,0.8811,0.8912,0.8916,0.8916,0.8912,0.0,0.8923,0.0,0.0,0.9045,0.9098,0.9578,0.9714,0.9792,0.9792,0.9557,0.951,0.9768,0.9551,0.9513,0.9775,0.9792,0.9792,0.9792,0.9792,0.9792,0.9792,0.9792,0.9792,0.9792,0.9792,0.9792,0.9792,0.9792,0.9792,0.9792,0.9792,0.9792,0.9792,0.9792,0.9792,0.9792,0.9792,0.9792,0.9792,0.9792,0.9792,0.9792,0.9792,0.9792,0.9792,0.9792,0.9792,0.9792,0.9792,0.9792,0.9792,0.9792,0.9792,0.9792,0.9792,0.9792,0.9792,0.9792,0.9792,0.9792,0.9792,0.9792,0.9792,0.9792,0.9792,0.9792,0.9792,0.9792,0.9792,0.9792,0.9792,0.9792,0.9792,0.9792,0.9792,0.9792,0.9792,0.9758,0.9636,0.6721,0.3506,0.0216,0.0,0.0,0.0,0.0,0.0,0.0,0.0,0.0,0.0,0.0,0.0,0.0,0.0,0.0,0.8498,0.8594,0.8706,0.8808,0.8798,0.8747,0.8723,0.8723,0.8747,0.872,0.8804,0.8912,0.8912,0.8912,0.8912,0.0,0.0,0.8929,0.0,0.9052,0.9165,0.9318,0.953,0.9642,0.954,0.953,0.9574,0.9673,0.9588,0.9615,0.9781,0.9792,0.9792,0.9792,0.9792,0.9792,0.9792,0.9792,0.9792,0.9792,0.9792,0.9792,0.9792,0.9792,0.9792,0.9792,0.9792,0.9792,0.9792,0.9792,0.9792,0.9792,0.9792,0.9792,0.9792,0.9792,0.9792,0.9792,0.9792,0.9792,0.9792,0.9792,0.9792,0.9771,0.971,0.9717,0.9771,0.9677,0.9717,0.9792,0.9792,0.9792,0.9792,0.9792,0.9792,0.9792,0.9792,0.9792,0.9792,0.9792,0.9792,0.9792,0.9792,0.9792,0.9792,0.9792,0.9792,0.9792,0.9792,0.9792,0.9792,0.9792,0.9792,0.9359,0.831,0.519,0.2831,0.1725,0.0617,0.0,0.0,0.0,0.0,0.0,0.0,0.0,0.0,0.0,0.0,0.0,0.0,0.0,0.842,0.8516,0.8652,0.8727,0.8716,0.871,0.871,0.8727,0.8747,0.872,0.8804,0.8912,0.8912,0.8912,0.8912,0.0,0.0,0.8912,0.0,0.9018,0.9104,0.9104,0.9344,0.951,0.9466,0.9452,0.9513,0.9673,0.9588,0.9612,0.9781,0.9842,0.9846,0.9792,0.9842,0.9846,0.9792,0.9792,0.9792,0.9792,0.9792,0.9792,0.9792,0.9792,0.9792,0.9792,0.9792,0.9792,0.9792,0.9792,0.9792,0.9792,0.9792,0.9792,0.9792,0.9792,0.9792,0.9792,0.9792,0.9792,0.9781,0.9734,0.9714,0.972,0.9574,0.9591,0.9646,0.9554,0.9632,0.9714,0.9714,0.9754,0.9792,0.9792,0.9792,0.9792,0.9792,0.9792,0.9792,0.9792,0.9792,0.9792,0.9792,0.9792,0.9792,0.9792,0.9792,0.9792,0.9792,0.9792,0.9792,0.9792,0.9792,0.9143,0.7543,0.4913,0.3108,0.2524,0.0925,0.0,0.0,0.0,0.0,0.0,0.0,0.0,0.0,0.0,0.0,0.0,0.0,0.0]},{"header":{"parameterUnit":"m.s-1","parameterCategory":1,"la1":30.6,"la2":29.2853,"lo1":-89.7004,"lo2":-87.6739,"dy":0.0162,"dx":0.0183,"nx":112,"ny":82,"refTime":"2024-08-31T18:00:00:Z","depth":0,"parameterNumber":3,"parameterNumberName":"V-component_of_WINDS"},"data":[0.0,0.0,0.0,0.0,0.0,0.0,0.0,0.0,0.0,0.0,0.0,0.0,0.0,0.0,0.0,0.0,0.0,0.0,0.0,0.0,0.0,0.0,0.0,0.0,0.0,0.0,0.0,0.0,0.0,0.0,0.0,0.0,0.0,0.0,0.0,0.0,0.0,0.0,0.0,0.0,0.0,0.0,0.0,0.0,0.0,0.0,0.0,0.0,0.0,0.0,0.0,0.0,0.0,0.0,0.0,0.0,0.0,0.0,0.0,0.0,0.0,0.0,0.0,0.0,0.0,0.0,0.0,0.0,0.0,0.0,0.0,0.0,0.0,0.0,0.0,0.0,0.0,0.0,0.0,0.0,0.0,0.0,0.0,0.0,0.0,0.0,0.0,0.0,0.0,0.0,3.004,3.0091,2.9123,2.8396,2.8225,2.8208,2.7855,2.7016,0.0,0.0,0.0,0.0,0.0,0.0,0.0,0.0,0.0,0.0,0.0,0.0,0.0,0.0,0.0,0.0,0.0,0.0,0.0,0.0,0.0,0.0,0.0,0.0,0.0,0.0,0.0,0.0,0.0,0.0,0.0,0.0,0.0,0.0,0.0,0.0,0.0,0.0,0.0,0.0,0.0,0.0,0.0,0.0,0.0,0.0,0.0,0.0,0.0,0.0,0.0,0.0,0.0,0.0,0.0,0.0,0.0,0.0,0.0,0.0,0.0,0.0,0.0,0.0,0.0,0.0,0.0,0.0,0.0,0.0,0.0,0.0,0.0,0.0,0.0,0.0,0.0,0.0,0.0,0.0,0.0,0.0,0.0,0.0,0.0,0.0,0.0,0.0,0.0,0.0,0.0,0.0,0.0,0.0,0.0,0.0,0.0,0.0,0.0,0.0,0.0,0.0,0.0,0.0,2.841,2.8746,2.7685,2.6922,2.6895,2.6889,2.6605,2.5966,0.0,0.0,0.0,0.0,0.0,0.0,0.0,0.0,0.0,0.0,0.0,0.0,0.0,0.0,0.0,0.0,0.0,0.0,0.0,0.0,0.0,0.0,0.0,0.0,0.0,0.0,0.0,0.0,0.0,0.0,0.0,0.0,0.0,0.0,0.0,0.0,0.0,0.0,0.0,0.0,0.0,0.0,0.0,0.0,0.0,0.0,0.0,0.0,0.0,0.0,0.0,0.0,0.0,0.0,0.0,0.0,0.0,0.0,0.0,0.0,0.0,0.0,0.0,0.0,0.0,0.0,0.0,0.0,0.0,0.0,0.0,0.0,0.0,0.0,0.0,0.0,0.0,0.0,0.0,0.0,0.0,0.0,0.0,0.0,0.0,0.0,0.0,0.0,0.0,0.0,0.0,0.0,0.0,0.0,0.0,0.0,0.0,0.0,0.0,0.0,0.0,0.0,0.0,2.9331,2.8684,2.7723,2.7107,2.6547,2.6009,2.5957,2.5824,2.555,2.5973,0.0,0.0,0.0,0.0,0.0,0.0,0.0,0.0,0.0,0.0,0.0,0.0,0.0,0.0,0.0,0.0,0.0,0.0,0.0,0.0,0.0,0.0,0.0,0.0,0.0,0.0,0.0,0.0,0.0,0.0,0.0,0.0,0.0,0.0,0.0,0.0,0.0,0.0,0.0,0.0,0.0,0.0,0.0,0.0,0.0,0.0,0.0,0.0,0.0,0.0,0.0,0.0,0.0,0.0,0.0,0.0,0.0,0.0,0.0,0.0,0.0,0.0,0.0,0.0,0.0,0.0,0.0,0.0,0.0,0.0,0.0,0.0,0.0,0.0,0.0,0.0,0.0,0.0,0.0,0.0,0.0,0.0,0.0,0.0,0.0,0.0,0.0,0.0,0.0,0.0,0.0,0.0,0.0,0.0,0.0,0.0,0.0,0.0,0.0,0.0,0.0,0.0,3.0213,2.9103,2.7111,2.6684,2.6162,2.5192,2.5288,2.5324,2.5136,2.5306,0.0,0.0,0.0,0.0,0.0,0.0,0.0,0.0,0.0,0.0,0.0,0.0,0.0,0.0,0.0,0.0,0.0,0.0,0.0,0.0,0.0,0.0,0.0,0.0,0.0,0.0,0.0,0.0,0.0,0.0,0.0,0.0,0.0,0.0,0.0,0.0,0.0,0.0,0.0,0.0,0.0,0.0,0.0,0.0,0.0,0.0,0.0,0.0,0.0,0.0,0.0,0.0,0.0,0.0,0.0,0.0,0.0,0.0,0.0,0.0,0.0,0.0,0.0,0.0,0.0,0.0,0.0,0.0,0.0,0.0,0.0,0.0,0.0,0.0,0.0,0.0,0.0,0.0,0.0,0.0,0.0,0.0,0.0,0.0,0.0,0.0,0.0,0.0,0.0,0.0,0.0,0.0,0.0,0.0,0.0,0.0,0.0,0.0,0.0,0.0,0.0,0.0,2.9255,2.8781,2.707,2.6059,2.5179,2.4341,2.497,2.5081,2.4323,2.4989,0.0,0.0,0.0,0.0,0.0,0.0,0.0,0.0,0.0,0.0,0.0,0.0,0.0,0.0,0.0,0.0,0.0,0.0,0.0,0.0,0.0,0.0,0.0,0.0,0.0,0.0,0.0,0.0,0.0,0.0,0.0,0.0,0.0,0.0,0.0,0.0,0.0,0.0,0.0,0.0,0.0,0.0,0.0,0.0,0.0,0.0,0.0,0.0,0.0,0.0,0.0,0.0,0.0,0.0,0.0,0.0,0.0,0.0,0.0,0.0,0.0,0.0,0.0,0.0,0.0,0.0,0.0,0.0,0.0,0.0,0.0,0.0,0.0,0.0,0.0,0.0,0.0,0.0,0.0,0.0,0.0,0.0,0.0,0.0,0.0,0.0,0.0,0.0,0.0,0.0,0.0,0.0,0.0,0.0,0.0,0.0,0.0,0.0,0.0,0.0,0.0,0.0,2.952,2.89,2.6928,2.5936,2.5062,2.4268,2.4488,2.4525,2.4213,0.0,0.0,0.0,0.0,0.0,0.0,0.0,0.0,0.0,0.0,0.0,0.0,0.0,0.0,0.0,0.0,0.0,0.0,0.0,0.0,0.0,0.0,0.0,0.0,0.0,0.0,0.0,0.0,0.0,0.0,0.0,0.0,0.0,0.0,0.0,0.0,0.0,0.0,0.0,0.0,0.0,0.0,0.0,0.0,0.0,0.0,0.0,0.0,0.0,0.0,0.0,0.0,0.0,0.0,0.0,0.0,0.0,0.0,0.0,0.0,0.0,0.0,0.0,0.0,0.0,0.0,0.0,0.0,0.0,0.0,0.0,0.0,0.0,0.0,0.0,0.0,0.0,0.0,0.0,0.0,0.0,0.0,0.0,0.0,0.0,0.0,0.0,0.0,0.0,0.0,0.0,0.0,0.0,0.0,0.0,0.0,0.0,0.0,0.0,0.0,0.0,0.0,2.9664,2.9828,2.9071,2.6838,2.5883,2.5062,2.4268,2.4194,2.4194,2.4194,0.0,0.0,0.0,0.0,0.0,0.0,0.0,0.0,0.0,0.0,0.0,0.0,0.0,0.0,0.0,0.0,0.0,0.0,0.0,0.0,0.0,0.0,0.0,0.0,0.0,0.0,0.0,0.0,0.0,0.0,0.0,0.0,0.0,0.0,0.0,0.0,0.0,0.0,0.0,0.0,0.0,0.0,0.0,0.0,0.0,0.0,0.0,0.0,0.0,0.0,0.0,0.0,0.0,0.0,0.0,0.0,0.0,0.0,0.0,0.0,0.0,0.0,0.0,0.0,0.0,0.0,0.0,0.0,0.0,0.0,0.0,0.0,0.0,0.0,0.0,0.0,0.0,0.0,0.0,0.0,0.0,0.0,0.0,0.0,0.0,0.0,0.0,0.0,0.0,0.0,0.0,0.0,0.0,0.0,0.0,0.0,0.0,0.0,0.0,0.0,0.0,0.0,2.9696,2.9981,2.9274,2.6864,2.5883,2.5062,2.4268,2.4194,2.4194,0.0,0.0,0.0,0.0,0.0,0.0,0.0,0.0,0.0,0.0,0.0,0.0,0.0,0.0,0.0,0.0,0.0,0.0,0.0,0.0,0.0,0.0,0.0,0.0,0.0,0.0,0.0,0.0,0.0,0.0,0.0,0.0,0.0,0.0,0.0,0.0,0.0,0.0,0.0,0.0,0.0,0.0,0.0,0.0,0.0,0.0,0.0,0.0,0.0,0.0,0.0,0.0,0.0,0.0,0.0,0.0,0.0,0.0,0.0,0.0,0.0,0.0,0.0,0.0,0.0,0.0,0.0,0.0,0.0,0.0,0.0,0.0,0.0,0.0,0.0,0.0,0.0,0.0,0.0,0.0,0.0,0.0,0.0,0.0,0.0,0.0,0.0,0.0,0.0,0.0,0.0,0.0,0.0,0.0,0.0,0.0,0.0,0.0,0.0,0.0,0.0,0.0,0.0,2.9647,2.9662,2.8868,2.6817,2.5883,2.5062,2.4268,2.4194,2.4194,2.4194,0.0,0.0,0.0,0.0,0.0,0.0,0.0,0.0,0.0,0.0,0.0,0.0,0.0,0.0,0.0,0.0,0.0,0.0,0.0,0.0,0.0,0.0,0.0,0.0,0.0,0.0,0.0,0.0,0.0,0.0,0.0,0.0,0.0,0.0,0.0,0.0,0.0,0.0,0.0,0.0,0.0,0.0,0.0,0.0,0.0,0.0,0.0,0.0,0.0,0.0,0.0,0.0,0.0,0.0,0.0,0.0,0.0,0.0,0.0,0.0,0.0,0.0,0.0,0.0,0.0,0.0,0.0,0.0,0.0,0.0,0.0,0.0,0.0,0.0,0.0,0.0,0.0,0.0,0.0,0.0,0.0,0.0,0.0,0.0,0.0,0.0,0.0,0.0,0.0,0.0,0.0,0.0,0.0,0.0,0.0,0.0,0.0,0.0,0.0,0.0,0.0,0.0,2.9494,2.9382,2.8566,2.6793,2.5883,2.5062,2.4268,2.4194,2.4194,2.4194,0.0,0.0,0.0,0.0,0.0,0.0,0.0,0.0,0.0,0.0,0.0,0.0,0.0,0.0,0.0,0.0,0.0,0.0,0.0,0.0,0.0,0.0,0.0,0.0,0.0,0.0,0.0,0.0,0.0,0.0,0.0,0.0,0.0,0.0,0.0,0.0,0.0,0.0,0.0,0.0,0.0,0.0,0.0,0.0,0.0,0.0,0.0,0.0,0.0,0.0,0.0,0.0,0.0,0.0,0.0,0.0,0.0,0.0,0.0,0.0,0.0,0.0,0.0,0.0,0.0,0.0,0.0,0.0,0.0,0.0,0.0,0.0,0.0,0.0,0.0,0.0,0.0,0.0,0.0,0.0,0.0,0.0,0.0,0.0,0.0,0.0,0.0,0.0,0.0,0.0,0.0,0.0,0.0,0.0,0.0,0.0,0.0,0.0,0.0,0.0,0.0,0.0,2.9316,2.9173,2.8381,2.6772,2.5883,2.5062,2.4268,2.4194,2.4194,2.4194,0.0,0.0,0.0,0.0,0.0,0.0,0.0,0.0,0.0,0.0,0.0,0.0,0.0,0.0,0.0,0.0,0.0,0.0,0.0,0.0,0.0,0.0,0.0,0.0,0.0,0.0,0.0,0.0,0.0,0.0,0.0,0.0,0.0,0.0,0.0,0.0,0.0,0.0,0.0,0.0,0.0,0.0,0.0,0.0,0.0,0.0,0.0,0.0,0.0,0.0,0.0,0.0,0.0,0.0,0.0,0.0,0.0,0.0,0.0,0.0,3.1192,2.9788,0.0,0.0,0.0,0.0,0.0,0.0,0.0,0.0,0.0,0.0,0.0,0.0,0.0,0.0,0.0,0.0,0.0,0.0,0.0,0.0,0.0,0.0,0.0,0.0,0.0,0.0,0.0,0.0,0.0,0.0,0.0,0.0,0.0,0.0,0.0,0.0,0.0,0.0,0.0,0.0,2.9395,2.9173,2.8381,2.6772,2.5883,2.5062,2.4268,2.4194,2.4194,2.4194,2.4194,0.0,0.0,0.0,0.0,0.0,0.0,0.0,0.0,0.0,0.0,0.0,0.0,0.0,0.0,0.0,0.0,0.0,0.0,0.0,0.0,0.0,0.0,0.0,0.0,0.0,0.0,0.0,0.0,0.0,0.0,0.0,0.0,0.0,0.0,0.0,0.0,0.0,0.0,0.0,0.0,0.0,0.0,0.0,0.0,0.0,0.0,0.0,0.0,0.0,0.0,0.0,0.0,0.0,0.0,0.0,0.0,0.0,0.0,0.0,3.3718,3.2676,0.0,0.0,0.0,0.0,0.0,0.0,0.0,0.0,0.0,0.0,0.0,0.0,0.0,0.0,0.0,0.0,0.0,0.0,0.0,0.0,0.0,0.0,0.0,0.0,0.0,0.0,0.0,0.0,0.0,0.0,0.0,0.0,0.0,0.0,0.0,0.0,0.0,0.0,0.0,0.0,2.9414,2.9173,2.8381,2.6772,2.5883,2.5062,2.4268,2.4194,2.4194,2.4194,2.4562,0.0,0.0,0.0,0.0,0.0,0.0,0.0,0.0,0.0,0.0,0.0,0.0,0.0,0.0,0.0,0.0,0.0,0.0,0.0,0.0,0.0,0.0,0.0,0.0,0.0,0.0,0.0,0.0,0.0,0.0,0.0,0.0,0.0,0.0,0.0,0.0,0.0,0.0,0.0,0.0,0.0,0.0,0.0,0.0,0.0,0.0,0.0,0.0,0.0,0.0,0.0,0.0,0.0,4.0646,4.03,3.9473,3.8761,3.843,3.8315,3.6203,3.5914,3.683,3.5606,0.0,0.0,0.0,0.0,0.0,0.0,0.0,0.0,0.0,0.0,0.0,0.0,0.0,0.0,0.0,0.0,0.0,0.0,0.0,0.0,0.0,0.0,3.7196,3.6523,3.7988,3.8746,3.5918,0.0,0.0,0.0,0.0,0.0,0.0,0.0,0.0,0.0,0.0,0.0,2.9736,2.9487,2.8655,2.6856,2.5928,2.5103,2.4273,2.4194,2.4194,2.4194,2.4952,2.5471,0.0,0.0,0.0,0.0,0.0,0.0,0.0,0.0,0.0,0.0,0.0,0.0,0.0,0.0,0.0,0.0,0.0,0.0,0.0,0.0,0.0,0.0,0.0,0.0,0.0,0.0,0.0,0.0,0.0,0.0,0.0,0.0,3.6428,3.7409,0.0,0.0,0.0,0.0,0.0,0.0,0.0,0.0,0.0,0.0,0.0,0.0,0.0,4.0342,4.0342,4.12,4.1258,4.0516,4.1277,4.1181,4.0342,4.0227,4.0169,4.015,3.9823,0.0,3.7873,3.8415,0.0,0.0,0.0,0.0,0.0,0.0,0.0,0.0,0.0,0.0,0.0,0.0,0.0,0.0,0.0,0.0,0.0,0.0,0.0,0.0,0.0,0.0,3.9973,3.9877,4.0092,4.0227,3.9765,3.8027,3.6696,3.7238,3.6254,3.4946,0.0,0.0,0.0,0.0,0.0,0.0,3.1001,3.0758,2.9739,2.7135,2.6144,2.5263,2.4287,2.4194,2.4194,2.4194,2.4952,2.5705,2.6405,2.6534,0.0,0.0,0.0,0.0,0.0,0.0,0.0,0.0,0.0,0.0,0.0,0.0,0.0,0.0,0.0,0.0,0.0,0.0,0.0,0.0,0.0,0.0,0.0,0.0,0.0,0.0,0.0,0.0,0.0,3.5832,3.7881,3.8691,3.8819,3.8661,0.0,0.0,0.0,0.0,0.0,0.0,0.0,0.0,0.0,4.12,4.2147,4.2647,4.2647,4.3008,4.3008,4.2628,4.2566,4.2066,4.1239,4.1239,4.0954,4.0535,4.1031,4.0546,3.9434,3.9819,3.9815,3.9485,0.0,0.0,0.0,0.0,3.9812,4.0273,4.12,4.1546,4.1393,4.045,0.0,0.0,0.0,0.0,0.0,0.0,0.0,3.8104,3.8607,3.9281,3.9938,4.04,4.0877,4.1239,4.1239,4.035,3.9408,3.8834,3.8507,3.7584,3.5315,3.4926,0.0,0.0,0.0,3.3169,3.1409,3.1453,3.0483,2.7401,2.6651,2.5827,2.449,2.4257,2.4194,2.4194,2.5388,2.6227,2.6589,2.7464,2.7892,0.0,0.0,0.0,0.0,0.0,0.0,0.0,0.0,0.0,0.0,0.0,0.0,0.0,0.0,0.0,0.0,0.0,0.0,0.0,0.0,0.0,0.0,0.0,0.0,0.0,0.0,0.0,0.0,3.7904,3.9386,4.025,4.0838,4.0839,0.0,0.0,0.0,0.0,0.0,0.0,4.1454,4.2085,4.2543,4.2777,4.397,4.4628,4.4628,4.4417,4.4201,4.397,4.3162,4.2316,4.147,4.147,4.1104,4.0535,4.1181,4.1239,4.0858,4.107,4.1412,4.1754,4.1339,4.1166,4.1262,4.2124,4.2446,4.2658,4.4124,4.4494,4.4124,4.3104,4.2485,4.1773,3.9873,0.0,0.0,0.0,0.0,3.88,3.9434,3.9608,3.9765,4.0362,4.0993,4.147,4.147,4.147,4.1162,4.0146,4.0242,3.9646,3.6946,3.6292,0.0,3.4103,3.389,3.3375,3.1911,3.1922,3.093,2.7926,2.7296,2.6481,2.5009,2.4565,2.4413,2.4565,2.5896,2.6749,2.6906,2.8253,2.8827,2.8417,0.0,0.0,0.0,0.0,0.0,0.0,0.0,0.0,0.0,0.0,0.0,0.0,0.0,0.0,0.0,0.0,0.0,0.0,0.0,0.0,0.0,0.0,0.0,0.0,0.0,0.0,0.0,0.0,0.0,4.281,4.2955,0.0,0.0,0.0,0.0,4.1677,4.2489,4.3297,4.407,4.4143,4.4551,4.5379,4.5494,4.5532,4.5532,4.4705,4.3912,4.3143,4.2273,4.1412,4.0573,4.0573,4.0535,4.0496,4.0554,4.1012,4.1793,4.2624,4.2508,4.1889,4.2662,4.297,4.3066,4.3874,4.4162,4.4297,4.5225,4.4994,4.4417,4.5167,4.434,4.3008,4.2874,4.1685,0.0,0.0,4.0342,4.0381,4.0439,4.0439,4.0458,4.0496,4.0535,4.0573,4.0573,4.0573,4.0781,4.1523,4.1046,4.0208,3.9261,0.0,3.7565,3.6657,3.5173,3.3843,3.2936,3.2177,3.0951,2.893,2.8037,2.712,2.6016,2.5212,2.5016,2.5586,2.6419,2.7135,2.7712,2.8552,2.9335,3.0063,3.0081,0.0,0.0,0.0,0.0,0.0,0.0,0.0,0.0,0.0,0.0,0.0,0.0,0.0,0.0,0.0,0.0,0.0,0.0,0.0,0.0,0.0,0.0,0.0,0.0,0.0,0.0,0.0,0.0,4.3123,4.3578,0.0,4.272,4.3104,4.3412,4.3412,4.4224,4.4821,4.5128,4.5148,4.5282,4.5594,4.5594,4.5594,4.5594,4.4224,4.3374,4.3085,4.1643,4.08,4.0496,4.0496,4.0496,4.0496,4.0496,4.0685,4.1031,4.1893,4.2408,4.272,4.3547,4.3874,4.3912,4.4182,4.4297,4.4259,4.407,4.3797,4.3662,4.4494,4.4359,4.3778,4.3258,4.2277,4.1219,4.0666,4.0496,4.0496,4.0496,4.0496,4.0362,3.9842,3.9727,3.9727,3.9727,3.9727,3.9973,4.08,4.0704,4.0246,3.9434,3.8588,3.77,3.683,3.5276,3.3894,3.3006,3.2199,3.1007,2.9195,2.8623,2.8018,2.7108,2.6653,2.6491,2.6709,2.7311,2.7772,2.7985,2.8817,2.9638,3.0439,3.0633,3.0489,0.0,0.0,0.0,0.0,0.0,0.0,0.0,0.0,0.0,0.0,0.0,0.0,0.0,0.0,0.0,0.0,0.0,0.0,0.0,0.0,0.0,0.0,0.0,0.0,0.0,4.2892,4.3718,4.3718,4.4362,4.4488,4.364,4.4285,4.4744,4.4744,4.5263,4.5594,4.5594,4.5594,4.5594,4.5594,4.5594,4.5594,4.5594,4.3936,4.3104,4.3085,4.132,4.0496,4.0496,4.0496,4.0496,4.0496,4.0496,4.0534,4.0605,4.1131,4.174,4.2439,4.3485,4.3893,4.3893,4.3893,4.3893,4.3816,4.3278,4.3111,4.3223,4.3763,4.3963,4.3895,4.3357,4.2584,4.1782,4.1166,4.0786,4.0559,4.0512,4.0496,4.0304,3.9492,3.93,3.9223,3.8915,3.8857,3.9011,3.955,4.0112,4.0323,3.9804,3.8761,3.7796,3.7234,3.5449,3.3894,3.3006,3.2199,3.1141,2.9698,2.9157,2.8699,2.8157,2.7735,2.7585,2.7782,2.8139,2.8561,2.9055,2.9345,3.0154,3.1519,3.2005,3.2317,3.2426,0.0,0.0,0.0,0.0,0.0,0.0,0.0,0.0,0.0,0.0,0.0,0.0,0.0,0.0,0.0,0.0,0.0,0.0,0.0,0.0,0.0,0.0,0.0,4.3656,4.4275,4.4746,4.4746,4.5365,4.5461,4.4631,4.5191,4.5603,4.5603,4.5599,4.5594,4.5594,4.5594,4.5594,4.5603,4.5603,4.5607,4.5612,4.3976,4.3144,4.3087,4.1378,4.0535,4.0516,4.0516,4.0516,4.0516,4.0516,4.0579,4.0695,4.0551,4.0626,4.0952,4.2472,4.3078,4.3067,4.3067,4.3048,4.3029,4.3029,4.3095,4.3176,4.3176,4.3253,4.3352,4.3352,4.2752,4.2052,4.1984,4.1342,4.067,4.0545,4.0516,4.0304,3.9472,3.9261,3.903,3.816,3.7968,3.7983,3.7999,3.9307,4.0423,4.0419,3.905,3.7969,3.7969,3.5818,0.0,3.3045,3.2218,3.1388,3.0538,2.966,2.9146,2.9146,2.8451,2.827,2.8849,2.8907,2.9566,3.1027,3.0278,3.0981,3.3455,3.4324,3.5185,3.6056,0.0,0.0,0.0,0.0,0.0,0.0,0.0,0.0,0.0,0.0,0.0,0.0,0.0,0.0,0.0,0.0,0.0,0.0,0.0,0.0,0.0,4.3516,4.4648,4.4626,4.5242,4.5713,4.5713,4.5807,4.5772,4.5539,4.5657,4.5743,4.5743,4.5644,4.5594,4.5594,4.5594,4.5647,4.574,4.5743,4.577,4.5828,4.4788,4.3934,4.3305,4.2187,4.133,4.0721,4.0721,4.0721,4.0721,4.0721,4.074,4.0768,4.0735,4.0742,4.09,4.191,4.2324,4.236,4.236,4.1974,4.1434,4.1434,4.1864,4.2396,4.2396,4.2436,4.2462,4.2462,4.1844,4.1141,4.1148,4.0965,4.0764,4.073,4.0721,4.0354,3.892,3.8566,3.8348,3.7468,3.7271,3.7439,3.7961,3.8443,3.8733,3.8706,3.7777,3.7061,3.7061,3.543,3.4106,3.3875,3.2583,3.1618,3.1368,3.0561,3.0041,3.0041,3.0426,3.0738,3.0887,3.1303,3.1997,3.3001,3.2802,3.3653,3.576,3.5878,3.6347,0.0,0.0,0.0,0.0,0.0,0.0,0.0,0.0,0.0,0.0,0.0,0.0,0.0,0.0,0.0,0.0,0.0,0.0,0.0,0.0,0.0,0.0,4.4648,4.5547,4.5547,4.5913,4.6177,4.6177,4.6073,4.5985,4.5985,4.5906,4.5842,4.5842,4.5777,4.5736,4.5736,4.5736,4.5764,4.5839,4.5842,4.5863,4.5899,4.5107,4.4448,4.3938,4.3066,4.219,4.1348,4.1348,4.1151,4.0799,4.0799,4.0824,4.0875,4.0816,4.0865,4.0992,0.0,0.0,0.0,0.0,4.1223,4.0799,4.0799,4.1174,4.1633,4.1633,4.1676,4.1719,4.1719,4.137,4.0957,4.0907,4.0878,4.0869,4.0811,4.0799,4.047,3.9155,3.8841,3.8507,3.7278,3.7297,3.7555,3.7624,3.7926,0.0,3.8139,3.7328,3.6696,3.6696,3.558,3.4603,3.4241,3.3356,3.2602,3.2237,3.1753,3.1445,3.1445,3.1907,0.0,0.0,0.0,3.3634,3.4477,3.5193,0.0,0.0,0.0,0.0,0.0,0.0,0.0,0.0,4.0079,4.0316,0.0,0.0,0.0,0.0,0.0,0.0,0.0,0.0,0.0,0.0,0.0,0.0,0.0,0.0,0.0,0.0,4.5723,4.6308,4.6308,4.6308,4.6308,4.6308,4.6199,4.6119,4.6119,4.5997,4.592,4.592,4.5907,4.5901,4.5901,4.5901,0.0,0.0,0.0,4.5926,4.5938,4.5241,4.4834,4.4717,4.3943,4.3123,4.2282,4.2282,4.185,4.1126,4.1126,4.1149,4.1157,4.1021,4.1068,4.1171,4.0948,4.0852,4.0852,4.0852,4.0852,4.0852,4.0852,0.0,0.0,4.1024,4.1104,4.1191,4.1191,4.1191,4.1171,4.1054,4.1024,4.0994,4.0872,4.0852,4.0639,3.9831,3.9638,3.9171,3.7535,3.7791,3.8101,3.7308,3.7777,3.8303,3.8294,3.743,3.6719,3.6719,3.6045,3.5249,3.4466,3.4273,3.3917,3.3125,3.2968,0.0,3.2891,3.2987,3.3083,3.3199,3.4183,3.5126,3.5907,3.7542,3.8796,3.9569,4.0377,4.1608,4.3239,4.3239,4.3643,4.4389,4.1535,4.1035,0.0,0.0,0.0,0.0,0.0,0.0,0.0,0.0,0.0,0.0,0.0,0.0,0.0,0.0,0.0,4.4961,4.5723,4.6308,4.6308,4.6308,4.6308,4.6308,4.6288,4.6268,4.6268,4.6144,4.6051,4.6051,4.5969,4.5901,4.5901,4.5901,4.594,4.6069,4.6051,4.6115,4.6224,4.6068,4.5638,4.4935,4.4779,0.0,4.3393,4.3393,4.3295,4.3139,4.3139,4.275,4.2127,4.2105,4.1736,4.1191,4.1149,4.1127,4.1127,4.1127,4.1127,4.1127,4.1127,4.1149,4.1151,4.1151,4.1171,4.1191,4.1191,4.1191,0.0,4.1171,4.1151,4.115,4.1128,4.1127,4.0912,4.0053,3.9839,3.9565,3.8511,3.8413,3.8467,3.8183,3.8274,3.8357,3.8304,3.7535,3.6938,3.6938,3.6213,3.5575,3.5352,3.472,3.4193,3.3968,3.3317,3.2891,3.2891,3.3548,3.4257,3.4942,3.7084,3.8396,3.8569,4.0181,4.1139,4.1312,4.2162,4.3085,4.4066,4.4066,4.4513,4.5321,4.4016,4.3952,0.0,0.0,0.0,0.0,0.0,0.0,0.0,0.0,0.0,0.0,0.0,4.3691,4.3691,0.0,4.5644,4.5644,4.6016,4.6308,4.6308,4.6308,4.6308,4.6308,4.6308,4.6308,4.6308,4.6246,4.62,4.62,4.6144,4.6109,4.6109,4.6109,4.6121,4.62,4.62,4.6225,4.6308,4.6308,4.6074,4.5644,4.5644,4.5195,4.4355,4.4355,4.4101,4.3691,4.3691,4.3457,4.3047,4.3047,4.2558,4.1797,4.1797,4.1543,4.1191,4.1191,4.1191,4.1191,4.1191,4.1191,4.1191,4.1191,4.1191,4.1191,4.1191,4.1191,4.1191,4.1191,4.1191,4.1191,4.1191,4.1191,4.1094,4.0644,4.0547,4.0312,3.9434,3.959,3.9746,3.9252,3.9504,3.9793,3.9759,3.9031,3.8273,3.7736,3.6901,3.6335,3.6302,3.5536,3.4964,3.4902,3.4518,3.4409,3.4763,3.5603,3.6469,3.7353,3.8607,3.9473,3.9881,4.0704,4.1566,4.2427,4.2874,4.3701,4.4955,4.4955,4.5167,4.5594,4.5148,4.5186,0.0,0.0,0.0,0.0,0.0,0.0,0.0,4.2558,4.2949,4.3125,4.4277,4.5254,4.5254,4.582,4.6308,4.6308,4.6308,4.6308,4.6308,4.6308,4.6308,4.6308,4.6308,4.6308,4.6308,4.6308,4.6308,4.6308,4.6308,4.6308,4.6308,4.6308,4.6308,4.6308,4.6308,4.6308,4.6308,4.6308,4.6308,4.6308,4.6308,4.5937,4.5254,4.5254,4.4863,4.4199,4.4023,4.3945,4.3945,4.3769,4.3281,4.2656,4.2656,4.2266,4.1641,4.1328,4.1191,4.1191,4.1191,4.1191,4.1191,4.1191,4.1191,4.1191,4.1191,4.1191,4.1191,4.1191,4.1191,4.1191,4.1191,4.1191,4.1191,4.1191,4.1191,4.1016,4.0293,4.0703,4.0996,4.0293,4.0723,4.1191,4.1191,4.0625,3.9801,3.8763,3.7867,3.7294,3.7278,3.6651,3.6206,3.6134,3.612,3.6353,3.6945,3.776,3.855,3.9261,3.9454,3.9823,4.0477,4.0823,4.1666,4.3066,4.3412,4.4244,4.5594,4.5594,4.5594,4.5594,4.5594,4.5594,4.3906,4.3633,4.3711,4.4394,4.3984,4.3828,0.0,4.5195,4.4922,4.5703,4.6016,4.6152,4.6152,4.623,4.6308,4.6308,4.6308,4.6308,4.6308,4.6308,4.6308,4.6308,4.6308,4.6308,4.6308,4.6308,4.6308,4.6308,4.6308,4.6308,4.6308,4.6308,4.6308,4.6308,4.6308,4.6308,4.6308,4.6308,4.6308,4.6308,4.6308,4.625,4.6152,4.6152,4.6094,4.5976,4.5195,4.4844,4.4785,4.4023,4.3633,4.3555,4.3555,4.3496,4.3242,4.1758,4.1191,4.1191,4.1191,4.1191,4.1191,4.1191,4.1191,4.1191,4.1191,4.1191,4.1191,4.1191,4.1191,4.1191,4.1191,4.1191,4.1191,4.1191,4.1191,4.1172,4.1074,4.1133,4.1172,4.1074,4.1133,4.1191,4.1191,4.1113,4.0742,3.9862,3.8983,3.8373,3.8265,3.8162,3.8064,3.8012,3.8003,3.8017,3.8034,3.8729,3.9204,3.9281,3.9977,4.0419,4.0496,4.1993,4.2893,4.3104,4.4551,4.5417,4.5594,4.5594,4.5594,4.5594,4.5594,4.5594,4.5039,4.5215,4.5293,4.5664,4.5488,4.5391,4.6133,4.6016,4.5859,4.6211,4.6308,4.6308,4.6308,4.6308,4.6308,4.6308,4.6308,4.6308,4.6308,4.6308,4.6308,4.6308,4.6308,4.6308,4.6308,4.6308,4.6308,4.6308,4.6308,4.6308,4.6308,4.6308,4.6308,4.6308,4.6308,4.6308,4.6308,4.6308,4.6308,4.6308,4.6308,4.6308,4.6308,4.6308,4.6308,4.6289,4.5918,4.5762,4.5723,4.5351,4.4902,4.4453,4.4453,4.4141,4.3613,4.291,4.2656,4.2656,4.2656,4.2324,4.1894,4.1894,4.1582,4.1191,4.1191,4.1191,4.1191,4.1191,4.1191,4.1191,4.1191,4.1191,4.1191,4.1191,4.1191,4.1191,4.1191,4.1191,4.1191,4.1191,4.1191,4.1191,4.1191,4.1191,4.1074,4.0703,3.9902,3.9335,3.9272,3.8822,3.8481,3.8379,3.8784,3.905,3.9021,3.9735,4.0161,4.0124,4.0906,4.134,4.1262,4.2431,4.3316,4.3797,4.4494,4.509,4.5594,4.5594,4.5594,4.5594,4.5594,4.5594,4.5957,4.6308,4.6308,4.6308,4.6308,4.6308,4.6308,4.6308,4.6308,4.6308,4.6308,4.6308,4.6308,4.6308,4.6289,4.6247,4.6247,4.6225,4.6199,4.6198,4.6198,4.6198,4.6198,4.6198,4.6198,4.6267,4.6308,4.6308,4.6308,4.6308,4.6308,4.6308,4.6308,4.6308,4.6308,4.6289,4.6247,4.6289,4.6268,4.6198,4.6225,4.6224,4.6198,4.6198,4.6198,4.6198,4.6198,4.6198,4.6198,4.6198,4.5827,4.524,4.524,4.4869,4.4302,4.4302,4.4058,4.3691,4.3691,4.3281,4.2754,4.2754,4.2363,4.1894,4.1894,4.1894,4.1894,4.1894,4.1894,4.1894,4.1894,4.1894,4.1894,4.1894,4.1894,4.1816,4.1582,4.1523,4.1465,4.123,4.1191,4.1191,4.1191,4.1387,4.1523,4.1523,4.1191,4.0781,4.0312,3.9707,3.9276,3.9185,3.9666,3.9994,3.9994,4.0705,4.1136,4.1083,4.189,4.2348,4.2246,4.3088,4.3822,4.4402,4.463,4.5055,4.5673,4.5673,4.5673,4.5673,4.5673,4.5673,4.6289,4.6308,4.6308,4.6308,4.6308,4.6308,4.6308,4.6308,4.6308,4.6308,4.6308,4.6308,4.6308,4.6308,4.6267,4.6139,4.6112,4.6051,4.5926,4.591,4.591,4.591,4.591,4.591,4.591,4.6146,4.6308,4.6308,4.6308,4.6308,4.6308,4.6308,4.6308,4.6308,4.6308,4.6246,4.6112,4.6245,4.6173,4.5912,4.6042,4.6039,4.591,4.591,4.591,4.591,4.591,4.591,4.591,4.591,4.589,4.5871,4.5871,4.5851,4.5832,4.5832,4.4925,4.3691,4.3691,4.3672,4.3652,4.3652,4.3633,4.3613,4.3613,4.3613,4.3613,4.3613,4.3613,4.3613,4.3613,4.3613,4.3613,4.3613,4.3613,4.3398,4.2558,4.2363,4.2129,4.1348,4.1191,4.1191,4.1191,4.1855,4.2363,4.2363,4.3066,4.3008,4.1367,4.1133,4.1113,4.1113,4.102,4.0954,4.0954,4.1635,4.2052,4.2068,4.2872,4.336,4.3356,4.4189,4.4654,4.4692,4.5445,4.5851,4.589,4.589,4.589,4.589,4.589,4.589,4.5273,4.5859,4.6289,4.6198,4.6172,4.6145,4.6049,4.6036,4.6036,4.6036,4.6036,4.6036,4.6036,4.6036,4.6029,4.5978,4.5974,4.5942,4.5905,4.6402,4.6558,4.5977,4.6921,4.7172,4.6016,4.5983,4.6036,4.6036,4.6036,4.6036,4.6036,4.6036,4.6036,4.6036,4.6036,4.6005,4.5974,4.6003,4.5988,4.5901,4.5957,4.5936,4.5901,4.5901,4.5901,4.5901,4.5901,4.5901,4.5901,4.5901,4.5901,4.5901,4.5901,4.5901,4.5901,4.5901,4.5593,4.5156,4.5156,4.4805,4.4354,4.4354,4.3962,4.3522,4.3604,4.3632,4.3637,4.3691,4.3691,4.3691,4.3691,4.3691,4.3691,4.3691,4.3691,4.3613,4.332,4.3262,4.3183,4.291,4.2851,4.2851,4.2851,4.3086,4.3262,4.3262,4.3516,4.3281,4.2148,4.1992,4.1797,4.1269,4.1639,4.1929,4.1929,4.2684,4.3136,4.31,4.3875,4.4319,4.4259,4.5069,4.5495,4.5495,4.5765,4.5901,4.5901,4.5901,4.5901,4.5901,4.5901,4.5901,4.5173,4.5739,4.6143,4.6046,4.6033,4.6019,4.5916,4.5901,4.5901,4.5901,4.5901,4.5901,4.5901,4.5901,4.5983,4.6243,4.6293,4.6391,4.6647,4.7178,4.7313,4.6754,4.7676,4.7924,4.679,4.6696,4.6607,4.6376,4.6364,4.6364,4.6364,4.6074,4.5901,4.5901,4.5901,4.5898,4.5852,4.5898,4.5898,4.5852,4.582,4.5794,4.5794,4.5794,4.5794,4.5794,4.5794,4.5794,4.5794,4.5794,4.5794,4.5794,4.5794,4.5794,4.5794,4.5794,4.5794,4.5808,4.5889,4.5566,4.5136,4.5136,4.4744,4.4308,4.4392,4.4429,4.444,4.4461,4.4489,4.4492,4.4543,4.4565,4.4566,4.4629,4.4629,4.4531,4.4238,4.416,4.4062,4.3769,4.3691,4.3691,4.3691,4.3965,4.4277,4.457,4.4629,4.4199,4.3027,4.2851,4.2676,4.2148,4.2558,4.2851,4.2851,4.3652,4.4159,4.4107,4.4885,4.5322,4.5267,4.577,4.6042,4.6042,4.6042,4.6042,4.6042,4.6042,4.6042,4.6042,4.6042,4.6042,4.584,4.5862,4.5899,4.5892,4.5892,4.589,4.5883,4.5881,4.5881,4.5881,4.5881,4.5881,4.5881,4.592,4.6187,4.6881,4.7027,4.7291,4.7998,4.8139,4.8139,4.8101,4.8178,4.8197,4.8101,4.8178,4.797,4.7351,4.7274,4.7255,4.7255,4.6423,4.5959,4.5959,4.59,4.5841,4.579,4.5858,4.5858,4.5783,4.5657,4.5594,4.5594,4.5594,4.5594,4.5594,4.5594,4.5594,4.5594,4.5594,4.5594,4.5594,4.5594,4.5594,4.5594,4.5594,4.5594,4.5635,4.5811,4.5881,4.5881,4.5881,4.5881,4.5883,4.589,4.5892,4.5892,4.5899,4.5901,4.5924,4.6068,4.6084,4.6119,4.6267,4.6289,4.6074,4.5234,4.5078,4.4824,4.3984,4.3828,4.3828,4.3828,4.4512,4.5351,4.6172,4.6308,4.5683,4.3984,4.3769,4.375,4.3691,4.373,4.3769,4.3769,4.457,4.5078,4.5078,4.584,4.6308,4.6308,4.6308,4.6308,4.6308,4.6308,4.6308,4.6308,4.6308,4.6308,4.6308,4.6308,4.6308,4.5017,4.5449,4.5898,4.5833,4.5823,4.5793,4.5695,4.5681,4.5681,4.5681,4.5681,4.5681,4.5681,4.6214,4.6715,4.6889,4.7435,4.7899,4.8072,4.8663,4.8836,4.8178,4.924,4.9529,4.8235,4.926,4.9696,4.8904,4.8236,4.787,4.787,4.7098,4.6654,4.6654,4.6024,4.5677,4.566,4.5673,4.5673,4.566,4.562,4.5594,4.5594,4.5594,4.5594,4.5594,4.5594,4.5594,4.5594,4.5594,4.5594,4.5594,4.5594,4.5594,4.5594,4.5594,4.5594,4.5607,4.5665,4.5681,4.5681,4.5681,4.5681,4.5707,4.5806,4.5823,4.585,4.5893,4.5901,4.5907,4.5934,4.5942,4.5987,4.6117,4.6148,4.6117,4.5995,4.5976,4.5898,4.5683,4.5644,4.5644,4.5644,4.582,4.6035,4.6269,4.6308,4.5898,4.4805,4.4668,4.4414,4.3769,4.4277,4.4668,4.4668,4.5469,4.5976,4.5976,4.6172,4.6308,4.6308,4.6308,4.6308,4.6308,4.6308,4.6308,4.6308,4.6308,4.6308,4.6308,4.6308,4.6308,4.5083,4.5418,4.5767,4.5725,4.5715,4.5685,4.562,4.5594,4.5594,4.5594,4.5594,4.5594,4.5594,4.6317,4.7139,4.7875,4.8702,4.949,5.0236,5.076,5.0741,4.987,5.0625,5.0702,4.9375,5.013,5.0495,5.0014,4.9163,4.8663,4.8663,4.787,4.7428,4.7428,4.6605,4.5994,4.5594,4.5594,4.5594,4.5594,4.5594,4.5594,4.5594,4.5594,4.5594,4.5594,4.5594,4.5594,4.5594,4.5594,4.5594,4.5594,4.5594,4.5594,4.5594,4.5594,4.5594,4.5594,4.5594,4.5594,4.5594,4.5594,4.5594,4.5616,4.5681,4.5715,4.5718,4.5764,4.5773,4.5789,4.5839,4.5855,4.5889,4.5983,4.6003,4.6045,4.6177,4.6202,4.6225,4.6289,4.6308,4.6308,4.6308,4.6308,4.6308,4.6308,4.6308,4.6113,4.5625,4.5566,4.5371,4.4883,4.5273,4.5566,4.5566,4.6016,4.6308,4.6308,4.6308,4.6308,4.6308,4.6308,4.6308,4.6308,4.6308,4.6308,4.6308,4.6308,4.6308,4.6308,4.6308,4.6308,4.5594,4.5594,4.5594,4.5594,4.5594,4.5594,4.5594,4.5594,4.5594,4.5594,4.5594,4.5594,4.5594,4.6317,4.7447,4.9125,5.013,5.1284,5.2972,5.3197,5.2928,5.2159,5.2077,5.1755,5.0938,5.0861,5.0803,5.0707,4.9995,4.9567,4.9567,4.8759,4.8216,4.8101,4.7428,4.6644,4.5782,4.5763,4.5706,4.5594,4.5594,4.5594,4.5594,4.5594,4.5594,4.5594,4.5594,4.5594,4.5594,4.5594,4.5594,4.5594,4.5594,4.5594,4.5594,4.5594,4.5594,4.5594,4.5594,4.5594,4.5594,4.5594,4.5594,4.5594,4.5594,4.5594,4.5594,4.5594,4.5594,4.5637,4.5743,4.5766,4.579,4.5864,4.5896,4.5929,4.6042,4.6083,4.6122,4.6247,4.6289,4.6308,4.6308,4.6308,4.6308,4.6308,4.6308,4.6308,4.6308,4.6308,4.6308,4.6308,4.6308,4.6308,4.6308,4.6308,4.6308,4.6308,4.6308,4.6308,4.6308,4.6308,4.6308,4.6308,4.6308,4.6308,4.6308,4.6308,4.6308,4.6308,4.6308,4.6308,4.5594,4.5594,4.5594,4.5594,4.5594,4.5594,4.5594,4.5594,4.5594,4.5594,4.5594,4.5594,4.5594,4.6317,4.7447,4.9125,5.013,5.1284,5.2972,5.3197,5.314,5.2986,5.2967,5.264,5.1774,5.1697,5.1414,5.0745,5.0553,5.0476,5.0476,4.9649,4.8836,4.812,4.7966,4.7505,4.6678,4.6678,4.6317,4.5594,4.5594,4.5594,4.5594,4.5594,4.5594,4.5594,4.5594,4.5594,4.5594,4.5594,4.5594,4.5594,4.5594,4.5594,4.5594,4.5594,4.5594,4.5594,4.5594,4.5594,4.5594,4.5594,4.5594,4.5594,4.5594,4.5594,4.5594,4.5594,4.5594,4.5603,4.5622,4.5631,4.5669,4.5783,4.5825,4.585,4.5925,4.6029,4.6112,4.6121,4.6224,4.6308,4.6308,4.6308,4.6308,4.6308,4.6308,4.6308,4.6308,4.6308,4.6308,4.6308,4.6308,4.6308,4.6308,4.6308,4.6308,4.6308,4.6308,4.6308,4.6308,4.6308,4.6308,4.6308,4.6308,4.6308,4.6308,4.6308,4.6308,4.6308,4.6308,4.6308,4.5594,4.5594,4.5594,4.5594,4.5594,4.5594,4.5594,4.5594,4.5594,4.5594,4.5594,4.5594,4.5594,4.6317,4.7447,4.9125,5.013,5.1438,5.3587,5.3876,5.3876,5.3876,5.3876,5.353,5.2659,5.2582,5.2236,5.1395,5.1318,5.1144,5.0726,5.0303,4.9687,4.8798,4.8779,4.8375,4.7524,4.7101,4.6697,4.6278,4.5821,4.5594,4.5594,4.5594,4.5594,4.5594,4.5594,4.5594,4.5594,4.5594,4.5594,4.5594,4.5594,4.5594,4.5594,4.5594,4.5594,4.5594,4.5594,4.5594,4.5594,4.5594,4.5594,4.5594,4.5594,4.5594,4.5594,4.5594,4.5594,4.5594,4.5594,4.5594,4.562,4.5688,4.5783,4.5863,4.5888,4.6051,4.6201,4.6201,4.6267,4.6308,4.6308,4.6308,4.6308,4.6308,4.6308,4.6308,4.6308,4.6308,4.6308,4.6308,4.6308,4.6308,4.6308,4.6308,4.6308,4.6308,4.6308,4.6308,4.6308,4.6308,4.6308,4.6308,4.6308,4.6308,4.6308,4.6308,4.6308,4.6308,4.6308,4.6308,4.5594,4.5594,4.5594,4.5594,4.5594,4.5594,4.5594,4.5594,4.5594,4.5594,4.5594,4.5594,4.5594,4.6163,4.724,4.9106,5.013,5.1592,5.4145,5.4804,5.4977,5.478,5.492,5.4626,5.3587,5.3491,5.3121,5.2236,5.2,5.1543,5.0745,5.0707,5.038,4.9707,4.9687,4.926,4.8394,4.7755,4.7331,4.7158,4.6297,4.5879,4.5879,4.5686,4.5594,4.5594,4.5594,4.5594,4.5594,4.5594,4.5594,4.5594,4.5594,4.5594,4.5594,4.5594,4.5594,4.5594,4.5594,4.5594,4.5594,4.5594,4.5594,4.5594,4.5594,4.5594,4.5594,4.5594,4.5594,4.5594,4.5594,4.5594,4.5594,4.5594,4.5726,4.5846,4.5874,4.6063,4.6224,4.6247,4.6289,4.6308,4.6308,4.6308,4.6308,4.6308,4.6308,4.6308,4.6308,4.6308,4.6308,4.6308,4.6308,4.6308,4.6308,4.6308,4.6308,4.6308,4.6308,4.6308,4.6308,4.6308,4.6308,4.6308,4.6308,4.6387,4.6582,4.6582,4.668,4.6855,4.6855,4.6855,4.5594,4.5594,4.5594,4.5594,4.5594,4.5594,4.5594,4.5594,4.5594,4.5594,4.5594,4.5594,4.5594,4.5667,4.6533,4.899,5.013,5.1592,5.4145,5.5805,5.6478,5.5689,5.6285,5.6132,5.453,5.4376,5.401,5.314,5.2351,5.1543,5.0745,5.0707,5.0649,5.0572,5.0572,5.0168,4.9298,4.9202,4.8779,4.7985,4.7178,4.6774,4.6755,4.5956,4.5594,4.5594,4.5594,4.5594,4.5594,4.5594,4.5594,4.5594,4.5594,4.5594,4.5594,4.5594,4.5594,4.5594,4.5594,4.5594,4.5594,4.5594,4.5594,4.5594,4.5594,4.5594,4.5594,4.5594,4.5594,4.5594,4.5594,4.5594,4.5594,4.5594,4.5605,4.5649,4.579,4.5876,4.5978,4.6087,4.6223,4.6308,4.6308,4.6308,4.6308,4.6308,4.6308,4.6308,4.6308,4.6308,4.6308,4.6308,4.6308,4.6308,4.6308,4.6308,4.6308,4.6308,4.6308,4.6308,4.6308,4.6308,4.6308,4.6308,4.6308,4.6699,4.748,4.748,4.7891,4.8652,4.8652,4.8652,4.6374,4.674,4.7105,4.7105,4.674,4.6374,4.6374,4.5975,4.5594,4.5594,4.5594,4.5763,4.6297,4.5956,4.6436,4.8995,4.924,5.0029,5.2582,5.3953,5.4953,5.5612,5.6016,5.6151,5.6016,5.5535,5.4876,5.4049,5.2697,5.1755,5.1428,5.0957,5.0707,5.0707,5.0707,5.0534,5.0188,4.9668,4.9221,4.8875,4.8024,4.737,4.6889,4.6547,4.6109,4.5594,4.5594,4.5594,4.5594,4.5594,4.5594,4.5594,4.5594,4.5594,4.5594,4.5594,4.5594,4.5594,4.5594,4.5594,4.5594,4.5594,4.5594,4.5594,4.5594,4.5594,4.5594,4.5594,4.5594,4.5594,4.5594,4.5594,4.5594,4.5594,4.5657,4.5748,4.5786,4.5847,4.5932,4.6077,4.6145,4.6201,4.6289,4.6308,4.6308,4.6308,4.6308,4.6308,4.6308,4.6308,4.6308,4.6308,4.6308,4.6308,4.6308,4.6308,4.6308,4.6308,4.6308,4.6308,4.6308,4.6308,4.6308,4.6308,4.6816,4.7246,4.7598,4.8125,4.8555,4.8906,4.8906,4.8906,4.6908,4.7485,4.8101,4.8101,4.7505,4.6908,4.6908,4.622,4.5667,4.5936,4.5975,4.624,4.7101,4.6759,4.7014,4.9067,4.9106,4.9663,5.1967,5.3236,5.4376,5.5555,5.5939,5.6228,5.6574,5.6055,5.5381,5.4549,5.3121,5.2178,5.1904,5.1144,5.0707,5.0707,5.0707,5.0707,5.0707,5.0091,4.9784,4.9764,4.8894,4.8202,4.762,4.7139,4.6567,4.5975,4.5706,4.5594,4.5594,4.5594,4.5594,4.5594,4.5594,4.5594,4.5594,4.5594,4.5594,4.5594,4.5594,4.5594,4.5594,4.5594,4.5594,4.5594,4.5594,4.5594,4.5594,4.5594,4.5594,4.5594,4.5594,4.5594,4.5594,4.5594,4.5673,4.5754,4.579,4.5833,4.5903,4.6026,4.6077,4.612,4.6224,4.6269,4.6308,4.6308,4.6308,4.6308,4.6308,4.6308,4.6308,4.6308,4.6308,4.6308,4.6308,4.6308,4.6308,4.6308,4.6308,4.6426,4.668,4.668,4.6816,4.7051,4.7676,4.8105,4.8379,4.8984,4.9414,4.9648,4.9648,4.9648,4.6908,4.7485,4.8101,4.8101,4.7505,4.6908,4.6908,4.622,4.584,4.6716,4.6889,4.7139,4.7947,4.8082,4.8375,4.926,5.0111,5.1265,5.2953,5.4626,5.5689,5.5708,5.6459,5.6651,5.5805,5.5708,5.5381,5.4549,5.3683,5.2813,5.1942,5.1144,5.0707,5.0707,5.0707,5.0707,5.0707,5.0688,5.0688,5.0668,4.9803,4.9375,4.9317,4.7658,4.6908,4.6831,4.5975,4.5594,4.5594,4.5594,4.5594,4.5594,4.5594,4.5594,4.5594,4.5594,4.5594,4.5594,4.5594,4.5594,4.5594,4.5594,4.5594,4.5594,4.5594,4.5594,4.5594,4.5594,4.5594,4.5594,4.5594,4.5594,4.5594,4.5594,4.5594,4.5639,4.5763,4.5803,4.5814,4.5898,4.6001,4.6109,4.6109,4.6202,4.6308,4.6308,4.6308,4.6308,4.6308,4.6308,4.6308,4.6308,4.6308,4.6308,4.6308,4.6308,4.6308,4.6308,4.6308,4.6699,4.7558,4.7598,4.7988,4.8867,4.8887,4.9316,5.0176,5.0176,5.0605,5.1367,5.1367,5.1367,4.6908,4.7485,4.8101,4.8101,4.7505,4.6908,4.6908,4.6697,4.6567,4.6831,4.7331,4.7985,4.8836,4.8509,4.8966,5.1568,5.1736,5.2318,5.4587,5.5882,5.6805,5.7415,5.7723,5.73,5.5843,5.5708,5.5593,5.5343,5.4549,5.3703,5.2832,5.1986,5.1279,5.0726,5.0707,5.0707,5.0707,5.0707,5.0707,5.0707,5.0418,4.9976,4.9375,4.8856,4.8279,4.7697,4.7432,4.7009,4.649,4.649,4.6144,4.5594,4.5594,4.5594,4.5594,4.5594,4.5594,4.5594,4.5594,4.5594,4.5594,4.5594,4.5594,4.5594,4.5594,4.5594,4.5594,4.5594,4.5594,4.5594,4.5594,4.5594,4.5594,4.5594,4.5594,4.5612,4.5644,4.5661,4.5854,4.6513,4.6682,4.6936,4.7618,4.7846,4.7749,4.7144,4.7124,4.6973,4.6387,4.6308,4.6308,4.6308,4.6308,4.6308,4.6308,4.6308,4.6543,4.7148,4.7187,4.7578,4.8457,4.8496,4.8613,4.8887,4.9492,4.9922,5.0195,5.0742,5.1152,5.1406,5.1406,5.1406,4.6812,4.7485,4.8101,4.8101,4.7716,4.7351,4.7351,4.7351,4.7447,4.7774,4.824,4.8856,4.9726,4.9452,4.9875,5.2313,5.2255,5.2794,5.5338,5.617,5.6824,5.7703,5.7819,5.7242,5.5843,5.5708,5.5708,5.5708,5.4953,5.4126,5.3255,5.237,5.1524,5.0726,5.0707,5.0707,5.0707,5.0707,5.0707,5.0707,5.0707,5.0418,4.988,4.9553,4.9106,4.8567,4.8235,4.7812,0.0,4.7351,4.7028,4.6533,4.6533,4.6533,4.6513,4.6206,4.609,4.6033,4.5706,4.5594,4.5594,4.5594,4.5594,4.5594,4.5594,4.5594,4.5594,4.5594,4.5594,4.5594,4.5594,4.5594,4.5594,4.5594,4.584,4.609,4.609,4.634,4.6726,4.7295,4.7456,4.7691,4.8316,4.8544,4.8438,4.791,4.7936,4.7825,4.7278,4.7245,4.7285,4.7285,4.7285,4.7285,4.7285,4.6973,4.7012,4.7578,4.791,4.8476,4.9355,4.9394,4.9531,4.9844,5.0371,5.0644,5.0644,5.1152,5.1406,5.1406,5.1406,5.1406,0.0,4.7351,4.7908,4.7908,4.7966,4.8005,4.8005,4.8101,0.0,4.9221,4.9452,4.9784,5.0707,5.0822,5.1111,5.2101,5.2255,5.3121,5.5626,5.6016,5.6324,5.7016,5.7093,5.6728,5.5785,5.5708,5.5708,5.5708,5.5011,5.4184,5.3255,5.2428,5.1601,5.0726,5.0707,5.0707,5.0707,5.0707,5.0707,5.0707,5.0707,5.0707,5.0668,4.9861,4.949,4.9452,4.8644,4.8255,4.8197,4.8197,4.8159,4.8101,4.8101,4.8101,4.8005,4.7255,4.6985,4.6851,4.5994,4.5686,4.5686,4.5614,4.5594,4.5594,4.5594,4.5594,4.5594,4.5594,4.5629,4.5686,4.5686,4.5725,4.5782,4.5782,4.6394,4.6985,4.6985,4.7562,4.812,4.8178,4.8286,4.8391,4.8468,4.8569,4.8645,4.8586,4.8693,4.8754,4.8719,4.8818,4.8886,4.8906,4.8906,4.8906,4.8906,4.8164,4.7715,4.7773,4.8535,4.9375,5.0254,5.0293,5.0644,5.1387,5.1406,5.1406,5.1406,5.1406,5.1406,5.1406,5.1406,5.1406,4.584,0.0,4.6186,4.6186,4.6682,4.7178,0.0,4.8163,4.9144,4.9356,4.9938,5.0842,5.2337,5.2063,5.2544,5.5343,5.5805,5.6459,5.8338,5.9184,5.9209,5.8127,5.7992,5.7396,5.5843,5.5708,5.5708,5.5708,5.5516,5.4761,5.3274,5.3005,5.2222,5.0745,5.0707,5.0707,5.0707,5.0707,5.0707,5.0707,5.0707,5.0707,5.0688,5.0495,5.038,5.038,5.0188,4.9707,4.9086,4.9086,4.8702,4.8101,4.8101,4.8101,4.8082,4.7889,4.7812,4.7697,4.687,4.6581,4.649,4.5821,4.5594,4.5594,4.5594,4.5594,4.5594,4.5594,4.609,4.6581,4.6581,4.7048,4.7509,4.7509,4.7658,4.7812,4.7812,4.7966,4.8298,4.8971,4.9109,4.9342,5.0017,5.0256,5.0108,4.9439,4.9462,4.9346,4.8772,4.8733,4.8792,4.8886,4.8906,4.8906,4.8906,4.8711,4.8887,4.9551,4.9785,5.0254,5.1074,5.1113,5.1211,5.1406,5.1406,5.1406,5.1406,5.1406,5.1406,5.1406,5.1406,5.1406,4.5594,4.6167,4.6744,4.6744,4.7702,4.8644,4.8644,4.9356,4.9995,4.9995,5.0361,5.1092,5.237,5.2544,5.3351,5.5978,5.6747,5.7594,5.9261,5.9915,5.9723,5.8454,5.7953,5.7184,5.5824,5.5708,5.5708,5.5708,5.5708,5.4972,5.3294,5.3197,5.2433,5.0745,5.0707,5.0707,5.0707,5.0707,5.0707,5.0707,5.0707,5.0707,5.0707,5.0707,5.0707,5.0707,5.0707,5.0438,4.9995,4.9995,4.9726,4.9298,4.9298,4.9298,4.924,4.8836,4.8702,4.8586,4.7735,4.7447,4.737,4.6894,4.6744,4.6744,4.6744,4.6744,4.6663,4.6297,4.6547,4.6985,4.7351,4.7774,4.8101,4.8101,4.8413,4.8702,4.8702,4.9009,4.9433,4.9899,4.9995,5.0149,5.0611,5.0761,5.0647,5.0175,5.0213,5.0184,4.9841,4.9832,4.9895,5.0039,5.0058,5.0058,5.0058,5.0058,5.0098,5.0195,5.0547,5.0957,5.1387,5.1406,5.1406,5.1406,5.1406,5.1406,5.1406,5.1406,5.1406,5.1406,5.1406,5.1406,4.5917,4.7298,4.8562,4.8043,4.9317,5.0668,5.0534,5.0592,5.0707,5.0707,5.0803,5.1202,5.2274,5.3082,5.4164,5.5992,5.6901,5.7921,5.9473,5.9588,5.9204,5.839,5.7536,5.6651,5.5785,5.5708,5.5708,5.5708,5.5708,5.4972,5.3294,5.3197,5.2433,5.0745,5.0707,5.0707,5.0707,5.0707,5.0707,5.0707,5.0707,5.0707,5.0707,5.0707,5.0707,5.0707,5.0707,5.0707,5.0707,5.0707,5.0707,5.0707,5.0707,5.0707,5.0611,4.988,4.961,4.9471,4.8606,4.8216,4.8101,4.8101,4.8101,4.8101,4.8101,4.8101,4.7985,4.7447,4.7274,4.7447,4.812,4.8394,4.8509,4.8509,4.9067,4.961,4.961,5.0188,5.0707,5.0707,5.0707,5.0707,5.0707,5.0707,5.0707,5.0707,5.0804,5.0914,5.1042,5.1131,5.1231,5.1365,5.1386,5.1406,5.1406,5.1406,5.1113,5.043,5.1016,5.1406,5.1406,5.1406,5.1406,5.1406,5.1406,5.1406,5.1406,5.1406,5.1406,5.1406,5.1406,5.1406,4.7336,4.9486,5.064,4.7793,4.8913,5.0515,4.9764,5.0168,5.0707,5.0707,5.1241,5.2409,5.4703,5.5222,5.6107,5.8511,5.9031,5.9454,6.0454,5.9973,5.9204,5.839,5.7536,5.6651,5.5785,5.5708,5.5708,5.5708,5.5708,5.4972,5.3294,5.3197,5.2433,5.0745,5.0707,5.0707,5.0707,5.0707,5.0707,5.0707,5.0707,5.0707,5.0707,5.0707,5.0707,5.0707,5.0707,5.0707,5.0707,5.0707,5.0707,5.0707,5.0707,5.0707,5.0688,5.0553,5.0495,5.038,4.949,4.8721,4.8101,4.8101,4.8101,4.8101,4.8101,4.8101,4.8235,4.8836,4.9029,4.9048,4.9163,4.9745,5.0303,5.0303,5.0399,5.0495,5.0495,5.0611,5.0707,5.0707,5.0707,5.0707,5.0707,5.0707,5.0707,5.0707,5.0721,5.0773,5.0907,5.1039,5.1146,5.123,5.1322,5.1406,5.1406,5.1406,5.1348,5.1211,5.1328,5.1406,5.1406,5.1406,5.1406,5.1406,5.1406,5.1406,5.1406,5.1406,5.1406,5.1406,5.1406,5.1406,4.6533,4.8606,5.0298,4.9221,5.1207,5.3304,5.29,5.2414,5.2183,5.2669,5.2664,5.3236,5.5318,5.6074,5.7247,5.9781,6.0204,6.0185,6.0108,5.9377,5.855,5.7703,5.6824,5.6132,5.5747,5.5708,5.5708,5.5708,5.5708,5.4972,5.3294,5.3197,5.2433,5.0745,5.0707,5.0707,5.0707,5.0707,5.0707,5.0707,5.0707,5.0707,5.0707,5.0707,5.0707,5.0707,5.0707,5.0707,5.0707,5.0707,5.0707,5.0707,5.0707,5.0707,5.0707,5.0707,5.0707,5.063,5.0245,4.9841,4.949,4.949,4.949,4.949,4.949,4.949,4.9591,4.9995,4.9764,4.951,4.9976,5.0399,5.0707,5.0707,5.0707,5.0707,5.0707,5.0707,5.0707,5.0707,5.0707,5.0707,5.0707,5.0707,5.0707,5.0707,5.0707,5.0739,5.0882,5.0943,5.1034,5.1123,5.1227,5.1295,5.1295,5.1365,5.1406,5.1406,5.1406,5.1406,5.1406,5.1406,5.1406,5.1406,5.1406,5.1406,5.1406,5.1406,5.1641,5.2109,5.2109,5.2344,4.6071,4.7918,4.9918,5.0765,5.2914,5.4972,5.5555,5.4395,5.351,5.4568,5.4414,5.4472,5.5766,5.6863,5.8228,6.019,6.0671,6.0498,5.9627,5.8819,5.7973,5.7099,5.6228,5.5708,5.5708,5.5708,5.5708,5.5708,5.5708,5.4972,5.3294,5.339,5.2645,5.0765,5.088,5.0899,5.0707,5.0707,5.0707,5.0707,5.0707,5.0707,5.0707,5.0707,5.0707,5.0707,5.0707,5.0707,5.0707,5.0707,5.0707,5.0707,5.0707,5.0707,5.0707,5.0707,5.0707,5.0707,5.0707,5.0707,5.0707,5.0707,5.0707,5.0707,5.0707,5.0707,5.0707,5.0707,5.0226,4.9861,5.0534,5.0707,5.0707,5.0707,5.0707,5.0707,5.0707,5.0707,5.0707,5.0707,5.0707,5.0707,5.0707,5.0707,5.0707,5.0707,5.0707,5.074,5.0835,5.0879,5.0945,5.1031,5.1142,5.1208,5.1241,5.1344,5.1406,5.1406,5.1406,5.1406,5.1406,5.1406,5.1406,5.1406,5.1406,5.1504,5.1699,5.1699,5.2148,5.3008,5.3008,5.3359,4.7509,4.9221,5.0803,5.1601,5.2005,5.2794,5.5164,5.4395,5.3664,5.528,5.6209,5.6766,5.6882,5.8228,5.9377,5.9569,6.0262,6.0498,5.9627,5.8819,5.7973,5.7099,5.6228,5.5708,5.5708,5.5708,5.5708,5.5708,5.5708,5.4972,5.3294,5.3972,5.3265,5.0784,5.1414,5.1467,5.0707,5.0707,5.0707,5.0707,5.0707,5.0707,5.0707,5.0707,5.0707,5.0707,5.0707,5.0707,5.0707,5.0707,5.0707,5.0707,5.0707,5.0707,5.0707,5.0707,5.0707,5.0707,5.0707,5.0707,5.0707,5.0707,5.0707,5.0707,5.0707,5.0707,5.0707,5.0707,5.0649,5.0611,5.0668,5.0707,5.0707,5.0707,5.0707,5.0707,5.0707,5.0707,5.0707,5.0707,5.0707,5.0707,5.0707,5.0707,5.0707,5.0707,5.0707,5.0697,5.0717,5.083,5.0893,5.0907,5.1098,5.1243,5.1386,5.1387,5.1406,5.1406,5.1406,5.1406,5.1406,5.1406,5.1406,5.1406,5.1406,5.1797,5.2617,5.2617,5.3047,5.3906,5.3906,5.3945,4.6379,4.8572,5.0899,5.1697,5.2717,5.4049,5.6055,5.6016,5.6035,5.7723,5.7934,5.7819,5.7819,5.8338,5.8915,5.9415,5.9358,5.9127,5.88,5.803,5.717,5.6305,5.5901,5.5708,5.5708,5.5708,5.5708,5.5708,5.5247,5.4434,5.3255,5.3005,5.2447,5.1486,5.126,5.1241,5.1428,5.0957,5.0707,5.0707,5.0707,5.0707,5.0707,5.0707,5.0707,5.0707,5.0707,5.0707,5.0707,5.0707,5.0707,5.0707,5.0707,5.0707,5.0707,5.0707,5.0707,5.0707,5.0707,5.0707,5.0707,5.0707,5.0707,5.0707,5.0707,5.0707,5.0707,5.0707,5.0707,5.0707,5.0707,5.0707,5.0707,5.0707,5.0707,5.0707,5.0707,5.0707,5.0707,5.0707,5.0707,5.0707,5.0707,5.0707,5.0707,5.0707,5.0707,5.0707,5.0707,5.0818,5.0908,5.0908,5.1075,5.1245,5.1386,5.1406,5.1621,5.2168,5.1699,5.1406,5.1406,5.1914,5.2207,5.2207,5.2734,5.3183,5.3516,5.3516,5.3965,5.4805,5.4805,5.5098,4.6398,4.8687,5.1279,5.2101,5.3606,5.5318,5.7016,5.7209,5.7555,5.9511,5.905,5.8294,5.8294,5.8088,5.8069,5.8627,5.8473,5.8198,5.7934,5.7382,5.667,5.5805,5.5708,5.5708,5.5708,5.5708,5.5593,5.5343,5.4799,5.3991,5.2851,5.2486,5.2178,5.1904,5.1625,5.1741,5.2313,5.176,5.1361,5.1087,5.1087,5.0957,5.0707,5.0707,5.0707,5.0707,5.0707,5.0707,5.0707,5.0707,5.0707,5.0707,5.0707,5.0707,5.0707,5.0707,5.0707,5.0707,5.0707,5.0707,5.0707,5.0707,5.0707,5.0707,5.0707,5.0707,5.0707,5.0707,5.0707,5.0707,5.0707,5.0707,5.0707,5.0707,5.0707,5.0707,5.0707,5.0707,5.0707,5.0707,5.0707,5.0707,5.0707,5.0707,5.0707,5.0707,5.0707,5.0707,5.0707,5.0778,5.0863,5.0943,5.1115,5.1245,5.1386,5.1641,5.2051,5.2656,5.2402,5.2226,5.2226,5.2793,5.3105,5.3105,5.3691,5.4141,5.4414,5.4414,5.4863,5.5703,5.5703,5.6035,4.8082,4.9947,5.212,5.2986,5.4472,5.6184,5.7909,5.764,5.7736,6.0281,5.9473,5.8313,5.8294,5.7588,5.7003,5.7003,5.7723,5.7973,5.7113,5.6983,5.667,5.5805,5.5708,5.5708,5.5708,5.5708,5.5381,5.4549,5.4491,5.3722,5.1981,5.2717,5.2794,5.1942,5.2755,5.3197,5.3217,5.3197,5.2774,5.1904,5.1904,5.1486,5.0707,5.0707,5.0707,5.0707,5.0707,5.0707,5.0707,5.0707,5.0707,5.0707,5.0707,5.0707,5.0707,5.0707,5.0707,5.0707,5.0707,5.0707,5.0707,5.0707,5.0707,5.0707,5.0707,5.0707,5.0707,5.0707,5.0707,5.0707,5.0707,5.0707,5.0707,5.0707,5.0707,5.0707,5.0707,5.0707,5.0707,5.0707,5.0707,5.0707,5.0707,5.0707,5.0707,5.0707,5.0707,5.0693,5.0693,5.0697,5.0801,5.1063,5.1156,5.1264,5.1386,5.2207,5.2695,5.2715,5.3535,5.4004,5.4004,5.4004,5.4004,5.4004,5.4023,5.4453,5.5312,5.5312,5.5762,5.6601,5.6601,5.6601,4.7408,4.9524,5.212,5.2986,5.5376,5.7819,5.8896,5.8929,5.9146,6.0512,5.9915,5.8973,5.839,5.7588,5.7003,5.7003,5.6709,5.6593,5.694,5.6478,5.5997,5.5728,5.5708,5.5708,5.5708,5.5708,5.5381,5.4549,5.3933,5.3082,5.1962,5.2159,5.2447,5.2794,5.3063,5.3491,5.4107,5.351,5.3063,5.2813,5.2813,5.2068,5.0707,5.0707,5.0707,5.0707,5.0707,5.0707,5.0707,5.0707,5.0707,5.0707,5.0707,5.0707,5.0707,5.0707,5.0707,5.0707,5.0707,5.0707,5.0707,5.0707,5.0707,5.0707,5.0707,5.0707,5.0707,5.0707,5.0707,5.0707,5.0707,5.0707,5.0707,5.0707,5.0707,5.0707,5.0707,5.0707,5.0707,5.0707,5.0707,5.0707,5.0707,5.0707,5.0707,5.0707,5.0707,5.0735,5.0839,5.0921,5.1039,5.1156,5.1266,5.1365,5.1406,5.2207,5.2969,5.3574,5.4433,5.4648,5.4023,5.459,5.4902,5.4902,5.5527,5.5957,5.6211,5.6211,5.6348,5.6601,5.6601,5.6601,4.9779,5.1875,5.4203,5.5415,5.7261,5.8896,5.9396,5.9762,6.0165,6.0691,5.9858,5.8871,5.8396,5.73,5.6478,5.6478,5.6035,5.5882,5.6401,5.6035,5.5708,5.5708,5.5708,5.5708,5.5708,5.5708,5.5381,5.4549,5.401,5.3332,5.2467,5.2428,5.2813,5.3683,5.3722,5.4126,5.4972,5.4453,5.403,5.3722,5.3722,5.301,5.1688,5.1688,5.1491,5.1164,5.0842,5.0707,5.0707,5.0707,5.0707,5.0707,5.0707,5.0707,5.0707,5.0707,5.0707,5.0707,5.0707,5.0707,5.0707,5.0707,5.0707,5.0707,5.0707,5.0707,5.0707,5.0707,5.0707,5.0707,5.0707,5.0707,5.0707,5.0707,5.0707,5.0707,5.0707,5.0707,5.0707,5.0707,5.0707,5.0707,5.0707,5.0707,5.0707,5.0707,5.0707,5.0726,5.081,5.121,5.153,5.1635,5.2077,5.2378,5.2422,5.3223,5.3965,5.4473,5.5332,5.5586,5.5058,5.5547,5.582,5.582,5.6328,5.6601,5.6601,5.6601,5.6601,5.6601,5.6601,5.6601,5.3606,5.5497,5.719,5.8954,5.9511,5.9608,5.9511,6.0108,6.0666,6.0589,5.9358,5.828,5.8198,5.6896,5.5785,5.5708,5.5708,5.5708,5.5708,5.5708,5.5708,5.5708,5.5708,5.5708,5.5708,5.5708,5.5381,5.4549,5.4491,5.4087,5.3121,5.3236,5.3645,5.4357,5.453,5.4953,5.5689,5.5708,5.5324,5.4607,5.4607,5.4184,5.3409,5.3197,5.2601,5.1755,5.1015,5.0707,5.0707,5.0707,5.0707,5.0707,5.0707,5.0707,5.0707,5.0707,5.0707,5.0707,5.0707,5.0707,5.0707,5.0707,5.0707,5.0707,5.0707,5.0707,5.0707,5.0707,5.0707,5.0707,5.0707,5.0707,5.0707,5.0707,5.0707,5.0707,5.0707,5.0707,5.0707,5.0707,5.0765,5.0803,5.0803,5.088,5.0899,5.0822,5.0803,5.0813,5.0842,5.1643,5.2285,5.2427,5.327,5.3861,5.3984,5.4805,5.5293,5.5293,5.6113,5.6601,5.6601,5.6601,5.6601,5.6601,5.6601,5.6601,5.6601,5.6601,5.6601,5.6601,5.6601,5.6601,5.214,5.3722,5.5607,5.7973,5.955,6.0339,5.9665,5.9646,5.9608,5.8973,5.855,5.8088,5.7401,5.6978,5.6497,5.5805,5.5708,5.5708,5.5708,5.5708,5.5708,5.5708,5.5708,5.5708,5.5708,5.5708,5.5381,5.4549,5.4491,5.3818,5.2255,5.3491,5.3991,5.351,5.4761,5.5535,5.5708,5.5708,5.5612,5.5439,5.5439,5.5343,5.5088,5.3082,5.1736,5.0957,5.0784,5.0707,5.0707,5.0707,5.0707,5.0707,5.0707,5.0707,5.0707,5.0707,5.0707,5.0707,5.0707,5.0707,5.0707,5.0707,5.0707,5.0707,5.0707,5.0707,5.0707,5.0707,5.0707,5.0707,5.0707,5.0707,5.0707,5.0707,5.0707,5.0707,5.0707,5.0707,5.0707,5.0707,5.1202,5.164,5.164,5.2217,5.2433,5.1736,5.164,5.1684,5.1788,5.2667,5.3322,5.3459,5.3771,5.3963,5.4004,5.4805,5.5293,5.5293,5.6113,5.6601,5.6601,5.6601,5.6601,5.6601,5.6601,5.6601,5.6601,5.6601,5.6601,5.6601,5.6601,5.6601,5.3068,5.4684,5.6305,5.8858,5.9838,5.9954,5.9127,5.8607,5.8074,5.7223,5.7396,5.7536,5.7074,5.6651,5.6228,5.5766,5.5708,5.5708,5.5708,5.5708,5.5708,5.5708,5.5708,5.5708,5.5708,5.5708,5.5535,5.5112,5.5068,5.4684,5.378,5.4587,5.4876,5.4414,5.5241,5.5708,5.5708,5.5708,5.5708,5.5708,5.5708,5.5497,5.5068,5.3313,5.2063,5.1241,5.0861,5.0707,5.0707,5.0707,5.0707,5.0707,5.0707,5.0707,5.0707,5.0707,5.0707,5.0707,5.0707,5.0707,5.0707,5.0707,5.0707,5.0707,5.0707,5.0707,5.0707,5.0707,5.0707,5.0707,5.0707,5.0707,5.0707,5.0707,5.0707,5.0707,5.0707,5.0707,5.0803,5.1202,5.1601,5.2019,5.2447,5.289,5.3044,5.2582,5.2524,5.256,5.2622,5.3448,5.411,5.4311,5.4754,5.511,5.5234,5.5664,5.5918,5.5918,5.6348,5.6601,5.6601,5.6601,5.6601,5.6601,5.6601,5.6601,5.6601,5.6601,5.6601,5.6601,5.6601,5.6601,5.3804,5.5901,5.7574,5.9979,6.0146,5.9473,5.8525,5.7742,5.692,5.592,5.6266,5.6786,5.6786,5.6189,5.5708,5.5708,5.5708,5.5708,5.5708,5.5708,5.5708,5.5708,5.5708,5.5708,5.5708,5.5708,5.5708,5.5708,5.5708,5.5651,5.5497,5.5612,5.5651,5.5497,5.5631,5.5708,5.5708,5.5708,5.5708,5.5708,5.5708,5.5285,5.4472,5.376,5.287,5.1865,5.1053,5.0707,5.0707,5.0707,5.0707,5.0707,5.0707,5.0707,5.0707,5.0707,5.0707,5.0707,5.0707,5.0707,5.0707,5.0707,5.0707,5.0707,5.0707,5.0707,5.0707,5.0707,5.0707,5.0707,5.0707,5.0707,5.0707,5.0707,5.0707,5.0745,5.088,5.0919,5.1144,5.1967,5.2255,5.262,5.3486,5.353,5.3409,5.3409,5.3409,5.3429,5.346,5.4216,5.4856,5.5134,5.5801,5.6331,5.6581,5.6601,5.6601,5.6601,5.6601,5.6601,5.6601,5.6601,5.6601,5.6601,5.6601,5.6601,5.6601,5.6601,5.6601,5.6601,5.6601,5.6601,5.0803,5.4112,5.742,5.9223,6.0146,6.0223,5.866,5.8204,5.7665,5.6035,5.5785,5.5862,5.5862,5.5785,5.5708,5.5708,5.5708,5.5708,5.5708,5.5708,5.5708,5.5708,5.5708,5.5708,5.5708,5.5708,5.5708,5.5708,5.5708,5.5401,5.4703,5.5324,5.5381,5.4684,5.5343,5.5708,5.5708,5.5708,5.5708,5.5708,5.5708,5.5285,5.4491,5.4376,5.3433,5.1865,5.1053,5.0707,5.0707,5.0707,5.0707,5.0707,5.0707,5.0707,5.0707,5.0707,5.0707,5.0707,5.0707,5.0707,5.0707,5.0707,5.0707,5.0707,5.0707,5.0707,5.0707,5.0707,5.0707,5.0707,5.0707,5.0707,5.0707,5.0707,5.0707,5.0899,5.1582,5.1736,5.1986,5.2851,5.3645,5.4414,5.5228,5.478,5.4337,5.4337,5.4337,5.4371,5.4473,5.5205,5.5843,5.6161,5.6298,5.6427,5.6582,5.6601,5.6601,5.6601,5.6601,5.6601,5.6601,5.6601,5.6601,5.6601,5.6601,5.6601,5.6601,5.6601,5.6601,5.6601,5.6601,5.6601,5.1241,5.415,5.6786,5.8954,5.9454,5.9204,5.8467,5.7915,5.7228,5.5958,5.5708,5.5708,5.5708,5.5708,5.5708,5.5708,5.5708,5.5708,5.5708,5.5708,5.5708,5.5708,5.5708,5.5708,5.5708,5.5708,5.5708,5.5708,5.5708,5.5555,5.5189,5.5516,5.5535,5.5189,5.5516,5.5708,5.5708,5.5708,5.5708,5.5708,5.5708,5.5516,5.517,5.4703,5.3549,5.1885,5.1524,5.1125,5.0707,5.0707,5.0707,5.0707,5.0707,5.0707,5.0707,5.0707,5.0707,5.0707,5.0707,5.0707,5.0707,5.0707,5.0707,5.0707,5.0707,5.0707,5.0707,5.0707,5.0707,5.0803,5.126,5.1034,5.0938,5.1875,5.1722,5.1741,5.3063,5.2582,5.2294,5.3664,5.4607,5.5285,5.5651,5.542,5.517,5.517,5.517,5.5192,5.5253,5.5576,5.5927,5.6249,5.6295,5.6376,5.6581,5.6601,5.6601,5.6601,5.6601,5.6601,5.6601,5.6601,5.6601,5.6601,5.6601,5.6601,5.6601,5.6601,5.6601,5.6601,5.6601,5.6601,5.1202,5.3453,5.5395,5.8165,5.8723,5.855,5.8352,5.78,5.7016,5.5939,5.5708,5.5708,5.5708,5.5708,5.5708,5.5708,5.5708,5.5708,5.5708,5.5708,5.5708,5.5708,5.5708,5.5708,5.5708,5.5708,5.5708,5.5708,5.5708,5.5708,5.5708,5.5708,5.5708,5.5708,5.5708,5.5708,5.5708,5.5708,5.5708,5.5708,5.5708,5.5708,5.5689,5.5074,5.3972,5.2544,5.2332,5.1755,5.1015,5.1246,5.1072,5.0726,5.0938,5.088,5.0707,5.0707,5.0707,5.0707,5.0707,5.0707,5.0707,5.0707,5.0707,5.0707,5.0707,5.0707,5.0707,5.0707,5.0707,5.0899,5.1697,5.1447,5.1375,5.2856,5.2697,5.2659,5.4164,5.3645,5.3255,5.4549,5.5285,5.5708,5.5708,5.5708,5.5708,5.5708,5.5708,5.5708,5.5708,5.5728,5.5861,5.6167,5.6222,5.6358,5.6581,5.6601,5.6601,5.6601,5.6601,5.6601,5.6601,5.6601,5.6601,5.6601,5.6601,5.6601,5.6601,5.6601,5.6601,5.6601,5.6601,5.6601,4.888,5.0813,5.2909,5.6285,5.8286,5.9242,5.8467,5.8256,5.7742,5.6055,5.5708,5.5708,5.5708,5.5708,5.5708,5.5708,5.5708,5.5708,5.5708,5.5708,5.5708,5.5708,5.5708,5.5708,5.5708,5.5708,5.5708,5.5708,5.5708,5.5708,5.5708,5.5708,5.5708,5.5708,5.5708,5.5708,5.5708,5.5708,5.5708,5.5708,5.5708,5.5708,5.5708,5.567,5.5164,5.4318,5.3491,5.264,5.1909,5.2736,5.2125,5.0784,5.1543,5.1375,5.0707,5.0707,5.0707,5.0707,5.0707,5.0707,5.0707,5.0707,5.0707,5.0707,5.0707,5.0707,5.0707,5.0707,5.0707,5.0899,5.1697,5.1865,5.2063,5.2986,5.3159,5.3371,5.4299,5.503,5.5535,5.5612,5.567,5.5708,5.5708,5.5708,5.5708,5.5708,5.5708,5.5708,5.5708,5.5807,5.597,5.6175,5.6315,5.6452,5.6582,5.6601,5.6601,5.6601,5.6601,5.6601,5.6601,5.6601,5.6601,5.6601,5.6601,5.6601,5.6601,5.6601,5.6601,5.6601,5.6601,5.6601,4.8182,4.9817,5.1683,5.3991,5.5818,5.6992,5.6703,5.7049,5.7132,5.5939,5.5708,5.5708,5.5708,5.5708,5.5708,5.5708,5.5708,5.5708,5.5708,5.5708,5.5708,5.5708,5.5708,5.5708,5.5708,5.5708,5.5708,5.5708,5.5708,5.5708,5.5708,5.5708,5.5708,5.5708,5.5708,5.5708,5.5708,5.5708,5.5708,5.5708,5.5708,5.5708,5.5708,5.5708,5.5535,5.5247,5.4934,5.403,5.2717,5.2467,5.2005,5.1447,5.1221,5.0957,5.0707,5.0707,5.0707,5.0707,5.0707,5.0707,5.0707,5.0707,5.0707,5.0707,5.0707,5.0707,5.0707,5.0707,5.1068,5.1659,5.2505,5.2736,5.2947,5.3837,5.4434,5.4895,5.5203,5.5497,5.5708,5.5708,5.5708,5.5708,5.5708,5.5708,5.5708,5.5708,5.5708,5.5708,5.5708,5.5734,5.583,5.5988,5.6161,5.6324,5.6457,5.6559,5.6601,5.6601,5.6601,5.6601,5.6601,5.6601,5.6601,5.6601,5.6601,5.6601,5.6601,5.6601,5.6601,5.6601,5.6601,5.6601,4.7466,4.874,5.0375,5.2645,5.4049,5.5088,5.5939,5.6574,5.6843,5.6266,5.6382,5.6472,5.6189,5.6132,5.6035,5.5747,5.5708,5.5708,5.5708,5.5708,5.5708,5.5708,5.5708,5.5708,5.5708,5.5708,5.5708,5.5708,5.5708,5.5708,5.5708,5.5708,5.5708,5.5708,5.5708,5.5708,5.5708,5.5708,5.5708,5.5708,5.5708,5.5708,5.5708,5.5708,5.5708,5.5708,5.5708,5.4914,5.3587,5.3005,5.2428,5.1846,5.1318,5.0938,5.0707,5.0707,5.0707,5.0707,5.0707,5.0707,5.0707,5.0707,5.0707,5.0707,5.0707,5.0899,5.1106,5.1106,5.1702,5.2544,5.3414,5.3837,5.4184,5.4761,5.5304,5.5708,5.5708,5.5708,5.5708,5.5708,5.5708,5.5708,5.5708,5.5708,5.5708,5.5708,5.5708,5.5708,5.5708,5.5748,5.5821,5.5981,5.6158,5.632,5.6456,5.6559,5.6601,5.6601,5.6601,5.6601,5.6601,5.6601,5.6601,5.6601,5.6601,5.6601,5.6601,5.6601,5.6601,5.6601,5.6601,5.6601,0.0,0.0,0.0,5.2217,5.3082,5.3799,5.6305,5.6887,5.6907,5.6983,5.7646,5.7973,5.717,5.7022,5.6709,5.5882,5.5728,5.5708,5.5708,5.5708,5.5708,5.5708,5.5708,5.5708,5.5708,5.5708,5.5708,5.5708,5.5708,5.5708,5.5708,5.5708,5.5708,5.5708,5.5708,5.5708,5.5708,5.5708,5.5708,5.5708,5.5708,5.5708,5.5708,5.5708,5.5708,5.5708,5.5708,5.5266,5.453,5.4472,5.3472,5.1923,5.1885,5.1395,5.0707,5.0707,5.0707,5.0707,5.0707,5.0707,5.0707,5.0707,5.0726,5.0745,5.0745,5.1298,5.1942,5.1942,5.2563,5.3433,5.4318,5.5107,5.5708,5.5708,5.5708,5.5708,5.5708,5.5708,5.5708,5.5708,5.5708,5.5708,5.5708,5.5708,5.5708,5.5708,5.5708,5.5708,5.5708,5.5811,5.597,5.6169,5.6315,5.6453,5.6581,5.6601,5.6601,5.6601,5.6601,5.6601,5.6601,5.6601,5.6601,5.6601,5.6601,5.6601,5.6601,5.6601,5.6601,5.6601,5.6601,5.6601,4.5898,0.0,0.0,0.0,0.0,0.0,5.3818,5.4241,5.4761,5.6613,5.6689,5.6722,5.7742,5.744,5.6926,5.667,5.6112,5.5708,5.5708,5.5708,5.5708,5.5708,5.5708,5.5708,5.5708,5.5708,5.5708,5.5708,5.5708,5.5708,5.5708,5.5708,5.5708,5.5708,5.5708,5.5708,5.5708,5.5708,5.5708,5.5708,5.5708,5.5708,5.5708,5.5708,5.5708,5.5708,5.5708,5.5574,5.5266,5.4068,5.3274,5.2717,5.151,5.0899,5.0707,5.0707,5.0707,5.0707,5.0707,5.0707,5.0707,5.0707,5.1087,5.1563,5.1563,5.2159,5.2832,5.2832,5.3472,5.4337,5.5145,5.5535,5.5708,5.5708,5.5708,5.5708,5.5708,5.5708,5.5708,5.5708,5.5708,5.5708,5.5708,5.5708,5.5708,5.5708,5.5708,5.5708,5.5708,5.5733,5.5817,5.5966,5.6144,5.6313,5.6431,5.6538,5.6601,5.6601,5.6601,5.6601,5.6601,5.6601,5.6601,5.6601,5.6601,5.6601,5.6601,5.6601,5.6601,5.6601,5.6601,5.6601,4.6144,4.6509,4.7274,4.8798,0.0,0.0,5.3183,5.3741,5.4357,5.6555,5.6882,5.6973,5.7646,5.7343,5.7003,5.7003,5.6574,5.6247,5.6247,5.6247,5.6247,5.6247,5.6247,5.6093,5.5747,5.5708,5.5708,5.5708,5.5708,5.5708,5.5708,5.5708,5.5708,5.5708,5.5708,5.5708,5.5708,5.5708,5.5708,5.5708,5.5708,5.5708,5.5708,5.5708,5.5708,5.5708,5.5708,5.5708,5.5593,5.428,5.353,5.3063,5.1722,5.0996,5.0707,5.0707,5.0919,5.1202,5.1202,5.1433,5.1741,5.1741,5.2068,5.2447,5.2447,5.3044,5.3741,5.3741,5.4357,5.5112,5.5574,5.5708,5.5708,5.5708,5.5708,5.5708,5.5708,5.5708,5.5708,5.5708,5.5708,5.5708,5.5708,5.5708,5.5708,5.5708,5.5708,5.5708,5.5708,5.5708,5.5754,5.5895,5.6078,5.6246,5.6383,5.6515,5.6601,5.6601,5.6601,5.6601,5.6601,5.6601,5.6601,5.6601,5.6601,5.6601,5.6601,5.6601,5.6601,5.6601,5.6601,5.6601,4.7024,4.7101,4.7716,4.9995,5.0111,0.0,5.351,5.4203,5.4684,5.6382,5.7261,5.755,5.6959,5.6863,5.6824,5.6728,5.6887,5.7036,5.7132,5.7132,5.7132,5.7132,5.706,5.6689,5.592,5.5766,5.5708,5.5708,5.5708,5.5708,5.5708,5.5708,5.5708,5.5708,5.5708,5.5708,5.5708,5.5708,5.5708,5.5708,5.5708,5.5708,5.5708,5.5708,5.5708,5.5708,5.5708,5.5708,5.5651,5.4934,5.4126,5.3255,5.239,5.1606,5.0976,5.0976,5.1433,5.2038,5.2038,5.2544,5.3197,5.3197,5.3274,5.3332,5.3332,5.3953,5.4626,5.4626,5.5151,5.5708,5.5708,5.5708,5.5708,5.5708,5.5708,5.5708,5.5708,5.5708,5.5708,5.5708,5.5708,5.5708,5.5708,5.5708,5.5708,5.5708,5.5708,5.5708,5.5708,5.5708,5.5754,5.5895,5.6058,5.623,5.6383,5.6512,5.6582,5.6601,5.6601,5.6601,5.6601,5.6601,5.6601,5.6601,5.6601,5.6601,5.6601,5.6601,5.6601,5.6601,5.6601,5.6601,4.787,4.8375,4.9029,4.9534,5.0548,0.0,5.2255,5.2409,5.289,5.4626,5.4568,5.4568,5.5747,5.5958,5.5747,5.5093,5.6112,5.7247,5.7953,5.805,5.805,5.805,5.744,5.6926,5.6766,5.6112,5.5708,5.5708,5.5708,5.5708,5.5708,5.5708,5.5708,5.5708,5.5708,5.5708,5.5708,5.5708,5.5708,5.5708,5.5708,5.5708,5.5708,5.5708,5.5708,5.5708,5.5708,5.5708,5.5689,5.5535,5.4972,5.4164,5.3294,5.2851,5.2702,5.2702,5.2813,5.2947,5.2947,5.3063,5.3197,5.3197,5.3664,5.4241,5.4241,5.4818,5.5478,5.5478,5.5574,5.5708,5.5708,5.5708,5.5708,5.5708,5.5708,5.5708,5.5708,5.5708,5.5708,5.5708,5.5708,5.5708,5.5708,5.5708,5.5708,5.5708,5.5708,5.5708,5.5708,5.5708,5.5754,5.5895,5.5936,5.6077,5.6379,5.6422,5.6485,5.6582,5.6601,5.6601,5.6601,5.6601,5.6601,5.6601,5.6601,5.6601,5.6601,5.6601,5.6601,5.6601,5.6601,5.6601,4.8216,4.874,4.9606,5.0433,5.0991,0.0,0.0,5.2217,5.239,5.4145,5.3818,5.3587,5.4876,5.4741,5.4587,5.503,5.617,5.7305,5.8184,5.864,5.8896,5.8896,5.8165,5.7478,5.7036,5.6209,5.5708,5.5708,5.5708,5.5708,5.5708,5.5708,5.5708,5.5708,5.5708,5.5708,5.5708,5.5708,5.5708,5.5708,5.5708,5.5708,5.5708,5.5708,5.5708,5.5708,5.5708,5.5708,5.5708,5.5708,5.5458,5.5016,5.4184,5.3587,5.3197,5.3197,5.3491,5.3857,5.3857,5.4107,5.4453,5.4453,5.4741,5.5112,5.5112,5.5381,5.5708,5.5708,5.5708,5.5708,5.5708,5.5708,5.5708,5.5708,5.5708,5.5708,5.5708,5.5708,5.5708,5.5708,5.5708,5.5708,5.5708,5.5708,5.5708,5.5708,5.5708,5.5708,5.5708,5.5708,5.5722,5.5793,5.5853,5.6005,5.6271,5.6368,5.6456,5.6582,5.6601,5.6601,5.6601,5.6601,5.6601,5.6601,5.6601,5.6601,5.6601,5.6601,5.6601,5.6601,5.6601,5.6601,4.8548,4.899,4.9971,5.1332,5.1414,5.1457,0.0,0.0,0.0,5.351,5.3203,5.2933,5.3645,5.3318,5.3337,5.4535,5.5747,5.6766,5.7473,5.8261,5.8896,5.9223,5.855,5.7761,5.7074,5.6074,5.5535,5.5689,5.5555,5.5535,5.5689,5.5708,5.5708,5.5708,5.5708,5.5708,5.5708,5.5708,5.5708,5.5708,5.5708,5.5708,5.5708,5.5708,5.5708,5.5708,5.5708,5.5708,5.5708,5.5708,5.5708,5.5651,5.4972,5.4299,5.3683,5.3683,5.4126,5.4722,5.4722,5.517,5.5708,5.5708,5.5708,5.5708,5.5708,5.5708,5.5708,5.5708,5.5708,5.5708,5.5708,5.5708,5.5708,5.5708,5.5708,5.5708,5.5708,5.5708,5.5708,5.5708,5.5708,5.5708,5.5708,5.5708,5.5708,5.5708,5.5708,5.5708,5.5708,5.5708,5.5708,5.5708,5.5798,5.5947,5.6135,5.6271,5.642,5.6559,5.6582,5.6601,5.6601,5.6601,5.6601,5.6601,5.6601,5.6601,5.6601,5.6601,5.6601,5.6601,5.6601,5.6601,4.9279,4.9899,5.0592,5.0784,5.1875,5.2587,5.1284,0.0,5.1755,5.1246,0.0,5.1015,5.1111,0.0,0.0,5.1342,5.3246,5.4818,5.4914,5.5626,5.6703,5.8256,5.7671,5.7113,5.7003,5.5574,5.4934,5.5651,5.503,5.4953,5.567,5.5708,5.5708,5.5708,5.5708,5.5708,5.5708,5.5708,5.5708,5.5708,5.5708,5.5708,5.5708,5.5708,5.5708,5.5708,5.5708,5.5708,5.5708,5.5708,5.5708,5.5689,5.5593,5.5497,5.542,5.542,5.5478,5.5555,5.5555,5.5612,5.5708,5.5708,5.5708,5.5708,5.5708,5.5708,5.5708,5.5708,5.5708,5.5708,5.5708,5.5708,5.5708,5.5708,5.5708,5.5708,5.5708,5.5708,5.5708,5.5708,5.5708,5.5708,5.5708,5.5708,5.5708,5.5708,5.5708,5.5708,5.5708,5.5708,5.5708,5.5708,5.5716,5.5784,5.592,5.6109,5.6288,5.6417,5.6537,5.6601,5.6601,5.6601,5.6601,5.6601,5.6601,5.6601,5.6601,5.6601,5.6601,5.6601,5.6601,5.6601,4.8644,4.9279,5.0188,5.1144,5.1568,5.1683,5.1452,5.1298,5.1241,5.1375,0.0,0.0,0.0,0.0,0.0,0.0,5.2722,5.376,5.376,5.4472,5.5818,5.805,5.7069,5.6247,5.6247,5.5189,5.4818,5.5651,5.4953,5.4857,5.567,5.5708,5.5708,5.5708,5.5708,5.5708,5.5708,5.5708,5.5708,5.5708,5.5708,5.5708,5.5708,5.5708,5.5708,5.5708,5.5708,5.5708,5.5708,5.5708,5.5708,5.5708,5.5708,5.5708,5.5708,5.5708,5.5708,5.5708,5.5708,5.5708,5.5708,5.5708,5.5708,5.5708,5.5708,5.5708,5.5708,5.5708,5.5708,5.5708,5.5708,5.5708,5.5708,5.5708,5.5708,5.5708,5.5708,5.5708,5.5708,5.5708,5.5708,5.5708,5.5708,5.5708,5.5708,5.5708,5.5708,5.5708,5.5708,5.5708,5.5708,5.5708,5.5708,5.5803,5.6048,5.6155,5.6297,5.6491,5.6561,5.6601,5.6601,5.6601,5.6601,5.6601,5.6601,5.6601,5.6601,5.6601,5.6601,5.6601,5.6601,5.6601,4.8159,4.874,4.9683,5.0909,5.0952,5.0784,5.114,5.0952,5.0803,5.114,5.0933,0.0,0.0,0.0,5.0899,5.1486,0.0,5.2587,5.2813,5.3203,5.4395,5.6953,5.6338,5.5708,5.5708,5.4761,5.4587,5.5612,5.4722,5.4607,5.5651,5.5708,5.5708,5.5708,5.5708,5.5708,5.5708,5.5708,5.5708,5.5708,5.5708,5.5708,5.5708,5.5708,5.5708,5.5708,5.5708,5.5708,5.5708,5.5708,5.5708,5.5708,5.5708,5.5708,5.5708,5.5708,5.5708,5.5708,5.5708,5.5708,5.5708,5.5708,5.5708,5.5708,5.5708,5.5708,5.5708,5.5708,5.5708,5.5708,5.5708,5.5708,5.5708,5.5708,5.5708,5.5708,5.5708,5.5708,5.5708,5.5708,5.5708,5.5708,5.5708,5.5708,5.5708,5.5708,5.5708,5.5708,5.5708,5.5708,5.5708,5.5708,5.5708,5.5808,5.6037,5.6146,5.6317,5.6581,5.6601,5.6601,5.6601,5.6601,5.6601,5.6601,5.6601,5.6601,5.6601,5.6601,5.6601,5.6601,5.6601,5.6601,4.8336,4.874,4.9413,4.9471,5.0091,5.0495,4.9668,5.0111,5.0476,4.9644,5.013,5.0707,5.0726,5.0726,5.0707,0.0,5.0765,0.0,0.0,5.1298,5.1765,5.4318,5.5266,5.5708,5.5708,5.4203,5.3933,5.5574,5.4164,5.3953,5.5612,5.5708,5.5708,5.5708,5.5708,5.5708,5.5708,5.5708,5.5708,5.5708,5.5708,5.5708,5.5708,5.5708,5.5708,5.5708,5.5708,5.5708,5.5708,5.5708,5.5708,5.5708,5.5708,5.5708,5.5708,5.5708,5.5708,5.5708,5.5708,5.5708,5.5708,5.5708,5.5708,5.5708,5.5708,5.5708,5.5708,5.5708,5.5708,5.5708,5.5708,5.5708,5.5708,5.5708,5.5708,5.5708,5.5708,5.5708,5.5708,5.5708,5.5708,5.5708,5.5708,5.5708,5.5708,5.5708,5.5708,5.5708,5.5708,5.5708,5.5708,5.5708,5.5708,5.5695,5.5716,5.6004,5.6317,5.6581,5.6601,5.6601,5.6601,5.6601,5.6601,5.6601,5.6601,5.6601,5.6601,5.6601,5.6601,5.6601,5.6601,5.6601,4.8043,4.874,4.9534,5.0111,5.0053,4.9764,4.9471,4.963,4.9764,4.9452,5.0091,5.0707,5.0707,5.0707,5.0707,0.0,0.0,5.0803,0.0,5.1337,5.1813,5.2678,5.4049,5.4684,5.4107,5.4049,5.4299,5.4857,5.4376,5.453,5.5651,5.5708,5.5708,5.5708,5.5708,5.5708,5.5708,5.5708,5.5708,5.5708,5.5708,5.5708,5.5708,5.5708,5.5708,5.5708,5.5708,5.5708,5.5708,5.5708,5.5708,5.5708,5.5708,5.5708,5.5708,5.5708,5.5708,5.5708,5.5708,5.5708,5.5708,5.5708,5.5708,5.5593,5.5068,5.5285,5.5593,5.5054,5.5285,5.5708,5.5708,5.5708,5.5708,5.5708,5.5708,5.5708,5.5708,5.5708,5.5708,5.5708,5.5708,5.5708,5.5708,5.5708,5.5708,5.5708,5.5708,5.5708,5.5708,5.5708,5.5708,5.5708,5.5708,5.5743,5.581,5.6147,5.6374,5.6458,5.6559,5.6601,5.6601,5.6601,5.6601,5.6601,5.6601,5.6601,5.6601,5.6601,5.6601,5.6601,5.6601,5.6601,4.7601,4.8298,4.9067,4.9649,4.9591,4.9394,4.9394,4.9649,4.9764,4.9452,5.0091,5.0707,5.0707,5.0707,5.0707,0.0,0.0,5.0707,0.0,5.1144,5.1467,5.1467,5.2991,5.3933,5.3683,5.3606,5.3953,5.4857,5.4376,5.4511,5.5651,5.5997,5.6016,5.5708,5.5997,5.6016,5.5708,5.5708,5.5708,5.5708,5.5708,5.5708,5.5708,5.5708,5.5708,5.5708,5.5708,5.5708,5.5708,5.5708,5.5708,5.5708,5.5708,5.5708,5.5708,5.5708,5.5708,5.5708,5.5708,5.5708,5.5651,5.5381,5.5266,5.5126,5.4299,5.4395,5.4703,5.4184,5.4626,5.5266,5.5266,5.5497,5.5708,5.5708,5.5708,5.5708,5.5708,5.5708,5.5708,5.5708,5.5708,5.5708,5.5708,5.5708,5.5708,5.5708,5.5708,5.5708,5.5708,5.5708,5.5708,5.5708,5.5708,5.5759,5.588,5.6153,5.636,5.6408,5.6535,5.6601,5.6601,5.6601,5.6601,5.6601,5.6601,5.6601,5.6601,5.6601,5.6601,5.6601,5.6601,5.6601]}]]